[[{"header":{"parameterUnit":"m.s-1","parameterCategory":1,"la1":31.0,"la2":29.5877,"lo1":-88.7671,"lo2":-86.6584,"dy":0.0162,"dx":0.0185,"nx":115,"ny":88,"refTime":"2023-08-22T06:00:00:Z","depth":0,"parameterNumber":2,"parameterNumberName":"U-component_of_WINDS"},"data":[0.0,0.0,0.0,0.0,0.0,0.0,0.0,0.0,0.0,0.0,0.0,0.0,0.0,0.0,0.0,0.0,0.0,0.0,0.0,0.0,0.0,0.0,0.0,0.0,0.0,0.0,0.0,0.0,0.0,0.0,0.0,0.0,0.0,0.0,0.0,0.0,0.0,0.0,0.0,0.0,0.0,0.0,0.0,0.0,0.0,0.0,0.0,0.0,0.0,0.0,0.0,0.0,0.0,0.0,0.0,0.0,0.0,0.0,0.0,0.0,0.0,0.0,0.0,0.0,0.0,0.0,0.0,0.0,0.0,0.0,0.0,0.0,0.0,0.0,0.0,0.0,0.0,0.0,0.0,0.0,0.0,0.0,0.0,0.0,0.0,0.0,0.0,0.0,0.0,0.0,0.0,0.0,0.0,0.0,0.0,0.0,0.0,0.0,0.0,0.0,0.0,0.0,0.0,0.0,0.0,0.0,0.0,0.0,0.0,0.0,0.0,0.0,0.0,0.0,0.0,0.0,0.0,0.0,0.0,0.0,0.0,0.0,0.0,0.0,0.0,0.0,0.0,0.0,0.0,0.0,0.0,0.0,0.0,0.0,0.0,0.0,0.0,0.0,0.0,0.0,0.0,0.0,0.0,0.0,0.0,0.0,0.0,0.0,0.0,0.0,0.0,0.0,0.0,0.0,0.0,0.0,0.0,0.0,0.0,0.0,0.0,0.0,0.0,0.0,0.0,0.0,0.0,0.0,0.0,0.0,0.0,0.0,0.0,0.0,0.0,0.0,0.0,0.0,0.0,0.0,0.0,0.0,0.0,0.0,0.0,0.0,0.0,0.0,0.0,0.0,0.0,0.0,0.0,0.0,0.0,0.0,0.0,0.0,0.0,0.0,0.0,0.0,0.0,0.0,0.0,0.0,0.0,0.0,0.0,0.0,0.0,0.0,0.0,0.0,0.0,0.0,0.0,0.0,0.0,0.0,0.0,0.0,0.0,0.0,0.0,0.0,0.0,0.0,0.0,0.0,0.0,0.0,0.0,0.0,0.0,0.0,0.0,0.0,0.0,0.0,0.0,0.0,0.0,0.0,0.0,0.0,0.0,0.0,0.0,0.0,0.0,0.0,0.0,0.0,0.0,0.0,0.0,0.0,0.0,0.0,0.0,0.0,0.0,0.0,0.0,0.0,0.0,0.0,0.0,0.0,0.0,0.0,0.0,0.0,0.0,0.0,0.0,0.0,0.0,0.0,0.0,0.0,0.0,0.0,0.0,0.0,0.0,0.0,0.0,0.0,0.0,0.0,0.0,0.0,0.0,0.0,0.0,0.0,0.0,0.0,0.0,0.0,0.0,0.0,0.0,0.0,0.0,0.0,0.0,0.0,0.0,0.0,0.0,0.0,0.0,0.0,0.0,0.0,0.0,0.0,0.0,0.0,0.0,0.0,0.0,0.0,0.0,0.0,0.0,0.0,0.0,0.0,0.0,0.0,0.0,0.0,0.0,0.0,0.0,0.0,0.0,0.0,0.0,0.0,0.0,0.0,0.0,0.0,0.0,0.0,0.0,0.0,0.0,0.0,0.0,0.0,0.0,0.0,0.0,0.0,0.0,0.0,0.0,0.0,0.0,0.0,0.0,0.0,0.0,0.0,0.0,0.0,0.0,0.0,0.0,0.0,0.0,0.0,0.0,0.0,0.0,0.0,0.0,0.0,0.0,0.0,0.0,0.0,0.0,0.0,0.0,0.0,0.0,0.0,0.0,0.0,0.0,0.0,0.0,0.0,0.0,0.0,0.0,0.0,0.0,0.0,0.0,0.0,0.0,0.0,0.0,0.0,0.0,0.0,0.0,0.0,0.0,0.0,0.0,0.0,0.0,0.0,0.0,0.0,0.0,0.0,0.0,0.0,0.0,0.0,0.0,0.0,0.0,0.0,0.0,0.0,0.0,0.0,0.0,0.0,0.0,0.0,0.0,0.0,0.0,0.0,0.0,0.0,0.0,0.0,0.0,0.0,0.0,0.0,0.0,0.0,0.0,0.0,0.0,0.0,0.0,0.0,0.0,0.0,0.0,0.0,0.0,0.0,0.0,0.0,0.0,0.0,0.0,0.0,0.0,0.0,0.0,0.0,0.0,0.0,0.0,0.0,0.0,0.0,0.0,0.0,0.0,0.0,0.0,0.0,0.0,0.0,0.0,0.0,0.0,0.0,0.0,0.0,0.0,0.0,0.0,0.0,0.0,0.0,0.0,0.0,0.0,0.0,0.0,0.0,0.0,0.0,0.0,0.0,0.0,0.0,0.0,0.0,0.0,0.0,0.0,0.0,0.0,0.0,0.0,0.0,0.0,0.0,0.0,0.0,0.0,0.0,0.0,0.0,0.0,0.0,0.0,0.0,0.0,0.0,0.0,0.0,0.0,0.0,0.0,0.0,0.0,0.0,0.0,0.0,0.0,0.0,0.0,0.0,0.0,0.0,0.0,0.0,0.0,0.0,0.0,0.0,0.0,0.0,0.0,0.0,0.0,0.0,0.0,0.0,0.0,0.0,0.0,0.0,0.0,0.0,0.0,0.0,0.0,0.0,0.0,0.0,0.0,0.0,0.0,0.0,0.0,0.0,0.0,0.0,0.0,0.0,0.0,0.0,0.0,0.0,0.0,0.0,0.0,0.0,0.0,0.0,0.0,0.0,0.0,0.0,0.0,0.0,0.0,0.0,0.0,0.0,0.0,0.0,0.0,0.0,0.0,0.0,0.0,0.0,0.0,0.0,0.0,0.0,0.0,0.0,0.0,0.0,0.0,0.0,0.0,0.0,0.0,0.0,0.0,0.0,0.0,0.0,0.0,0.0,0.0,0.0,0.0,0.0,0.0,0.0,0.0,0.0,0.0,0.0,0.0,0.0,0.0,0.0,0.0,0.0,0.0,0.0,0.0,0.0,0.0,0.0,0.0,0.0,0.0,0.0,0.0,0.0,0.0,0.0,0.0,0.0,0.0,0.0,0.0,0.0,0.0,0.0,0.0,0.0,0.0,0.0,0.0,0.0,0.0,0.0,0.0,0.0,0.0,0.0,0.0,0.0,0.0,0.0,0.0,0.0,0.0,0.0,0.0,0.0,0.0,0.0,0.0,0.0,0.0,0.0,0.0,0.0,0.0,0.0,0.0,0.0,0.0,0.0,0.0,0.0,0.0,0.0,0.0,0.0,0.0,0.0,0.0,0.0,0.0,0.0,0.0,0.0,0.0,0.0,0.0,0.0,0.0,0.0,0.0,0.0,0.0,0.0,0.0,0.0,0.0,0.0,0.0,0.0,0.0,0.0,0.0,0.0,0.0,0.0,0.0,0.0,0.0,0.0,0.0,0.0,0.0,0.0,0.0,0.0,0.0,0.0,0.0,0.0,0.0,0.0,0.0,0.0,0.0,0.0,0.0,0.0,0.0,0.0,0.0,0.0,0.0,0.0,0.0,0.0,0.0,0.0,0.0,0.0,0.0,0.0,0.0,0.0,0.0,0.0,0.0,0.0,0.0,0.0,0.0,0.0,0.0,0.0,0.0,0.0,0.0,0.0,0.0,0.0,0.0,0.0,0.0,0.0,0.0,0.0,0.0,0.0,0.0,0.0,0.0,0.0,0.0,0.0,0.0,0.0,0.0,0.0,0.0,0.0,0.0,0.0,0.0,0.0,0.0,0.0,0.0,0.0,0.0,0.0,0.0,0.0,0.0,0.0,0.0,0.0,0.0,0.0,0.0,0.0,0.0,0.0,0.0,0.0,0.0,0.0,0.0,0.0,0.0,0.0,0.0,0.0,0.0,0.0,0.0,0.0,0.0,0.0,0.0,0.0,0.0,0.0,0.0,0.0,0.0,0.0,0.0,0.0,0.0,0.0,0.0,0.0,0.0,0.0,0.0,0.0,0.0,0.0,0.0,0.0,0.0,0.0,0.0,0.0,0.0,0.0,0.0,0.0,0.0,0.0,0.0,0.0,0.0,0.0,0.0,0.0,0.0,0.0,0.0,0.0,0.0,0.0,0.0,0.0,0.0,0.0,0.0,0.0,0.0,0.0,0.0,0.0,0.0,0.0,0.0,0.0,0.0,0.0,0.0,0.0,0.0,0.0,0.0,0.0,0.0,0.0,0.0,0.0,0.0,0.0,0.0,0.0,0.0,0.0,0.0,0.0,0.0,0.0,0.0,0.0,0.0,0.0,0.0,0.0,0.0,0.0,0.0,0.0,0.0,0.0,0.0,0.0,0.0,0.0,0.0,0.0,0.0,0.0,0.0,0.0,0.0,0.0,-1.9574,0.0,0.0,0.0,0.0,0.0,0.0,0.0,0.0,0.0,0.0,0.0,0.0,0.0,0.0,0.0,0.0,0.0,0.0,0.0,0.0,0.0,0.0,0.0,0.0,0.0,0.0,0.0,0.0,0.0,0.0,0.0,0.0,0.0,0.0,0.0,0.0,0.0,0.0,0.0,0.0,0.0,0.0,0.0,0.0,0.0,0.0,0.0,0.0,0.0,0.0,0.0,0.0,0.0,0.0,0.0,0.0,0.0,0.0,0.0,0.0,0.0,0.0,0.0,0.0,0.0,0.0,0.0,0.0,0.0,0.0,0.0,0.0,0.0,0.0,0.0,0.0,0.0,0.0,0.0,0.0,0.0,0.0,0.0,0.0,0.0,0.0,0.0,0.0,0.0,0.0,0.0,0.0,0.0,0.0,0.0,0.0,0.0,0.0,0.0,0.0,0.0,0.0,0.0,0.0,0.0,0.0,0.0,0.0,0.0,0.0,-1.9361,-1.9511,-1.9518,-1.9572,-1.9701,0.0,0.0,0.0,0.0,0.0,0.0,0.0,0.0,0.0,0.0,0.0,0.0,0.0,0.0,0.0,0.0,0.0,0.0,0.0,0.0,0.0,0.0,0.0,0.0,0.0,0.0,0.0,0.0,0.0,0.0,0.0,0.0,0.0,0.0,0.0,0.0,0.0,0.0,0.0,0.0,0.0,0.0,0.0,0.0,0.0,0.0,0.0,0.0,0.0,0.0,0.0,0.0,0.0,0.0,0.0,0.0,0.0,0.0,0.0,0.0,0.0,0.0,0.0,0.0,0.0,0.0,0.0,0.0,0.0,0.0,0.0,0.0,0.0,0.0,0.0,0.0,0.0,0.0,0.0,0.0,0.0,0.0,0.0,0.0,0.0,0.0,0.0,0.0,0.0,0.0,0.0,0.0,0.0,0.0,0.0,0.0,0.0,0.0,0.0,0.0,0.0,0.0,0.0,0.0,0.0,0.0,0.0,0.0,0.0,0.0,0.0,0.0,-1.992,-1.9751,-1.9822,0.0,0.0,0.0,0.0,0.0,0.0,0.0,0.0,0.0,0.0,0.0,0.0,0.0,0.0,0.0,0.0,0.0,0.0,0.0,0.0,0.0,0.0,0.0,0.0,0.0,0.0,0.0,0.0,0.0,0.0,0.0,0.0,0.0,0.0,0.0,0.0,0.0,0.0,0.0,0.0,0.0,0.0,0.0,0.0,0.0,0.0,0.0,0.0,0.0,0.0,0.0,0.0,0.0,0.0,0.0,0.0,0.0,0.0,0.0,0.0,0.0,0.0,0.0,0.0,0.0,0.0,0.0,0.0,0.0,0.0,0.0,0.0,0.0,0.0,0.0,0.0,0.0,0.0,0.0,0.0,0.0,0.0,0.0,0.0,0.0,0.0,0.0,0.0,0.0,0.0,0.0,0.0,0.0,0.0,0.0,0.0,0.0,0.0,0.0,0.0,0.0,0.0,0.0,0.0,0.0,0.0,0.0,0.0,0.0,0.0,-1.9515,-2.196,-2.0521,0.0,-1.9638,0.0,0.0,0.0,0.0,0.0,0.0,0.0,0.0,0.0,0.0,0.0,0.0,0.0,0.0,0.0,0.0,0.0,0.0,0.0,0.0,0.0,0.0,0.0,0.0,0.0,0.0,0.0,0.0,0.0,0.0,0.0,0.0,0.0,0.0,0.0,0.0,0.0,0.0,0.0,0.0,0.0,0.0,0.0,0.0,0.0,0.0,0.0,0.0,0.0,0.0,0.0,0.0,0.0,0.0,0.0,0.0,0.0,0.0,0.0,0.0,0.0,0.0,0.0,0.0,0.0,0.0,0.0,0.0,0.0,0.0,0.0,0.0,0.0,0.0,0.0,0.0,0.0,0.0,0.0,0.0,0.0,0.0,0.0,0.0,0.0,0.0,0.0,0.0,0.0,0.0,0.0,0.0,0.0,0.0,0.0,0.0,0.0,0.0,0.0,0.0,0.0,0.0,0.0,0.0,0.0,0.0,0.0,0.0,0.0,0.0,-1.9926,-2.1662,-2.0479,-1.9792,0.0,0.0,0.0,0.0,0.0,0.0,0.0,0.0,0.0,0.0,0.0,0.0,0.0,0.0,0.0,0.0,0.0,0.0,0.0,0.0,0.0,0.0,0.0,0.0,0.0,0.0,0.0,0.0,0.0,0.0,0.0,0.0,0.0,0.0,0.0,0.0,0.0,0.0,0.0,0.0,0.0,0.0,0.0,0.0,0.0,0.0,0.0,0.0,0.0,0.0,0.0,0.0,0.0,0.0,0.0,0.0,0.0,0.0,0.0,0.0,0.0,0.0,0.0,0.0,0.0,0.0,0.0,0.0,0.0,0.0,0.0,0.0,0.0,0.0,0.0,0.0,0.0,0.0,0.0,0.0,0.0,0.0,0.0,0.0,0.0,0.0,0.0,0.0,0.0,0.0,0.0,0.0,0.0,0.0,0.0,0.0,0.0,0.0,0.0,0.0,0.0,0.0,0.0,0.0,0.0,0.0,0.0,0.0,0.0,0.0,-1.9963,-2.0144,-2.0889,-2.0739,-2.0161,-1.9233,0.0,0.0,0.0,0.0,0.0,0.0,0.0,0.0,0.0,0.0,0.0,0.0,0.0,0.0,0.0,0.0,0.0,0.0,0.0,0.0,0.0,0.0,0.0,0.0,0.0,0.0,0.0,0.0,0.0,0.0,0.0,0.0,0.0,0.0,0.0,0.0,0.0,0.0,0.0,0.0,0.0,0.0,0.0,0.0,0.0,0.0,0.0,0.0,0.0,0.0,0.0,0.0,0.0,0.0,0.0,0.0,0.0,0.0,0.0,0.0,0.0,0.0,0.0,0.0,0.0,0.0,0.0,0.0,0.0,0.0,0.0,0.0,0.0,0.0,0.0,0.0,0.0,0.0,0.0,0.0,0.0,0.0,0.0,0.0,0.0,0.0,0.0,0.0,0.0,0.0,0.0,0.0,0.0,0.0,0.0,0.0,0.0,0.0,0.0,0.0,0.0,0.0,0.0,0.0,0.0,0.0,0.0,0.0,-2.2144,-2.0728,-2.0,-2.0265,-2.1581,-2.0844,0.0,0.0,0.0,0.0,0.0,0.0,0.0,0.0,0.0,0.0,0.0,0.0,0.0,0.0,0.0,0.0,0.0,0.0,0.0,0.0,0.0,0.0,0.0,0.0,0.0,0.0,0.0,0.0,0.0,0.0,0.0,0.0,0.0,0.0,0.0,0.0,0.0,0.0,0.0,0.0,0.0,0.0,0.0,0.0,0.0,0.0,0.0,0.0,0.0,0.0,0.0,0.0,0.0,0.0,0.0,0.0,0.0,0.0,0.0,0.0,0.0,0.0,0.0,0.0,0.0,0.0,0.0,0.0,0.0,0.0,0.0,0.0,0.0,0.0,0.0,0.0,0.0,0.0,0.0,0.0,0.0,0.0,0.0,0.0,0.0,0.0,0.0,0.0,0.0,0.0,0.0,0.0,0.0,0.0,0.0,0.0,0.0,0.0,0.0,0.0,0.0,0.0,0.0,0.0,0.0,0.0,0.0,0.0,0.0,-2.003,-2.0647,-2.1468,-2.2546,-2.1014,-1.9727,0.0,0.0,0.0,0.0,0.0,0.0,0.0,0.0,0.0,0.0,0.0,0.0,0.0,0.0,0.0,0.0,0.0,0.0,0.0,0.0,0.0,0.0,0.0,0.0,0.0,0.0,0.0,0.0,0.0,0.0,0.0,0.0,0.0,0.0,0.0,0.0,0.0,0.0,0.0,0.0,0.0,0.0,0.0,0.0,0.0,0.0,0.0,0.0,0.0,0.0,0.0,0.0,0.0,0.0,0.0,0.0,0.0,0.0,0.0,0.0,0.0,0.0,0.0,0.0,0.0,0.0,0.0,0.0,0.0,0.0,0.0,0.0,0.0,0.0,0.0,0.0,0.0,0.0,0.0,0.0,0.0,0.0,0.0,0.0,0.0,0.0,0.0,0.0,0.0,0.0,0.0,0.0,0.0,0.0,0.0,0.0,0.0,0.0,0.0,0.0,0.0,0.0,0.0,0.0,0.0,0.0,0.0,0.0,0.0,-1.9628,0.0,-2.263,-2.3097,-2.0794,-1.9222,0.0,0.0,0.0,0.0,0.0,0.0,0.0,0.0,0.0,0.0,0.0,0.0,0.0,0.0,0.0,0.0,0.0,0.0,0.0,0.0,0.0,0.0,0.0,0.0,0.0,0.0,0.0,0.0,0.0,0.0,0.0,0.0,0.0,0.0,0.0,0.0,0.0,0.0,0.0,0.0,0.0,0.0,0.0,0.0,0.0,0.0,0.0,0.0,0.0,0.0,0.0,0.0,0.0,0.0,0.0,0.0,0.0,0.0,0.0,0.0,0.0,0.0,0.0,0.0,0.0,0.0,0.0,0.0,0.0,0.0,0.0,0.0,0.0,0.0,0.0,0.0,0.0,0.0,0.0,0.0,0.0,0.0,0.0,0.0,0.0,0.0,0.0,0.0,0.0,0.0,0.0,0.0,0.0,0.0,0.0,0.0,0.0,0.0,0.0,0.0,0.0,0.0,0.0,0.0,0.0,0.0,0.0,0.0,-1.8087,-2.1365,-2.3124,-2.3217,-2.1545,-2.116,-1.9481,0.0,0.0,0.0,0.0,0.0,0.0,0.0,0.0,0.0,0.0,0.0,0.0,0.0,0.0,0.0,0.0,0.0,0.0,0.0,0.0,0.0,0.0,0.0,0.0,0.0,0.0,0.0,0.0,0.0,0.0,0.0,0.0,0.0,0.0,0.0,0.0,0.0,0.0,0.0,0.0,0.0,0.0,0.0,0.0,0.0,0.0,0.0,0.0,0.0,0.0,0.0,0.0,0.0,0.0,0.0,0.0,0.0,0.0,0.0,0.0,0.0,0.0,0.0,0.0,0.0,0.0,0.0,0.0,0.0,0.0,0.0,0.0,0.0,0.0,0.0,0.0,0.0,0.0,0.0,0.0,0.0,0.0,0.0,0.0,0.0,0.0,0.0,0.0,0.0,0.0,0.0,0.0,0.0,0.0,0.0,0.0,0.0,0.0,0.0,0.0,0.0,0.0,0.0,0.0,0.0,0.0,0.0,0.0,0.0,-2.1462,-2.2624,-2.35,-2.3957,-2.111,-1.9528,0.0,0.0,0.0,0.0,0.0,0.0,0.0,0.0,0.0,0.0,0.0,0.0,0.0,0.0,0.0,0.0,0.0,0.0,0.0,0.0,0.0,0.0,0.0,0.0,0.0,0.0,0.0,0.0,0.0,0.0,0.0,0.0,0.0,0.0,0.0,0.0,0.0,0.0,0.0,0.0,0.0,0.0,0.0,0.0,0.0,0.0,0.0,0.0,0.0,0.0,0.0,0.0,0.0,0.0,0.0,0.0,0.0,0.0,0.0,0.0,0.0,0.0,0.0,0.0,0.0,0.0,0.0,0.0,0.0,0.0,0.0,0.0,0.0,0.0,0.0,0.0,0.0,0.0,0.0,0.0,0.0,0.0,0.0,0.0,0.0,0.0,0.0,0.0,0.0,0.0,0.0,0.0,0.0,0.0,0.0,0.0,0.0,0.0,0.0,0.0,0.0,0.0,0.0,0.0,0.0,0.0,0.0,0.0,0.0,-2.3351,-2.3928,-2.4562,-2.5288,-2.1976,-2.0352,-2.0611,0.0,0.0,0.0,0.0,0.0,0.0,0.0,0.0,0.0,0.0,0.0,0.0,0.0,0.0,0.0,0.0,0.0,0.0,0.0,0.0,0.0,0.0,0.0,0.0,0.0,0.0,0.0,0.0,0.0,0.0,0.0,0.0,0.0,0.0,0.0,0.0,0.0,0.0,0.0,0.0,0.0,0.0,0.0,0.0,0.0,0.0,0.0,0.0,0.0,0.0,0.0,0.0,0.0,0.0,0.0,0.0,0.0,0.0,0.0,0.0,0.0,0.0,0.0,0.0,0.0,0.0,0.0,0.0,0.0,0.0,0.0,0.0,0.0,0.0,0.0,0.0,0.0,0.0,0.0,0.0,0.0,0.0,0.0,0.0,0.0,0.0,0.0,0.0,0.0,0.0,0.0,0.0,0.0,0.0,0.0,0.0,0.0,0.0,0.0,0.0,0.0,0.0,0.0,0.0,0.0,0.0,0.0,0.0,-2.6582,-2.6736,-2.6423,-2.5649,-2.3635,-2.1785,0.0,0.0,0.0,0.0,0.0,0.0,0.0,0.0,0.0,0.0,0.0,0.0,0.0,0.0,0.0,0.0,0.0,0.0,0.0,0.0,0.0,0.0,0.0,0.0,0.0,0.0,0.0,0.0,0.0,0.0,0.0,0.0,0.0,0.0,0.0,0.0,0.0,0.0,0.0,0.0,0.0,0.0,0.0,0.0,0.0,0.0,0.0,0.0,0.0,0.0,0.0,0.0,0.0,0.0,0.0,0.0,0.0,0.0,0.0,0.0,0.0,0.0,0.0,0.0,0.0,0.0,0.0,0.0,0.0,0.0,0.0,0.0,0.0,0.0,0.0,0.0,0.0,0.0,0.0,0.0,0.0,0.0,0.0,0.0,0.0,0.0,0.0,0.0,0.0,0.0,0.0,0.0,0.0,0.0,0.0,0.0,0.0,0.0,0.0,0.0,0.0,0.0,0.0,0.0,0.0,0.0,0.0,0.0,0.0,-2.6544,-2.8423,-2.9308,-2.8975,-2.5438,-2.3225,0.0,0.0,0.0,0.0,0.0,0.0,0.0,0.0,0.0,0.0,0.0,0.0,0.0,0.0,0.0,0.0,0.0,0.0,0.0,0.0,0.0,0.0,0.0,0.0,0.0,0.0,0.0,0.0,0.0,0.0,0.0,0.0,0.0,0.0,0.0,0.0,0.0,0.0,0.0,0.0,0.0,0.0,0.0,0.0,0.0,0.0,0.0,0.0,0.0,0.0,0.0,0.0,0.0,0.0,0.0,0.0,0.0,0.0,0.0,0.0,0.0,0.0,0.0,0.0,0.0,0.0,0.0,0.0,0.0,0.0,0.0,0.0,0.0,0.0,0.0,0.0,0.0,0.0,0.0,0.0,0.0,0.0,0.0,0.0,0.0,0.0,0.0,0.0,0.0,0.0,0.0,0.0,0.0,0.0,0.0,0.0,0.0,0.0,0.0,0.0,0.0,0.0,0.0,0.0,0.0,0.0,0.0,0.0,-2.5303,-2.8202,-3.0375,-3.1505,-3.1486,-2.7922,-2.5081,0.0,0.0,0.0,0.0,0.0,0.0,0.0,0.0,0.0,0.0,0.0,0.0,0.0,0.0,0.0,0.0,0.0,0.0,0.0,0.0,0.0,0.0,0.0,0.0,0.0,0.0,0.0,0.0,0.0,0.0,0.0,0.0,0.0,0.0,0.0,0.0,0.0,0.0,0.0,0.0,0.0,0.0,0.0,0.0,0.0,0.0,0.0,0.0,0.0,0.0,0.0,0.0,0.0,0.0,0.0,0.0,0.0,0.0,0.0,0.0,0.0,0.0,0.0,0.0,0.0,0.0,0.0,0.0,0.0,0.0,0.0,0.0,0.0,0.0,0.0,0.0,0.0,0.0,0.0,0.0,0.0,0.0,0.0,0.0,0.0,0.0,0.0,0.0,0.0,0.0,0.0,0.0,0.0,0.0,0.0,0.0,0.0,0.0,0.0,0.0,0.0,0.0,0.0,0.0,0.0,0.0,0.0,0.0,-2.7142,-3.0427,-3.2135,-3.2985,-3.2921,-3.0388,-2.7032,0.0,0.0,0.0,0.0,0.0,0.0,0.0,0.0,0.0,0.0,0.0,0.0,0.0,0.0,0.0,0.0,0.0,0.0,0.0,0.0,0.0,0.0,0.0,0.0,0.0,0.0,0.0,0.0,0.0,0.0,0.0,0.0,0.0,0.0,0.0,0.0,0.0,0.0,0.0,0.0,0.0,0.0,0.0,0.0,0.0,0.0,0.0,0.0,0.0,0.0,0.0,0.0,0.0,0.0,0.0,0.0,0.0,0.0,0.0,0.0,0.0,0.0,0.0,0.0,0.0,0.0,0.0,0.0,0.0,0.0,0.0,0.0,0.0,0.0,0.0,0.0,0.0,0.0,0.0,0.0,0.0,0.0,0.0,0.0,0.0,0.0,0.0,0.0,0.0,0.0,0.0,0.0,0.0,0.0,0.0,0.0,0.0,0.0,0.0,0.0,0.0,0.0,0.0,0.0,0.0,0.0,0.0,0.0,-2.7701,-3.0446,-3.2138,-3.2989,-3.2985,-3.0407,-2.7561,0.0,0.0,0.0,0.0,0.0,0.0,0.0,0.0,0.0,0.0,0.0,0.0,0.0,0.0,0.0,0.0,0.0,0.0,0.0,0.0,0.0,0.0,0.0,0.0,0.0,0.0,0.0,0.0,0.0,0.0,0.0,0.0,0.0,0.0,0.0,0.0,0.0,0.0,0.0,0.0,0.0,0.0,0.0,0.0,0.0,0.0,0.0,0.0,-1.6987,0.0,0.0,0.0,0.0,0.0,0.0,0.0,0.0,0.0,0.0,0.0,0.0,0.0,0.0,0.0,0.0,0.0,0.0,0.0,0.0,0.0,0.0,0.0,0.0,0.0,0.0,0.0,0.0,0.0,0.0,0.0,0.0,0.0,0.0,0.0,0.0,0.0,0.0,0.0,0.0,0.0,0.0,0.0,0.0,0.0,0.0,0.0,0.0,0.0,0.0,0.0,0.0,0.0,0.0,0.0,0.0,0.0,0.0,0.0,-2.7913,-3.0462,-3.1799,-3.2433,-3.2372,-3.0664,-2.8023,0.0,0.0,0.0,0.0,0.0,0.0,0.0,0.0,0.0,0.0,0.0,0.0,0.0,0.0,0.0,0.0,0.0,0.0,0.0,0.0,0.0,0.0,0.0,0.0,0.0,0.0,0.0,0.0,0.0,0.0,0.0,0.0,0.0,0.0,0.0,0.0,0.0,0.0,0.0,0.0,0.0,0.0,0.0,0.0,0.0,0.0,0.0,0.0,0.0,0.0,0.0,0.0,0.0,0.0,0.0,0.0,0.0,0.0,0.0,0.0,0.0,0.0,0.0,0.0,0.0,0.0,0.0,0.0,0.0,0.0,0.0,0.0,0.0,0.0,0.0,0.0,0.0,0.0,0.0,0.0,0.0,0.0,0.0,0.0,0.0,0.0,0.0,0.0,0.0,0.0,0.0,0.0,0.0,0.0,0.0,0.0,0.0,0.0,0.0,0.0,0.0,0.0,0.0,0.0,0.0,0.0,0.0,-2.5614,-2.8027,-3.067,-3.1443,-3.1809,-3.1799,-3.0954,-2.8466,-2.4211,0.0,0.0,0.0,0.0,0.0,0.0,0.0,0.0,0.0,0.0,0.0,0.0,0.0,0.0,0.0,0.0,0.0,0.0,0.0,0.0,0.0,0.0,0.0,0.0,0.0,0.0,0.0,0.0,0.0,0.0,0.0,0.0,0.0,0.0,0.0,0.0,0.0,0.0,-1.6649,-1.8145,0.0,0.0,0.0,0.0,0.0,0.0,0.0,0.0,-1.7968,0.0,0.0,0.0,0.0,0.0,0.0,0.0,0.0,0.0,0.0,0.0,0.0,0.0,0.0,0.0,0.0,0.0,0.0,0.0,0.0,0.0,0.0,0.0,0.0,0.0,0.0,0.0,0.0,0.0,0.0,0.0,0.0,0.0,0.0,0.0,0.0,0.0,0.0,0.0,0.0,0.0,0.0,0.0,0.0,0.0,0.0,0.0,0.0,0.0,0.0,0.0,0.0,0.0,0.0,0.0,0.0,-2.5994,-2.6495,-2.8299,-3.1502,-3.1729,-3.1835,-3.1855,-3.0985,-2.8796,-2.5221,0.0,0.0,0.0,0.0,0.0,0.0,0.0,0.0,0.0,0.0,0.0,0.0,0.0,0.0,0.0,0.0,0.0,0.0,0.0,0.0,0.0,0.0,0.0,0.0,0.0,0.0,0.0,0.0,0.0,0.0,0.0,0.0,0.0,0.0,0.0,0.0,0.0,0.0,0.0,-1.9364,-2.0423,0.0,0.0,0.0,0.0,0.0,0.0,0.0,0.0,-1.8234,0.0,0.0,0.0,0.0,0.0,0.0,0.0,0.0,0.0,0.0,0.0,0.0,0.0,0.0,0.0,0.0,0.0,0.0,0.0,0.0,0.0,0.0,0.0,0.0,0.0,0.0,0.0,0.0,0.0,0.0,0.0,0.0,0.0,0.0,0.0,0.0,0.0,0.0,0.0,0.0,0.0,0.0,0.0,0.0,0.0,0.0,0.0,0.0,0.0,0.0,0.0,0.0,0.0,0.0,0.0,-2.5924,-2.7404,-2.9117,-3.1153,-3.123,-3.123,-3.1191,-2.9551,-2.7576,0.0,0.0,0.0,0.0,0.0,0.0,0.0,0.0,0.0,0.0,0.0,0.0,0.0,0.0,0.0,0.0,0.0,0.0,0.0,0.0,0.0,0.0,0.0,0.0,0.0,0.0,0.0,0.0,0.0,0.0,0.0,0.0,0.0,0.0,0.0,0.0,0.0,0.0,0.0,0.0,-1.9954,-2.0702,-2.2,0.0,0.0,0.0,0.0,0.0,0.0,-1.9527,-1.9169,0.0,0.0,0.0,0.0,0.0,0.0,0.0,0.0,0.0,0.0,0.0,0.0,0.0,0.0,0.0,0.0,0.0,0.0,0.0,0.0,0.0,0.0,0.0,0.0,0.0,0.0,0.0,0.0,0.0,0.0,0.0,0.0,0.0,0.0,0.0,0.0,0.0,0.0,0.0,0.0,0.0,0.0,0.0,0.0,0.0,0.0,0.0,0.0,0.0,0.0,0.0,0.0,0.0,0.0,0.0,-2.523,-2.7819,-2.9664,-3.0639,-3.0694,-3.0671,-3.0567,-2.8363,-2.6572,0.0,0.0,0.0,0.0,0.0,0.0,0.0,0.0,0.0,0.0,0.0,0.0,0.0,0.0,0.0,0.0,0.0,0.0,0.0,0.0,0.0,0.0,0.0,0.0,0.0,0.0,0.0,0.0,0.0,0.0,0.0,0.0,0.0,0.0,0.0,0.0,0.0,0.0,0.0,0.0,0.0,-2.0955,-2.2314,-2.1385,0.0,0.0,0.0,0.0,-1.9802,-2.0465,0.0,0.0,0.0,0.0,0.0,0.0,0.0,0.0,0.0,0.0,0.0,0.0,0.0,0.0,0.0,0.0,0.0,0.0,0.0,0.0,0.0,0.0,0.0,0.0,0.0,0.0,0.0,0.0,0.0,0.0,0.0,0.0,0.0,0.0,0.0,0.0,0.0,0.0,0.0,0.0,0.0,0.0,0.0,0.0,0.0,0.0,0.0,0.0,0.0,0.0,0.0,0.0,0.0,0.0,0.0,0.0,-2.4424,-2.6948,-2.9057,-3.0594,-3.0701,-3.0695,-3.0656,-2.8913,-2.7198,0.0,0.0,0.0,0.0,0.0,0.0,0.0,0.0,0.0,0.0,0.0,0.0,0.0,0.0,0.0,0.0,0.0,0.0,0.0,0.0,0.0,0.0,0.0,0.0,0.0,0.0,0.0,0.0,0.0,0.0,0.0,0.0,0.0,0.0,0.0,0.0,0.0,0.0,0.0,0.0,0.0,-2.1331,-2.1526,-2.146,-2.1327,0.0,0.0,-2.247,-2.2365,-2.3081,0.0,0.0,0.0,0.0,0.0,0.0,0.0,0.0,0.0,0.0,0.0,0.0,0.0,0.0,0.0,0.0,0.0,0.0,0.0,0.0,0.0,0.0,0.0,0.0,0.0,0.0,0.0,0.0,0.0,0.0,0.0,0.0,0.0,0.0,0.0,0.0,0.0,0.0,0.0,0.0,0.0,0.0,0.0,0.0,0.0,0.0,0.0,0.0,0.0,0.0,0.0,0.0,0.0,0.0,0.0,-2.2709,-2.4362,-2.7817,-3.0012,-3.0722,-3.0756,-3.0761,-3.0755,-2.8156,-2.6131,0.0,0.0,0.0,0.0,0.0,0.0,0.0,0.0,0.0,0.0,0.0,0.0,0.0,0.0,0.0,0.0,0.0,0.0,0.0,0.0,0.0,0.0,0.0,0.0,0.0,0.0,0.0,0.0,0.0,0.0,0.0,0.0,0.0,0.0,0.0,0.0,0.0,0.0,0.0,0.0,0.0,0.0,-2.2714,-2.2957,0.0,0.0,0.0,-2.3861,-2.2891,0.0,0.0,0.0,0.0,0.0,0.0,0.0,0.0,0.0,0.0,0.0,0.0,0.0,0.0,0.0,0.0,0.0,0.0,0.0,0.0,0.0,0.0,0.0,0.0,0.0,0.0,0.0,0.0,0.0,0.0,0.0,0.0,0.0,0.0,0.0,0.0,0.0,0.0,0.0,0.0,0.0,0.0,0.0,0.0,0.0,0.0,0.0,0.0,0.0,0.0,0.0,0.0,0.0,0.0,0.0,0.0,0.0,-2.4368,-2.8596,-3.079,-3.0784,-3.0801,-3.0801,-3.0745,-2.8111,0.0,0.0,0.0,0.0,0.0,0.0,0.0,0.0,0.0,0.0,0.0,0.0,0.0,0.0,0.0,0.0,0.0,0.0,0.0,0.0,0.0,0.0,0.0,0.0,0.0,0.0,0.0,-1.5353,0.0,0.0,0.0,0.0,0.0,0.0,0.0,0.0,0.0,0.0,0.0,0.0,0.0,0.0,-2.1704,-2.3519,-2.4158,-2.4476,0.0,0.0,-2.4865,-2.3573,-2.4807,-2.4726,0.0,0.0,0.0,0.0,0.0,0.0,0.0,0.0,0.0,0.0,0.0,0.0,0.0,0.0,0.0,0.0,0.0,0.0,0.0,0.0,0.0,0.0,0.0,0.0,0.0,0.0,0.0,0.0,0.0,0.0,0.0,0.0,0.0,0.0,0.0,0.0,0.0,0.0,0.0,0.0,0.0,0.0,0.0,0.0,0.0,0.0,0.0,0.0,0.0,0.0,0.0,0.0,0.0,0.0,0.0,-2.45,-2.8627,-3.0795,-3.079,-3.0784,-3.0784,-3.0771,-2.9837,-2.774,0.0,0.0,0.0,0.0,0.0,0.0,0.0,0.0,0.0,0.0,0.0,0.0,0.0,0.0,0.0,0.0,0.0,0.0,0.0,0.0,0.0,0.0,0.0,0.0,0.0,0.0,0.0,0.0,0.0,0.0,0.0,0.0,0.0,0.0,0.0,0.0,0.0,0.0,0.0,0.0,0.0,-2.3458,-2.2962,-2.4281,-2.5571,0.0,0.0,-2.5322,-2.5154,-2.6582,-2.6259,-2.2019,0.0,0.0,0.0,0.0,0.0,0.0,0.0,0.0,0.0,0.0,0.0,0.0,0.0,0.0,0.0,0.0,0.0,0.0,0.0,0.0,0.0,0.0,0.0,0.0,0.0,0.0,0.0,0.0,0.0,0.0,0.0,0.0,0.0,0.0,0.0,0.0,0.0,0.0,0.0,0.0,0.0,0.0,0.0,0.0,0.0,0.0,0.0,0.0,0.0,0.0,0.0,0.0,0.0,-2.3531,-2.4428,-2.867,-3.0858,-3.0858,-3.0857,-3.0858,-3.0859,-3.0039,-2.7947,0.0,0.0,0.0,0.0,0.0,0.0,0.0,0.0,0.0,0.0,0.0,0.0,0.0,0.0,0.0,0.0,0.0,0.0,0.0,0.0,0.0,0.0,0.0,0.0,0.0,0.0,0.0,0.0,-1.8808,-1.8809,-1.7734,0.0,0.0,0.0,0.0,0.0,0.0,0.0,0.0,0.0,0.0,-2.3902,-2.5785,-2.6602,0.0,0.0,-2.7976,-2.7552,-2.7003,-2.7007,-2.601,-2.2793,-2.1374,0.0,0.0,0.0,0.0,0.0,0.0,0.0,0.0,0.0,0.0,0.0,0.0,0.0,0.0,0.0,0.0,0.0,0.0,0.0,0.0,0.0,0.0,0.0,0.0,0.0,0.0,0.0,0.0,0.0,0.0,0.0,0.0,0.0,0.0,0.0,0.0,0.0,0.0,0.0,0.0,0.0,0.0,0.0,0.0,0.0,0.0,0.0,0.0,0.0,0.0,0.0,0.0,-2.3651,-2.4784,-2.8809,-3.0918,-3.0918,-3.0917,-3.0917,-3.0896,-3.0312,-2.8476,0.0,0.0,0.0,0.0,0.0,0.0,0.0,0.0,0.0,0.0,0.0,0.0,0.0,0.0,0.0,0.0,0.0,0.0,0.0,0.0,0.0,0.0,0.0,0.0,0.0,0.0,0.0,0.0,-1.9256,-1.9059,-1.7797,0.0,0.0,0.0,0.0,0.0,0.0,0.0,0.0,0.0,0.0,-2.5179,-2.7388,-2.7882,-2.8253,-2.8825,-2.8613,-2.8082,-2.7292,-2.6815,-2.5722,-2.323,0.0,0.0,0.0,0.0,0.0,0.0,0.0,0.0,0.0,0.0,0.0,0.0,0.0,0.0,0.0,0.0,0.0,0.0,0.0,0.0,0.0,0.0,0.0,0.0,0.0,0.0,0.0,0.0,0.0,0.0,-1.5468,0.0,0.0,0.0,0.0,0.0,0.0,0.0,0.0,0.0,0.0,0.0,0.0,0.0,0.0,0.0,0.0,0.0,0.0,0.0,0.0,0.0,0.0,-2.3944,-2.5662,-2.9118,-3.0914,-3.0914,-3.0914,-3.0894,-3.0894,-3.0875,-2.9626,-2.6972,0.0,0.0,0.0,0.0,0.0,0.0,0.0,0.0,0.0,0.0,0.0,0.0,0.0,0.0,0.0,0.0,0.0,0.0,0.0,0.0,0.0,0.0,0.0,0.0,0.0,0.0,-1.5731,-1.6918,-1.7874,0.0,0.0,0.0,0.0,0.0,0.0,0.0,0.0,0.0,0.0,-2.5349,-2.7668,-2.6971,-2.7566,-2.8101,-2.809,-2.7258,-2.6341,-2.5663,-2.6058,-2.5682,0.0,0.0,0.0,0.0,0.0,0.0,0.0,0.0,0.0,0.0,0.0,0.0,0.0,0.0,0.0,0.0,0.0,0.0,0.0,0.0,0.0,0.0,0.0,0.0,0.0,0.0,0.0,-2.0774,-2.0012,0.0,0.0,0.0,0.0,0.0,0.0,0.0,0.0,0.0,0.0,0.0,-2.549,-2.6376,0.0,0.0,0.0,0.0,0.0,0.0,0.0,0.0,0.0,0.0,0.0,0.0,-2.3963,-2.5779,-2.9137,-3.0914,-3.0914,-3.0914,-3.0889,-3.0836,-3.082,-2.9586,-2.7014,0.0,0.0,0.0,0.0,0.0,0.0,0.0,0.0,0.0,0.0,0.0,0.0,0.0,0.0,0.0,0.0,0.0,0.0,0.0,0.0,0.0,0.0,0.0,0.0,0.0,-1.7639,0.0,0.0,0.0,0.0,0.0,0.0,0.0,0.0,0.0,0.0,0.0,-2.3187,-2.4926,-2.5851,-2.6704,-2.7596,-2.7938,-2.8288,0.0,0.0,0.0,0.0,0.0,0.0,0.0,0.0,0.0,0.0,0.0,0.0,0.0,0.0,-2.214,-1.9798,-2.0038,-2.0704,-2.0964,0.0,0.0,0.0,0.0,0.0,0.0,0.0,0.0,0.0,0.0,0.0,0.0,0.0,0.0,-2.4054,0.0,-2.3269,0.0,0.0,0.0,0.0,0.0,0.0,0.0,0.0,-2.6969,-2.8284,-2.8487,-2.9627,-2.9598,0.0,-2.7974,-2.601,0.0,0.0,0.0,0.0,0.0,0.0,0.0,0.0,-2.4362,-2.6159,-2.9236,-3.0813,-3.0833,-3.0833,-3.0804,-3.0759,-3.0765,-2.9817,-2.7831,-2.6376,-2.4306,0.0,0.0,0.0,0.0,0.0,0.0,0.0,0.0,0.0,0.0,0.0,0.0,0.0,0.0,0.0,0.0,0.0,0.0,0.0,0.0,0.0,0.0,0.0,-1.8131,0.0,0.0,0.0,0.0,0.0,0.0,0.0,0.0,0.0,-2.0915,-2.2901,-2.4999,-2.668,-2.6892,-2.7096,-2.7637,0.0,0.0,0.0,0.0,0.0,0.0,0.0,-2.4966,-2.4723,-2.4513,-2.4435,-2.4705,-2.471,-2.4697,-2.4702,0.0,0.0,-2.2613,-2.2739,-2.3381,-2.3667,-2.3497,-2.3362,-2.3655,-2.3717,-2.3736,0.0,0.0,0.0,0.0,0.0,0.0,0.0,0.0,-2.8137,-2.7233,0.0,-2.6438,0.0,0.0,0.0,0.0,0.0,-2.6052,0.0,0.0,-3.1695,-3.2559,-3.1777,-3.1878,-3.1898,-3.1884,-3.1895,-3.103,-2.9299,-2.6214,0.0,0.0,0.0,0.0,0.0,0.0,-2.5198,-2.6961,-2.9421,-3.0703,-3.0706,-3.0706,-3.07,-3.07,-3.0697,-3.0279,-2.9441,-2.8585,-2.7334,-2.5577,-2.2455,0.0,0.0,0.0,0.0,0.0,0.0,0.0,0.0,0.0,0.0,0.0,0.0,0.0,0.0,0.0,0.0,0.0,0.0,0.0,0.0,-1.799,0.0,0.0,0.0,0.0,0.0,0.0,0.0,0.0,0.0,0.0,-2.2168,-2.4771,-2.6875,-2.6885,0.0,0.0,0.0,0.0,-2.7532,-2.5909,-2.5483,-2.5225,-2.4586,-2.5654,-2.6389,-2.5797,0.0,0.0,-2.8347,-2.6856,-2.5851,-2.5784,-2.7193,-2.7753,-2.6062,-2.5121,-2.4832,-2.5468,-2.5115,-2.476,-2.5383,-2.5809,-2.5792,-3.3804,0.0,0.0,0.0,0.0,-2.9995,-3.1284,-3.3359,-3.2728,-3.1835,-3.0797,-3.0416,0.0,0.0,0.0,0.0,0.0,0.0,-2.9145,-3.0215,-3.2102,-3.3174,-3.3513,-3.414,-3.4119,-3.3535,-3.3592,-3.3351,-3.2847,-3.1902,-2.8476,-2.2731,0.0,0.0,0.0,0.0,-2.6048,-2.7756,-2.9694,-3.0703,-3.0703,-3.0703,-3.0678,-3.0642,-3.0578,-3.0446,-3.0192,-2.9945,-2.875,-2.6463,-2.5456,0.0,0.0,0.0,0.0,0.0,0.0,0.0,0.0,0.0,0.0,0.0,0.0,0.0,0.0,0.0,0.0,0.0,0.0,0.0,-1.8766,-1.9933,-2.0384,0.0,0.0,0.0,0.0,0.0,0.0,0.0,0.0,0.0,-2.5418,-2.6206,-2.6828,0.0,0.0,-2.6456,-2.5952,-2.6641,-2.7261,-2.7409,-2.7394,0.0,-2.7936,-2.7315,-2.6954,-2.7386,-2.8606,-2.9423,-2.9168,-2.9223,-2.9318,-2.9283,-2.9659,-2.9835,-2.944,-2.9118,-2.8952,-2.9183,-2.9012,-2.8897,-2.9103,-2.9159,-2.9109,-3.9895,-3.651,-3.3715,-3.2996,-3.3779,-3.3779,-3.4842,-3.6518,-3.6003,-3.5277,-3.4462,-3.4276,-3.2816,-3.0447,-3.0115,0.0,0.0,0.0,-3.2399,-3.353,-3.4532,-3.5066,-3.5225,-3.572,-3.5534,-3.4745,-3.4757,-3.4789,-3.477,-3.4131,-3.1366,-2.6614,0.0,0.0,-2.4374,-2.6124,-2.7708,-2.9071,-3.0428,-3.094,-3.0614,-3.0614,-3.0591,-3.0554,-3.0525,-3.0495,-3.0485,-3.0485,-2.9795,-2.8266,-2.7232,-2.539,0.0,0.0,0.0,0.0,0.0,0.0,0.0,0.0,0.0,0.0,0.0,-1.8903,-1.707,0.0,0.0,0.0,-1.9785,-2.0368,-2.1189,-2.1894,0.0,0.0,0.0,0.0,0.0,0.0,0.0,-2.3779,-2.5476,-2.682,-2.7342,-2.7396,-2.7473,-2.7818,-2.7406,-2.6974,-2.6621,0.0,-2.796,-2.8167,-2.8209,-2.8369,-2.8896,-2.8392,-2.8236,-2.9082,-2.9643,-3.0003,-3.0042,-3.045,-3.0781,-3.0785,-3.0774,-3.0743,-3.0788,-3.079,-3.0802,-3.0786,-3.0769,-3.0734,-3.0719,-3.0672,-3.0625,-4.5407,-4.4045,-3.873,-3.6843,-3.7308,-3.7302,-3.7686,-3.8277,-3.8238,-3.7719,-3.6988,-3.768,-3.6699,-3.4456,-3.372,0.0,-3.5789,-3.5789,-3.6556,-3.7988,-3.8007,-3.7584,-3.6827,-3.6808,-3.6385,-3.5596,-3.5598,-3.556,-3.543,-3.4033,-3.2821,-3.1887,-3.1095,-2.9852,-2.8348,-2.8917,-2.9771,-3.0694,-3.1274,-3.1265,-3.0614,-3.0658,-3.0658,-3.0614,-3.0595,-3.0557,-3.0499,-3.0493,-3.0499,-3.0402,-2.8237,-2.6571,-2.5548,0.0,0.0,0.0,0.0,0.0,0.0,0.0,0.0,0.0,0.0,0.0,0.0,0.0,0.0,0.0,-2.2764,0.0,-2.4527,-2.3866,0.0,0.0,0.0,-2.3666,-2.4607,-2.6111,-2.7083,-2.7026,0.0,0.0,-2.8317,-2.8301,-2.8647,-2.9505,-2.9484,-2.91,-2.8308,-2.8877,-2.9199,-2.8452,-2.8391,-2.843,-2.8695,-2.9121,-2.9765,-3.0502,-3.08,-3.0742,-3.0742,-3.0781,-3.08,-3.08,-3.08,-3.08,-3.08,-3.0799,-3.0792,-3.0798,-3.0786,-3.0782,-3.073,-3.0706,-3.0695,-4.7045,-4.6182,-4.4773,-4.3203,-4.1628,-4.1617,-4.1331,-4.0835,-4.02,-3.9457,-3.8661,-3.82,-3.7661,-3.7084,-3.6901,-3.7042,-3.7427,-3.7446,-3.7625,-3.7988,-3.8007,-3.7892,-3.768,-3.768,-3.7231,-3.6462,-3.6399,-3.611,-3.55,-3.511,-3.4141,-3.2697,-3.2428,-3.1254,-2.9207,-2.9869,-3.069,-3.1596,-3.1043,-3.1,-3.1419,-3.2069,-3.2102,-3.1449,-3.1411,-3.1091,-3.0446,-3.0427,-3.0427,-3.0408,-2.9836,-2.8841,-2.7363,-2.3897,0.0,0.0,0.0,0.0,0.0,0.0,0.0,0.0,0.0,-2.0301,-1.7507,0.0,-2.0918,0.0,-2.4404,-2.6164,-2.6357,-2.6193,0.0,0.0,-2.56,-2.5681,-2.7198,-2.7692,-2.7928,-2.7964,-2.8691,-2.9219,-2.9257,-2.9212,-2.9537,-3.0399,-2.9372,-2.8413,-2.8247,-2.8938,-2.9441,-2.9281,-2.9723,-3.0164,-3.0143,-3.0342,-3.0543,-3.0761,-3.08,-3.08,-3.08,-3.08,-3.08,-3.08,-3.08,-3.08,-3.08,-3.08,-3.0799,-3.0791,-3.0801,-3.0788,-3.0776,-3.074,-3.0703,-4.8459,-4.799,-4.7605,-4.6404,-4.4739,-4.3964,-4.3139,-4.2249,-4.1752,-4.1247,-4.078,-4.0319,-4.0109,-4.007,-3.9725,-3.9553,-3.9533,-3.915,-3.8986,-3.8986,-3.8986,-3.881,-3.8493,-3.8454,-3.8012,-3.7191,-3.716,-3.6715,-3.5975,-3.5929,-3.5273,-3.399,-3.3998,-3.3184,-3.1593,-3.1241,-3.1327,-3.1787,-3.132,-3.1424,-3.2202,-3.2709,-3.237,-3.1164,-3.1107,-3.0562,-2.9333,-2.8923,-2.8712,-2.8712,-2.8346,-2.7528,-2.621,-2.4038,-2.2207,0.0,0.0,0.0,0.0,0.0,0.0,0.0,0.0,0.0,0.0,0.0,-2.2434,-2.2888,-2.5706,-2.7346,-2.6981,-2.731,-2.7679,-2.8074,-2.769,-2.7913,-2.9249,-2.9378,-2.9362,-2.9395,-2.9813,-3.0091,-3.0111,-3.0096,-3.0254,-3.0781,-2.9995,-2.935,-2.9411,-2.9826,-3.0082,-3.0104,-3.0482,-3.08,-3.08,-3.08,-3.08,-3.08,-3.08,-3.08,-3.08,-3.08,-3.08,-3.08,-3.0823,-3.0844,-3.0844,-3.0827,-3.0847,-3.0844,-3.0839,-3.0831,-3.0803,-3.0482,-3.0219,-4.9545,-4.9298,-4.8548,-4.777,-4.6886,-4.5246,-4.399,-4.307,-4.3005,-4.2891,-4.2708,-4.2727,-4.2727,-4.2669,-4.1963,-4.1676,-4.1609,-4.0759,-4.0377,-4.0377,-4.0244,-3.9878,-3.9284,-3.9199,-3.8748,-3.8008,-3.7925,-3.749,-3.6687,-3.6687,-3.6263,-3.5511,-3.553,-3.5152,-3.4302,-3.2801,-3.1903,-3.1696,-3.1897,-3.2244,-3.2712,-3.2635,-3.1827,-3.034,-3.0238,-2.9431,-2.7783,-2.7091,-2.6701,-2.6586,-2.5971,-2.5321,-2.4661,-2.3664,-2.2822,0.0,-2.1155,0.0,0.0,0.0,0.0,0.0,0.0,0.0,0.0,-2.4509,-2.4632,-2.4608,-2.6834,-2.8028,-2.7429,-2.8082,-2.8815,-2.9547,-2.9643,-2.9957,-3.0675,-3.0785,-3.0794,-3.0795,-3.0795,-3.0796,-3.078,-3.0784,-3.0787,-3.079,-3.0737,-3.0644,-3.0817,-3.0771,-3.0728,-3.0803,-3.0801,-3.08,-3.08,-3.08,-3.08,-3.08,-3.0801,-3.0801,-3.08,-3.0822,-3.0823,-3.0805,-3.0848,-3.0889,-3.0871,-3.0894,-3.0874,-3.0892,-3.0754,-3.0635,-3.055,-3.0117,-2.9593,-4.9981,-4.9246,-4.9044,-4.8456,-4.7548,-4.6462,-4.5255,-4.4032,-4.3962,-4.3503,-4.2805,-4.2776,-4.2776,-4.2766,-4.2613,-4.2508,-4.243,-4.1628,-4.1246,-4.1208,-4.053,-4.0184,-4.0147,-4.0158,-3.975,-3.9042,-3.8989,-3.8558,-3.7713,-3.7713,-3.726,-3.6366,-3.6411,-3.5967,-3.502,0.0,0.0,0.0,-3.2961,-3.305,-3.1866,-3.12,-3.0374,-2.9388,-2.9294,0.0,-2.6874,-2.7275,-2.7236,-2.6586,-2.7028,0.0,0.0,0.0,0.0,0.0,0.0,0.0,0.0,0.0,0.0,0.0,-2.4476,-2.4652,-2.428,-2.5556,-2.639,-2.6387,-2.8045,-2.9389,-2.9936,-3.0128,-3.0299,-3.0455,-3.0464,-3.0541,-3.0717,-3.0725,-3.0735,-3.0793,-3.0795,-3.0782,-3.0799,-3.0785,-3.0791,-3.08,-3.0788,-3.0794,-3.0819,-3.0801,-3.0818,-3.0869,-3.0825,-3.0801,-3.08,-3.0801,-3.0783,-3.0801,-3.0864,-3.0846,-3.0823,-3.085,-3.0854,-3.0817,-3.0855,-3.0876,-3.082,-3.0859,-3.0878,-3.082,-3.0312,-2.9843,-2.9816,-2.9715,-2.9383,-5.0374,0.0,-4.9848,-4.9275,0.0,-4.7888,-4.7067,-4.5956,-4.5012,-4.4315,-4.3841,-4.3841,-4.3841,-4.3822,-4.3422,-4.3229,-4.3151,-4.2313,-4.1724,-4.1343,-4.0906,-4.0529,-4.0253,-4.0187,-3.9996,-3.9695,-3.9641,-3.9145,-3.8381,-3.8323,-3.7877,-3.7011,-3.7099,-3.6871,-3.6348,-3.6426,-3.527,-3.2904,-3.4146,-3.4396,-3.357,-3.3095,-3.2263,-3.1053,-3.0906,0.0,0.0,0.0,0.0,0.0,0.0,0.0,0.0,-2.7133,0.0,-2.695,-2.5793,-2.5282,-2.5715,-2.6173,-2.6645,-2.7171,-2.7644,-2.7389,-2.6168,-2.7671,-2.8667,-2.8695,-2.9493,-3.0157,-3.0587,-3.0673,-3.0642,-3.0642,-3.068,-3.0701,-3.0695,-3.0698,-3.0724,-3.0755,-3.0761,-3.0753,-3.0762,-3.0745,-3.0756,-3.0792,-3.0801,-3.0789,-3.0783,-3.0796,-3.0801,-3.0839,-3.0837,-3.0797,-3.0798,-3.0797,-3.0795,-3.0796,-3.0837,-3.0838,-3.0798,-3.082,-3.082,-3.082,-3.082,-3.084,-3.0858,-3.0878,-3.0879,-3.0839,-3.0527,-3.0078,-2.9706,-2.9276,-2.8845,-5.0542,-5.0427,-5.0427,-4.9966,-4.9151,-4.9017,-4.8483,-4.7606,0.0,0.0,0.0,-4.4983,-4.4926,-4.4881,-4.4206,-4.3921,-4.3853,-4.3038,-4.2268,-4.1635,-4.1473,-4.1027,-4.0324,-4.0203,-4.0138,-4.0108,-3.9988,-3.9604,-3.8998,-3.8969,-3.8579,-3.7943,-3.7994,-3.7966,-3.7842,-3.8611,-3.7622,-3.499,-3.522,-3.5355,-3.5208,-3.4726,-3.3817,-3.2454,-3.2382,-3.1607,-3.0119,-2.9506,-2.9136,-2.8977,-2.8453,-2.8128,-2.8128,-2.8109,-2.8089,-2.801,-2.8017,-2.8335,-2.9043,-2.9107,-2.9447,-3.0228,-3.0342,-2.9817,-2.8524,-2.9699,-3.052,-3.0569,-3.0569,-3.0593,-3.0617,-3.061,-3.0613,-3.0613,-3.0649,-3.0692,-3.068,-3.0683,-3.0687,-3.071,-3.0697,-3.0701,-3.071,-3.0694,-3.0722,-3.0762,-3.0769,-3.0779,-3.079,-3.0785,-3.0798,-3.0799,-3.08,-3.08,-3.08,-3.08,-3.0801,-3.0801,-3.08,-3.0798,-3.0798,-3.0797,-3.0795,-3.0797,-3.0795,-3.0815,-3.0874,-3.0874,-3.0874,-3.0875,-3.0758,-3.0465,-2.9763,-2.904,-2.8554,-5.0278,-5.0158,-5.0158,-5.0006,-4.9737,-4.9035,-4.8276,-4.7384,-4.649,-4.6121,-4.6061,-4.5302,-4.4979,-4.4979,-4.4865,-4.4792,-4.4687,-4.3872,-4.3455,-4.3303,-4.2583,-4.1843,-4.1142,-4.1113,-4.0784,-4.0215,-4.0168,-4.0101,-3.9996,-3.9967,-3.989,-3.9726,-3.9786,-3.9471,-3.8898,-3.9537,-3.9023,-3.7233,-3.5844,-3.4814,-3.4117,-3.2025,-3.084,-3.0591,-3.064,-3.0115,-2.9159,-2.9752,-2.9695,-2.8968,-2.9505,-2.9829,-2.9775,-2.9777,-2.9703,-2.9588,-2.9588,-2.9695,-2.9893,-2.992,-3.0013,-3.0199,-3.0292,-3.0251,-3.0176,-3.036,-3.05,-3.0496,-3.0501,-3.053,-3.0593,-3.0602,-3.0626,-3.0631,-3.0616,-3.0615,-3.0629,-3.0618,-3.0649,-3.0683,-3.0694,-3.0713,-3.0697,-3.0701,-3.0704,-3.0707,-3.0717,-3.0707,-3.0735,-3.0768,-3.079,-3.0793,-3.0795,-3.0797,-3.0796,-3.0797,-3.0797,-3.0798,-3.0794,-3.0792,-3.0795,-3.0789,-3.0803,-3.0799,-3.0801,-3.08,-3.0813,-3.0798,-3.0823,-3.0786,-3.0394,-2.9866,-2.9697,-2.9498,-2.9205,-5.0219,-5.0108,-5.0108,-5.0012,-4.9874,-4.9478,-4.9067,-4.8632,-4.7793,-4.7226,-4.6879,-4.6461,-4.6063,-4.5683,-4.5664,-4.5355,-4.4876,-4.4516,-4.4118,-4.3682,-4.3284,-4.2682,-4.1881,-4.1381,-4.0953,-4.061,-4.0103,-3.9865,-3.9865,-3.9905,-3.9914,-3.9889,-3.9873,-3.9456,-3.8734,-3.9399,-3.9425,-3.8674,-3.7253,-3.612,-3.5302,-3.3711,-3.289,-3.292,-3.2902,-3.2745,-3.2328,-3.264,-3.2608,-3.2238,-3.2492,-3.2693,-3.2737,-3.1849,-3.1301,-3.1317,-3.0433,-2.9932,-2.9999,-3.0053,-3.0117,-3.0166,-3.0199,-3.0266,-3.033,-3.0365,-3.0417,-3.049,-3.0481,-3.0693,-3.1109,-3.0805,-3.0738,-3.1212,-3.0864,-3.0569,-3.0582,-3.061,-3.0619,-3.064,-3.0645,-3.0653,-3.0653,-3.0638,-3.0668,-3.0687,-3.0694,-3.0704,-3.0704,-3.0723,-3.0761,-3.0785,-3.0795,-3.0798,-3.0796,-3.0798,-3.08,-3.08,-3.0794,-3.0791,-3.0794,-3.0783,-3.0796,-3.0796,-3.0799,-3.0785,-3.0783,-3.0792,-3.0796,-3.0781,-3.0565,-3.0273,-3.0237,-3.0254,-3.0119,-5.0158,-5.0038,-5.0057,-5.0005,-4.9898,-4.9843,-4.9802,-4.9717,-4.8999,-4.8404,-4.7912,-4.7547,-4.7017,-4.6455,-4.6417,-4.5963,-4.5237,-4.5149,-4.4694,-4.3975,-4.3918,-4.3464,-4.2619,-4.168,-4.116,-4.0884,-4.0025,-3.9575,-3.9587,-3.9635,-3.9583,-3.9451,-3.9536,-3.918,-3.8343,-3.9101,-3.9495,-3.9426,-3.8395,-3.7442,-3.664,-3.5567,-3.5035,-3.507,-3.5063,-3.5084,-3.5084,-3.4973,-3.4936,-3.4927,-3.4802,-3.4688,-3.4605,-3.3318,-3.2533,-3.2376,-3.1178,-3.0311,-3.0148,-3.0109,-3.0068,-3.0065,-3.0121,-3.0259,-3.0452,-3.0521,-3.049,-3.0458,-3.0447,-3.0703,-3.1185,-3.1067,-3.1044,-3.1658,-3.1388,-3.1186,-3.1154,-3.1163,-3.1168,-3.1168,-3.1018,-3.096,-3.1084,-3.0976,-3.1028,-3.127,-3.1072,-3.094,-3.0967,-3.0835,-3.0714,-3.0742,-3.0769,-3.0772,-3.0784,-3.0769,-3.0776,-3.0778,-3.0769,-3.0762,-3.0779,-3.0772,-3.0789,-3.0777,-3.076,-3.0767,-3.0788,-3.0773,-3.0778,-3.0786,-3.0731,-3.0755,-3.0722,-3.0722,-3.0664,-4.992,-4.9925,-4.9906,-4.9906,-4.9898,-4.9898,-4.9843,-4.9755,-4.9679,-4.9613,-4.9174,-4.7895,-4.7178,-4.7121,-4.7084,-4.6625,-4.587,-4.5889,-4.5398,-4.4649,-4.4593,-4.4177,-4.3366,-4.2442,-4.1625,-4.091,-4.0002,-3.9558,-3.9483,-3.9563,-3.9235,-3.867,-3.9223,-3.9149,-3.8481,-3.9107,-3.9483,-3.9477,-3.8667,-3.7849,-3.7001,-3.5534,-3.4734,-3.4753,-3.4753,-3.4753,-3.4763,-3.4724,-3.4714,-3.4733,-3.4694,-3.4353,-3.3663,-3.3379,-3.2945,-3.2257,-3.1964,-3.1618,-3.095,-3.0411,-3.0114,-2.9948,-3.0114,-3.0525,-3.1192,-3.1294,-3.0995,-3.0515,-3.0349,-3.0565,-3.0564,-3.1187,-3.1653,-3.1929,-3.232,-3.2769,-3.2659,-3.2841,-3.2877,-3.2872,-3.2101,-3.1985,-3.2474,-3.2111,-3.1976,-3.2397,-3.1922,-3.1529,-3.1463,-3.1021,-3.0645,-3.0694,-3.0707,-3.0711,-3.0714,-3.0707,-3.072,-3.0717,-3.0711,-3.0714,-3.0717,-3.0714,-3.0707,-3.0727,-3.0717,-3.0724,-3.0713,-3.071,-3.0734,-3.0776,-3.0788,-3.0792,-3.0794,-3.0799,-3.0601,-4.983,-4.983,-4.9807,-4.9792,-4.9774,-4.975,-4.9405,-4.8928,-4.8884,-4.8591,-4.8073,-4.7362,-4.7368,-4.7848,-4.7409,-4.6768,-4.5989,-4.5466,-4.507,-4.4731,-4.4712,-4.4523,-4.4133,-4.3256,-4.2344,-4.1492,-4.0589,-3.9849,-3.9412,-3.9426,-3.9039,-3.8334,-3.897,-3.8913,-3.8189,-3.888,-3.9259,-3.9221,-3.8475,-3.7891,-3.7443,-3.6118,-3.5157,-3.4756,-3.471,-3.471,-3.468,-3.4628,-3.4586,-3.4575,-3.4469,-3.4297,-3.4054,-3.3572,-3.317,-3.2857,-3.2376,-3.1963,-3.1665,-3.1495,-3.1359,-3.1331,-3.1444,-3.1689,-3.206,-3.2099,-3.1943,-3.1714,-3.1721,-3.1968,-3.2442,-3.2442,-3.2539,-3.2962,-3.3038,-3.2955,-3.2935,-3.3004,-3.3028,-3.3028,-3.2742,-3.261,-3.2919,-3.2761,-3.2506,-3.2444,-3.1985,-3.1739,-3.1264,-3.0819,-3.0653,-3.0632,-3.0656,-3.0665,-3.0695,-3.0694,-3.071,-3.071,-3.0694,-3.0694,-3.071,-3.0694,-3.0694,-3.069,-3.0687,-3.0694,-3.0695,-3.0695,-3.0707,-3.0742,-3.073,-3.074,-3.0774,-3.0799,-3.0608,-4.9778,-4.9764,-4.9721,-4.9711,-4.9711,-4.9634,-4.9246,-4.8708,-4.8593,-4.8243,-4.7725,-4.7706,-4.8066,-4.8512,-4.7844,-4.7146,-4.6562,-4.5885,-4.5331,-4.4955,-4.4871,-4.473,-4.4416,-4.3554,-4.2791,-4.2044,-4.0971,-4.0002,-3.9254,-3.9234,-3.8931,-3.8454,-3.8863,-3.8804,-3.8303,-3.8785,-3.9045,-3.9008,-3.8452,-3.8081,-3.7718,-3.6628,-3.5652,-3.4982,-3.4692,-3.4561,-3.455,-3.445,-3.4386,-3.4386,-3.4245,-3.4252,-3.4344,-3.3799,-3.3508,-3.3524,-3.2849,-3.2408,-3.2418,-3.2314,-3.2241,-3.226,-3.2335,-3.2511,-3.2753,-3.2864,-3.3012,-3.3257,-3.3344,-3.3586,-3.3516,-3.3365,-3.3482,-3.4002,-3.3695,-3.3568,-3.3614,-3.3628,-3.3705,-3.3654,-3.3544,-3.3338,-3.3376,-3.3548,-3.361,-3.3125,-3.2469,-3.1929,-3.1278,-3.093,-3.0535,-3.0535,-3.0569,-3.0612,-3.0665,-3.0673,-3.068,-3.068,-3.0653,-3.0673,-3.0677,-3.0677,-3.068,-3.0657,-3.0653,-3.0657,-3.0653,-3.0668,-3.0671,-3.0675,-3.0671,-3.0706,-3.074,-3.0767,-3.0756,-4.9726,-4.9707,-4.9692,-4.9711,-4.9711,-4.9678,-4.9611,-4.9348,-4.9424,-4.9397,-4.9136,-4.9174,-4.934,-4.9265,-4.8401,-4.8116,-4.8044,-4.7682,-4.6725,-4.5492,-4.5242,-4.4758,-4.4017,-4.3144,-4.2706,-4.2495,-4.1137,-3.9922,-3.9137,-3.9026,-3.9007,-3.8989,-3.9007,-3.8979,-3.8884,-3.8902,-3.8925,-3.8921,-3.8828,-3.8481,-3.7742,-3.6925,-3.6168,-3.5498,-3.4661,-3.4252,-3.4221,-3.4161,-3.4105,-3.4124,-3.4111,-3.4111,-3.4105,-3.4117,-3.411,-3.4059,-3.3496,-3.3142,-3.306,-3.2595,-3.2245,-3.2188,-3.236,-3.2539,-3.3335,-3.3554,-3.3941,-3.4755,-3.4669,-3.4274,-3.3306,-3.3681,-3.4002,-3.4162,-3.4745,-3.5013,-3.5097,-3.4966,-3.5252,-3.5067,-3.4537,-3.4166,-3.4173,-3.4834,-3.4988,-3.4642,-3.3724,-3.2712,-3.2417,-3.1391,-3.0768,-3.067,-3.0665,-3.0588,-3.0632,-3.0601,-3.0616,-3.0625,-3.0619,-3.0592,-3.0607,-3.0602,-3.0607,-3.0612,-3.0597,-3.0616,-3.0607,-3.0621,-3.0613,-3.063,-3.0658,-3.0685,-3.07,-3.0703,-3.0717,-4.9608,-4.9582,-4.9582,-4.9582,-4.9563,-4.9582,-4.9247,-4.869,-4.8584,-4.8203,-4.7744,-4.7596,-4.7828,-4.8313,-4.8031,-4.793,-4.795,-4.7401,-4.6464,-4.5382,-4.5244,-4.4785,-4.4008,-4.3658,-4.3203,-4.2637,-4.2051,-4.104,-3.9767,-3.9198,-3.9198,-3.9545,-3.9161,-3.9161,-3.9483,-3.915,-3.891,-3.891,-3.891,-3.8744,-3.8412,-3.7691,-3.6906,-3.6133,-3.4796,-3.4074,-3.4074,-3.4086,-3.4086,-3.4018,-3.4074,-3.4086,-3.4049,-3.4061,-3.4099,-3.4117,-3.3894,-3.3794,-3.3822,-3.3665,-3.3604,-3.3618,-3.373,-3.3801,-3.4163,-3.4299,-3.449,-3.4736,-3.4803,-3.4453,-3.4245,-3.4374,-3.4606,-3.4672,-3.4925,-3.5168,-3.5176,-3.519,-3.5223,-3.5216,-3.502,-3.4923,-3.4904,-3.5201,-3.5158,-3.462,-3.4031,-3.3506,-3.2974,-3.2314,-3.1891,-3.1975,-3.2032,-3.2056,-3.2073,-3.1099,-3.0574,-3.0593,-3.0598,-3.0564,-3.0554,-3.054,-3.052,-3.0525,-3.0544,-3.0525,-3.0525,-3.0545,-3.0554,-3.0577,-3.0614,-3.0618,-3.0644,-3.0644,-3.0646,-4.9456,-4.9412,-4.9329,-4.9313,-4.9332,-4.9313,-4.8977,-4.8437,-4.8271,-4.7905,-4.7441,-4.727,-4.7554,-4.8017,-4.8091,-4.809,-4.8083,-4.7543,-4.6808,-4.5947,-4.5584,-4.4996,-4.4274,-4.3957,-4.3536,-4.2973,-4.2678,-4.1815,-4.0495,-3.9611,-3.9666,-4.0333,-3.939,-3.9242,-3.9777,-3.9224,-3.8837,-3.8837,-3.8855,-3.8837,-3.8744,-3.8062,-3.738,-3.6717,-3.5463,-3.4494,-3.4035,-3.4023,-3.4011,-3.3972,-3.4011,-3.4023,-3.3998,-3.3998,-3.4023,-3.4061,-3.4055,-3.4086,-3.4136,-3.4221,-3.4274,-3.4363,-3.4439,-3.4476,-3.4513,-3.4556,-3.4588,-3.4599,-3.4609,-3.4609,-3.4641,-3.4663,-3.4762,-3.4831,-3.4927,-3.4983,-3.4964,-3.4992,-3.4981,-3.5016,-3.5138,-3.5168,-3.5187,-3.5239,-3.5025,-3.4477,-3.4258,-3.3775,-3.3327,-3.2971,-3.2831,-3.2831,-3.2749,-3.2711,-3.2673,-3.1973,-3.1245,-3.1171,-3.0648,-3.0551,-3.0455,-3.0444,-3.0433,-3.0455,-3.045,-3.0436,-3.0453,-3.0469,-3.0485,-3.05,-3.0501,-3.0516,-3.0543,-3.0565,-3.0571,-4.9214,-4.9197,-4.8976,-4.8943,-4.8942,-4.896,-4.8907,-4.8832,-4.8834,-4.8723,-4.8557,-4.8725,-4.8598,-4.88,-4.8709,-4.8712,-4.8512,-4.8383,-4.7922,-4.7129,-4.6322,-4.5479,-4.4634,-4.3972,-4.3603,-4.3365,-4.267,-4.1917,-4.1128,-4.0357,-4.032,-4.0689,-3.9567,-3.9289,-3.9953,-3.92,-3.8707,-3.8689,-3.8689,-3.8692,-3.8615,-3.7958,-3.7518,-3.7316,-3.6582,-3.5505,-3.4162,-3.4099,-3.4073,-3.3913,-3.4023,-3.3989,-3.4102,-3.4096,-3.4022,-3.4016,-3.3998,-3.3998,-3.4011,-3.4023,-3.4074,-3.4124,-3.4055,-3.4099,-3.4166,-3.4239,-3.4328,-3.4374,-3.4386,-3.439,-3.4443,-3.4431,-3.448,-3.4672,-3.4723,-3.4733,-3.4723,-3.4723,-3.4704,-3.4773,-3.4955,-3.5039,-3.4983,-3.5001,-3.4978,-3.4845,-3.4397,-3.3949,-3.3805,-3.3424,-3.2921,-3.2886,-3.3187,-3.3468,-3.3182,-3.2838,-3.2301,-3.1789,-3.1034,-3.0579,-3.0393,-3.0304,-3.0323,-3.033,-3.0343,-3.0323,-3.0329,-3.0354,-3.0373,-3.0371,-3.0394,-3.0403,-3.0436,-3.0467,-3.0482,-4.9197,-4.9162,-4.8995,-4.889,-4.889,-4.889,-4.889,-4.8873,-4.8767,-4.8696,-4.8678,-4.855,-4.8495,-4.8495,-4.8495,-4.8458,-4.8401,-4.8364,-4.796,-4.7261,-4.6856,-4.5975,-4.4856,-4.4434,-4.4011,-4.3442,-4.2671,-4.2194,-4.1829,-4.1095,-4.1148,-4.1479,-4.0304,-3.9992,-4.0526,-3.9441,-3.8661,-3.8515,-3.8515,-3.8433,-3.8283,-3.8031,-3.7667,-3.7124,-3.6833,-3.6194,-3.5271,-3.5449,-3.5027,-3.3944,-3.499,-3.5354,-3.483,-3.4687,-3.4439,-3.3994,-3.3934,-3.3947,-3.3998,-3.4016,-3.4022,-3.4042,-3.3998,-3.4011,-3.4023,-3.4061,-3.413,-3.4117,-3.4136,-3.4136,-3.4148,-3.4148,-3.4257,-3.4458,-3.4575,-3.4607,-3.4618,-3.4699,-3.4751,-3.4761,-3.484,-3.4851,-3.4831,-3.485,-3.485,-3.484,-3.4557,-3.4377,-3.4339,-3.4233,-3.4295,-3.4293,-3.4377,-3.4186,-3.4014,-3.3635,-3.3085,-3.2332,-3.1494,-3.0571,-3.0341,-3.0188,-3.02,-3.02,-3.0214,-3.0221,-3.0227,-3.0234,-3.0234,-3.0292,-3.0317,-3.0322,-3.0334,-3.0358,-3.0411,-4.8995,-4.896,-4.8786,-4.8678,-4.8678,-4.8678,-4.8678,-4.866,-4.855,-4.8495,-4.8476,-4.8363,-4.8324,-4.8324,-4.8324,-4.8324,-4.8324,-4.8324,-4.8049,-4.7497,-4.7091,-4.623,-4.493,-4.4236,-4.3798,-4.3304,-4.2757,-4.2519,-4.2483,-4.177,-4.1571,-4.177,-4.0783,-4.018,-4.0382,-3.9522,-3.8814,-3.8391,-3.8283,-3.8236,-3.8118,-3.8101,-3.7866,-3.7415,-3.7361,-3.6944,-3.6256,-3.6723,-3.6245,-3.4994,-3.5605,-3.5663,-3.4925,-3.484,-3.4572,-3.3913,-3.3766,-3.3793,-3.3812,-3.4028,-3.4243,-3.4296,-3.4315,-3.436,-3.4344,-3.4223,-3.3934,-3.3959,-3.3959,-3.3972,-3.3998,-3.4011,-3.4086,-3.4233,-3.4305,-3.4374,-3.4427,-3.455,-3.4594,-3.4594,-3.4668,-3.4689,-3.4658,-3.4678,-3.466,-3.4676,-3.4689,-3.4701,-3.4713,-3.4764,-3.4832,-3.487,-3.4746,-3.4697,-3.4848,-3.4431,-3.3844,-3.2938,-3.1987,-3.0975,-3.0277,-3.0117,-3.0053,-3.0045,-3.0053,-3.0053,-3.0053,-3.0075,-3.0109,-3.0173,-3.0221,-3.0241,-3.0254,-3.0324,-3.0361,-4.8605,-4.8569,-4.8383,-4.8325,-4.8325,-4.8325,-4.8344,-4.8325,-4.8325,-4.8343,-4.8306,-4.8267,-4.8267,-4.8267,-4.8209,-4.8208,-4.8248,-4.8228,-4.8134,-4.7837,-4.7282,-4.6286,-4.5189,-4.3937,-4.3248,-4.2975,-4.2884,-4.2865,-4.2794,-4.2159,-4.1759,-4.1814,-4.1143,-4.0344,-3.9927,-3.9563,-3.902,-3.8407,-3.8174,-3.8085,-3.8034,-3.8034,-3.8016,-3.7962,-3.7925,-3.7584,-3.7063,-3.7422,-3.7254,-3.6057,-3.5942,-3.5616,-3.4911,-3.4833,-3.4681,-3.3902,-3.372,-3.3825,-3.3814,-3.4352,-3.4739,-3.496,-3.4936,-3.494,-3.5055,-3.4633,-3.416,-3.4041,-3.4026,-3.4029,-3.4099,-3.4086,-3.4149,-3.4157,-3.4184,-3.4105,-3.4111,-3.4281,-3.4358,-3.4293,-3.4397,-3.4528,-3.4409,-3.4506,-3.4539,-3.4561,-3.4583,-3.4604,-3.4626,-3.462,-3.4663,-3.4704,-3.4753,-3.4793,-3.4841,-3.4737,-3.4131,-3.3337,-3.2454,-3.1572,-3.0433,-3.0121,-2.9924,-2.9897,-2.9905,-2.9897,-2.9897,-2.994,-2.9964,-3.0003,-3.0057,-3.0121,-3.0178,-3.0226,-3.0279,-4.8587,-4.855,-4.8364,-4.8324,-4.8324,-4.8324,-4.8305,-4.8287,-4.8305,-4.8286,-4.8267,-4.8131,-4.8072,-4.8072,-4.7929,-4.7847,-4.7868,-4.7868,-4.7744,-4.7545,-4.7337,-4.644,-4.5343,-4.4275,-4.3424,-4.2954,-4.2862,-4.2919,-4.2901,-4.2628,-4.2519,-4.2538,-4.1759,-4.1343,-4.1107,-3.9966,-3.9261,-3.8866,-3.8202,-3.7863,-3.7757,-3.7739,-3.7739,-3.7721,-3.7739,-3.756,-3.7219,-3.7396,-3.7596,-3.7489,-3.6855,-3.653,-3.6204,-3.6297,-3.5898,-3.515,-3.5139,-3.5254,-3.5227,-3.5359,-3.5563,-3.5687,-3.5627,-3.5645,-3.569,-3.5553,-3.5049,-3.4619,-3.4458,-3.4548,-3.4524,-3.4524,-3.4794,-3.5235,-3.4669,-3.4102,-3.4092,-3.4093,-3.4161,-3.4148,-3.4301,-3.4387,-3.435,-3.4332,-3.4349,-3.433,-3.4372,-3.4358,-3.44,-3.4604,-3.4719,-3.4615,-3.462,-3.4682,-3.4704,-3.4704,-3.4354,-3.3617,-3.2901,-3.2288,-3.1111,-3.0178,-2.9943,-2.9765,-2.979,-2.9799,-2.9799,-2.9808,-2.9825,-2.9876,-2.9943,-3.0014,-3.0061,-3.0094,-3.0171,-4.8439,-4.8345,-4.8229,-4.8149,-4.8032,-4.805,-4.805,-4.805,-4.805,-4.805,-4.8012,-4.7929,-4.7868,-4.7847,-4.7741,-4.7699,-4.7699,-4.7699,-4.7615,-4.749,-4.7349,-4.6424,-4.515,-4.4194,-4.3422,-4.2722,-4.2632,-4.2632,-4.2631,-4.265,-4.265,-4.2503,-4.2124,-4.1745,-4.1258,-4.0483,-3.9439,-3.879,-3.8199,-3.7802,-3.739,-3.7353,-3.7336,-3.7336,-3.7336,-3.7297,-3.7164,-3.7182,-3.7411,-3.7737,-3.7481,-3.7053,-3.6728,-3.6862,-3.6483,-3.5576,-3.5638,-3.5686,-3.5694,-3.5876,-3.6158,-3.6274,-3.624,-3.6272,-3.6229,-3.6095,-3.552,-3.5162,-3.5133,-3.5151,-3.5121,-3.5123,-3.5354,-3.5615,-3.521,-3.4683,-3.4452,-3.457,-3.4604,-3.4641,-3.4831,-3.4855,-3.4615,-3.4484,-3.4242,-3.4144,-3.4386,-3.4276,-3.4216,-3.4519,-3.4689,-3.4568,-3.4358,-3.4314,-3.4325,-3.4314,-3.436,-3.3695,-3.2868,-3.2363,-3.1434,-3.0272,-2.9889,-2.9692,-2.9692,-2.9701,-2.9683,-2.9701,-2.9756,-2.9809,-2.987,-2.9885,-2.9907,-2.9956,-3.0019,-4.8151,-4.7974,-4.7974,-4.7868,-4.772,-4.7699,-4.7741,-4.7699,-4.7741,-4.7741,-4.772,-4.7678,-4.7636,-4.7636,-4.7529,-4.7572,-4.7551,-4.7468,-4.7508,-4.7359,-4.7084,-4.6226,-4.4822,-4.4086,-4.3343,-4.265,-4.2356,-4.2267,-4.2249,-4.2267,-4.2225,-4.2169,-4.205,-4.1647,-4.115,-4.0686,-3.9761,-3.8813,-3.8267,-3.7862,-3.7367,-3.7191,-3.7068,-3.7068,-3.6989,-3.7029,-3.7007,-3.7027,-3.722,-3.7775,-3.7649,-3.7202,-3.6631,-3.6718,-3.6414,-3.581,-3.5807,-3.5771,-3.5614,-3.6238,-3.6612,-3.6769,-3.682,-3.6837,-3.6795,-3.6432,-3.6017,-3.5681,-3.576,-3.5744,-3.578,-3.5814,-3.5997,-3.612,-3.6001,-3.5681,-3.5349,-3.5294,-3.5371,-3.539,-3.5854,-3.5738,-3.5333,-3.4895,-3.4659,-3.4724,-3.4844,-3.4867,-3.4706,-3.4781,-3.47,-3.4412,-3.4188,-3.3895,-3.3895,-3.3881,-3.3928,-3.3708,-3.2729,-3.2018,-3.1302,-3.0404,-2.9896,-2.9626,-2.9568,-2.9539,-2.9559,-2.9598,-2.9645,-2.9683,-2.9729,-2.9728,-2.9727,-2.9779,-2.9847,-4.7974,-4.7834,-4.7852,-4.7788,-4.7699,-4.7699,-4.7678,-4.7696,-4.7678,-4.7636,-4.7636,-4.749,-4.7341,-4.7214,-4.7075,-4.6939,-4.6916,-4.6893,-4.6801,-4.6643,-4.6507,-4.5917,-4.4976,-4.4355,-4.3792,-4.3084,-4.2175,-4.1884,-4.1952,-4.187,-4.1758,-4.1762,-4.1744,-4.1635,-4.1427,-4.077,-4.0383,-3.9845,-3.8816,-3.8105,-3.7769,-3.7334,-3.7071,-3.7018,-3.6861,-3.6884,-3.6928,-3.6829,-3.6926,-3.7143,-3.7297,-3.7262,-3.7088,-3.7128,-3.7003,-3.6788,-3.6678,-3.6677,-3.6747,-3.6893,-3.7236,-3.7274,-3.731,-3.7453,-3.7309,-3.7184,-3.6738,-3.631,-3.6131,-3.6254,-3.6272,-3.6826,-3.6934,-3.6897,-3.666,-3.6384,-3.6246,-3.6012,-3.5882,-3.5901,-3.6062,-3.6047,-3.582,-3.5783,-3.5596,-3.5468,-3.5468,-3.5586,-3.5378,-3.5129,-3.482,-3.4509,-3.3913,-3.3657,-3.3671,-3.3689,-3.3726,-3.362,-3.2761,-3.1881,-3.1154,-3.0357,-2.9784,-2.9508,-2.9386,-2.9378,-2.9419,-2.9421,-2.9433,-2.9511,-2.9578,-2.9589,-2.9608,-2.9636,-2.9681,-4.7829,-4.7684,-4.7603,-4.7493,-4.7359,-4.7312,-4.7316,-4.7338,-4.7227,-4.7187,-4.7143,-4.7012,-4.6898,-4.6765,-4.6684,-4.6613,-4.659,-4.6525,-4.6447,-4.6332,-4.6217,-4.5965,-4.5512,-4.4753,-4.4066,-4.3196,-4.2511,-4.2079,-4.1802,-4.1648,-4.1626,-4.1565,-4.1493,-4.1436,-4.144,-4.0904,-4.0471,-4.0062,-3.9377,-3.8686,-3.8212,-3.7891,-3.7422,-3.7214,-3.7018,-3.704,-3.712,-3.7053,-3.7015,-3.7085,-3.7236,-3.7284,-3.7177,-3.7201,-3.7184,-3.7163,-3.7106,-3.7068,-3.7089,-3.7127,-3.7206,-3.7317,-3.7354,-3.7299,-3.726,-3.7279,-3.7118,-3.6707,-3.6603,-3.6678,-3.6696,-3.6944,-3.7299,-3.7282,-3.7038,-3.6863,-3.6898,-3.6699,-3.6485,-3.6544,-3.6833,-3.6744,-3.6619,-3.6458,-3.6035,-3.567,-3.6125,-3.6209,-3.5659,-3.5396,-3.5056,-3.4615,-3.3837,-3.3466,-3.3481,-3.3524,-3.3581,-3.3382,-3.2889,-3.2044,-3.1279,-3.0436,-2.9612,-2.9388,-2.9156,-2.9229,-2.9243,-2.9235,-2.9246,-2.9318,-2.938,-2.946,-2.949,-2.9443,-2.9483,-4.7624,-4.7468,-4.7341,-4.7143,-4.6952,-4.6842,-4.6824,-4.6865,-4.6678,-4.6643,-4.6613,-4.6613,-4.6596,-4.6447,-4.6429,-4.6471,-4.6423,-4.6277,-4.6087,-4.6013,-4.5912,-4.5835,-4.56,-4.5003,-4.416,-4.2975,-4.2533,-4.2137,-4.1815,-4.1605,-4.1481,-4.141,-4.1395,-4.1244,-4.1093,-4.0913,-4.0526,-4.0003,-3.9652,-3.9244,-3.8665,-3.8408,-3.7956,-3.7607,-3.747,-3.747,-3.7492,-3.7448,-3.7403,-3.7274,-3.7418,-3.7309,-3.7076,-3.6926,-3.6948,-3.6948,-3.6888,-3.6791,-3.6809,-3.6851,-3.6891,-3.6928,-3.697,-3.6987,-3.6987,-3.6968,-3.6913,-3.6913,-3.6825,-3.6865,-3.695,-3.6952,-3.697,-3.697,-3.7029,-3.7127,-3.723,-3.7182,-3.7012,-3.7161,-3.7312,-3.7263,-3.7085,-3.6889,-3.6357,-3.602,-3.6532,-3.6741,-3.6197,-3.569,-3.5379,-3.487,-3.4127,-3.3406,-3.3313,-3.3289,-3.3345,-3.3306,-3.291,-3.216,-3.141,-3.0779,-2.9984,-2.9185,-2.8968,-2.9003,-2.9033,-2.9003,-2.9026,-2.9112,-2.9145,-2.9189,-2.92,-2.9229,-2.9307,-4.7367,-4.7341,-4.7245,-4.7002,-4.6702,-4.6637,-4.659,-4.6518,-4.6447,-4.6477,-4.6566,-4.659,-4.6477,-4.6381,-4.6381,-4.6301,-4.603,-4.5786,-4.5606,-4.5529,-4.5415,-4.5327,-4.5258,-4.5077,-4.443,-4.3589,-4.2762,-4.2127,-4.1919,-4.1705,-4.1461,-4.1003,-4.1263,-4.129,-4.08,-4.0566,-4.0538,-4.022,-3.9836,-3.9435,-3.9183,-3.8732,-3.8356,-3.8077,-3.8065,-3.8065,-3.8065,-3.8065,-3.8025,-3.8025,-3.8071,-3.7706,-3.7244,-3.6872,-3.6762,-3.6647,-3.6502,-3.6419,-3.6419,-3.6423,-3.6485,-3.6588,-3.6693,-3.6771,-3.6748,-3.6725,-3.6667,-3.6626,-3.665,-3.6693,-3.6829,-3.6748,-3.6745,-3.6766,-3.6768,-3.6851,-3.6915,-3.7007,-3.7202,-3.7433,-3.7613,-3.7632,-3.7345,-3.7167,-3.6899,-3.6649,-3.6916,-3.7166,-3.6916,-3.6325,-3.5789,-3.5181,-3.4485,-3.3749,-3.3169,-3.3096,-3.3088,-3.3244,-3.2907,-3.2188,-3.1548,-3.1129,-3.0435,-2.9219,-2.8724,-2.8773,-2.8773,-2.8755,-2.8791,-2.8851,-2.8863,-2.8923,-2.9019,-2.9113,-2.9118,-4.7191,-4.703,-4.6934,-4.6684,-4.6405,-4.6326,-4.6284,-4.6301,-4.6154,-4.613,-4.6161,-4.6179,-4.6105,-4.6005,-4.5912,-4.5752,-4.5494,-4.5389,-4.5257,-4.5167,-4.5059,-4.5022,-4.4995,-4.4995,-4.478,-4.419,-4.3312,-4.2569,-4.238,-4.227,-4.1766,-4.1305,-4.1476,-4.1237,-4.0664,-4.0517,-4.0493,-4.0366,-4.0127,-3.9907,-3.9827,-3.9343,-3.9088,-3.8778,-3.871,-3.8727,-3.871,-3.8734,-3.8687,-3.8639,-3.8622,-3.8221,-3.7752,-3.7353,-3.6981,-3.6496,-3.6221,-3.6118,-3.6118,-3.6127,-3.6191,-3.6233,-3.6343,-3.6364,-3.6339,-3.6314,-3.6335,-3.6276,-3.6255,-3.6322,-3.6381,-3.6377,-3.6335,-3.6335,-3.6398,-3.6485,-3.6609,-3.6731,-3.7032,-3.7394,-3.7376,-3.732,-3.7338,-3.7248,-3.7301,-3.7337,-3.7355,-3.7374,-3.7393,-3.6805,-3.606,-3.5013,-3.4215,-3.338,-3.2844,-3.2841,-3.2852,-3.2979,-3.2914,-3.2199,-3.1518,-3.1006,-2.9932,-2.8654,-2.847,-2.8755,-2.8587,-2.8625,-2.8607,-2.871,-2.9045,-2.9271,-2.9059,-2.9004,-2.9095,-4.7127,-4.6708,-4.6572,-4.6357,-4.6137,-4.5995,-4.6013,-4.603,-4.5829,-4.5752,-4.5778,-4.5744,-4.5693,-4.5563,-4.5415,-4.5257,-4.5042,-4.5123,-4.5059,-4.4995,-4.4913,-4.4913,-4.4896,-4.4896,-4.4807,-4.4572,-4.4136,-4.3528,-4.2934,-4.2815,-4.2398,-4.1912,-4.1733,-4.1384,-4.0855,-4.0506,-4.0487,-4.0419,-4.0412,-4.0347,-4.0239,-4.0138,-3.9901,-3.944,-3.9372,-3.9389,-3.9355,-3.9372,-3.9331,-3.9282,-3.9189,-3.8901,-3.834,-3.8201,-3.7642,-3.6626,-3.6273,-3.6193,-3.6176,-3.591,-3.5915,-3.5975,-3.5975,-3.5975,-3.5997,-3.6041,-3.5997,-3.5997,-3.5975,-3.6019,-3.6084,-3.6036,-3.6019,-3.6041,-3.6079,-3.6084,-3.6293,-3.6423,-3.6468,-3.6736,-3.6898,-3.6956,-3.6917,-3.6954,-3.6935,-3.7052,-3.7071,-3.7204,-3.7169,-3.6808,-3.6013,-3.4762,-3.3741,-3.2826,-3.2456,-3.2541,-3.2589,-3.2739,-3.2663,-3.2252,-3.1491,-3.0797,-2.9707,-2.89,-2.8898,-2.9119,-2.8811,-2.8535,-2.8599,-2.886,-2.9398,-2.9704,-2.973,-2.9533,-2.9439,-4.713,-4.6429,-4.6308,-4.6087,-4.5862,-4.5811,-4.5752,-4.5658,-4.552,-4.5503,-4.558,-4.5494,-4.5459,-4.5363,-4.5257,-4.5203,-4.5096,-4.4923,-4.4858,-4.4803,-4.4737,-4.4682,-4.4654,-4.4671,-4.4682,-4.462,-4.449,-4.4022,-4.3535,-4.3383,-4.2949,-4.24,-4.2223,-4.1875,-4.1205,-4.0654,-4.0163,-4.0163,-4.0188,-4.0121,-4.0113,-4.0087,-4.0003,-3.9943,-3.991,-3.9893,-3.98,-3.9817,-3.9809,-3.9842,-3.9876,-3.9563,-3.9029,-3.8894,-3.8471,-3.7773,-3.7193,-3.6809,-3.6718,-3.6333,-3.592,-3.6021,-3.5941,-3.5922,-3.6046,-3.6019,-3.6019,-3.598,-3.599,-3.6002,-3.6103,-3.6044,-3.6031,-3.5975,-3.5954,-3.5975,-3.6101,-3.6144,-3.6212,-3.6195,-3.6388,-3.6433,-3.6433,-3.6474,-3.6553,-3.6658,-3.6796,-3.6895,-3.6722,-3.6254,-3.6059,-3.4831,-3.359,-3.2648,-3.2404,-3.2441,-3.2354,-3.2457,-3.2348,-3.2154,-3.1399,-3.0715,-3.0472,-2.9843,-2.971,-2.9309,-2.8908,-2.8692,-2.8681,-2.8955,-2.944,-3.0008,-3.0538,-3.0251,-2.9791,-4.6585,-4.6161,-4.5955,-4.5778,-4.5555,-4.5415,-4.531,-4.5247,-4.5194,-4.5203,-4.523,-4.5203,-4.5123,-4.5042,-4.4978,-4.494,-4.4841,-4.4737,-4.4682,-4.4671,-4.4615,-4.4587,-4.4598,-4.4598,-4.4598,-4.4542,-4.4581,-4.4479,-4.4113,-4.395,-4.369,-4.3031,-4.2878,-4.2557,-4.1803,-4.1085,-4.0832,-4.0637,-4.0349,-4.0037,-3.9935,-3.9884,-3.9867,-3.9867,-3.9867,-3.9867,-3.9867,-3.9867,-3.9764,-3.967,-3.9592,-3.9475,-3.9207,-3.9124,-3.8991,-3.895,-3.8252,-3.7776,-3.7455,-3.706,-3.6688,-3.6412,-3.635,-3.6429,-3.6441,-3.6418,-3.6593,-3.7046,-3.7017,-3.6797,-3.6452,-3.6463,-3.6157,-3.5965,-3.58,-3.5844,-3.5883,-3.5883,-3.5927,-3.5905,-3.5866,-3.5937,-3.6006,-3.6049,-3.6156,-3.6301,-3.6364,-3.6406,-3.5939,-3.52,-3.5117,-3.5007,-3.3755,-3.2577,-3.256,-3.2581,-3.2186,-3.2175,-3.2109,-3.1795,-3.1185,-3.0664,-3.0525,-3.0161,-2.9674,-2.9301,-2.8967,-2.881,-2.8729,-2.9059,-2.9445,-2.9902,-3.0324,-3.0389,-2.9886,-4.6098,-4.576,-4.5529,-4.5389,-4.5283,-4.5086,-4.5022,-4.5022,-4.4968,-4.4968,-4.494,-4.494,-4.4831,-4.4793,-4.4748,-4.4682,-4.4502,-4.4626,-4.4501,-4.4456,-4.4495,-4.4483,-4.4337,-4.4298,-4.4298,-4.4355,-4.427,-4.4219,-4.4265,-4.4226,-4.3956,-4.3663,-4.3276,-4.2989,-4.2432,-4.1651,-4.1103,-4.0753,-4.012,-3.9755,-3.9609,-3.9566,-3.9582,-3.9582,-3.9582,-3.9582,-3.9582,-3.9582,-3.9435,-3.9312,-3.9259,-3.9236,-3.9159,-3.9169,-3.9249,-3.923,-3.8822,-3.8564,-3.817,-3.7806,-3.7475,-3.7104,-3.6909,-3.6885,-3.6814,-3.6895,-3.702,-3.7412,-3.7463,-3.711,-3.6794,-3.6565,-3.6207,-3.5825,-3.56,-3.5661,-3.5706,-3.5661,-3.5616,-3.5594,-3.5571,-3.5549,-3.56,-3.5644,-3.5756,-3.5927,-3.5971,-3.5971,-3.5442,-3.4725,-3.4706,-3.4864,-3.3728,-3.2657,-3.2554,-3.2503,-3.2143,-3.1833,-3.1759,-3.1535,-3.0998,-3.0864,-3.0831,-3.0348,-2.9813,-2.9384,-2.9094,-2.8931,-2.8823,-2.9199,-2.954,-2.9646,-2.9884,-3.0039,-2.9753,-4.589,-4.523,-4.5113,-4.5059,-4.5032,-4.5005,-4.4995,-4.4968,-4.4858,-4.4803,-4.4748,-4.4654,-4.457,-4.457,-4.4514,-4.4384,-4.4143,-4.4784,-4.4482,-4.4234,-4.4251,-4.4241,-4.4085,-4.3901,-4.3772,-4.3772,-4.3831,-4.3802,-4.3667,-4.3743,-4.403,-4.4322,-4.3479,-4.3188,-4.2763,-4.2078,-4.115,-4.0623,-3.9897,-3.9462,-3.9332,-3.9255,-3.9249,-3.9232,-3.9232,-3.9232,-3.9232,-3.9249,-3.9195,-3.9098,-3.9071,-3.9071,-3.9044,-3.9044,-3.9142,-3.9139,-3.9133,-3.8911,-3.8724,-3.8178,-3.7444,-3.7203,-3.7128,-3.7193,-3.717,-3.7277,-3.7311,-3.7403,-3.7686,-3.7137,-3.6596,-3.6111,-3.6171,-3.5773,-3.5518,-3.5418,-3.5435,-3.5383,-3.5337,-3.5291,-3.5268,-3.5251,-3.5251,-3.5304,-3.5487,-3.5661,-3.5728,-3.5728,-3.554,-3.5001,-3.4878,-3.4639,-3.3557,-3.2787,-3.2551,-3.2304,-3.1941,-3.1529,-3.1266,-3.1176,-3.0962,-3.0939,-3.0868,-3.0813,-3.0328,-2.976,-2.9201,-2.8935,-2.8869,-2.9325,-2.9545,-2.9379,-2.9483,-2.9705,-2.9145,-4.5086,-4.4831,-4.4776,-4.4858,-4.4978,-4.4831,-4.4765,-4.4748,-4.4709,-4.4542,-4.4355,-4.4109,-4.3977,-4.4006,-4.3993,-4.3919,-4.3835,-4.4005,-4.4149,-4.4172,-4.4141,-4.4141,-4.3959,-4.3847,-4.3608,-4.3615,-4.3598,-4.3459,-4.3309,-4.335,-4.3188,-4.3234,-4.3247,-4.3435,-4.3095,-4.2402,-4.1519,-4.0696,-4.0105,-3.9737,-3.9278,-3.9051,-3.8952,-3.8952,-3.8936,-3.8936,-3.8936,-3.8952,-3.8843,-3.875,-3.8694,-3.8722,-3.8678,-3.8694,-3.8761,-3.8882,-3.8898,-3.8925,-3.898,-3.8557,-3.829,-3.7658,-3.7418,-3.731,-3.7571,-3.7775,-3.8074,-3.8205,-3.8209,-3.7744,-3.7391,-3.697,-3.6588,-3.5897,-3.5478,-3.5338,-3.5308,-3.5338,-3.516,-3.5179,-3.507,-3.4994,-3.4994,-3.4994,-3.5205,-3.5406,-3.5452,-3.5447,-3.5313,-3.5149,-3.4974,-3.4732,-3.3777,-3.2993,-3.2723,-3.2261,-3.1746,-3.1262,-3.0794,-3.0773,-3.0733,-3.0679,-3.0643,-3.074,-3.0781,-3.0229,-2.9616,-2.8958,-2.8842,-2.9091,-2.9007,-2.88,-2.9006,-2.9265,-2.8647,-4.44,-4.4281,-4.4298,-4.4452,-4.4676,-4.4525,-4.44,-4.4327,-4.4281,-4.4184,-4.3935,-4.3713,-4.3608,-4.3608,-4.3608,-4.3519,-4.3671,-4.3957,-4.421,-4.4331,-4.4384,-4.4414,-4.4416,-4.4176,-4.3855,-4.3766,-4.3593,-4.3408,-4.2958,-4.312,-4.2863,-4.2716,-4.2904,-4.3123,-4.2974,-4.2392,-4.1559,-4.0843,-4.0242,-3.9731,-3.9133,-3.883,-3.8472,-3.8424,-3.8327,-3.8298,-3.8327,-3.8371,-3.8315,-3.8217,-3.816,-3.8177,-3.8148,-3.8119,-3.8217,-3.8359,-3.85,-3.8483,-3.8511,-3.8684,-3.8695,-3.8132,-3.792,-3.792,-3.8048,-3.8222,-3.849,-3.8652,-3.881,-3.8656,-3.7998,-3.7399,-3.6916,-3.6282,-3.5702,-3.5492,-3.5554,-3.5547,-3.5259,-3.5071,-3.4997,-3.4964,-3.4715,-3.4715,-3.4859,-3.5048,-3.5182,-3.5165,-3.5098,-3.4971,-3.486,-3.4614,-3.4212,-3.3517,-3.2912,-3.2193,-3.1461,-3.0832,-3.0485,-3.0485,-3.0443,-3.0384,-3.0384,-3.0485,-3.0493,-3.0452,-3.0028,-2.9317,-2.8932,-2.8714,-2.8533,-2.8285,-2.8121,-2.828,-2.8074,-4.3935,-4.3638,-4.3654,-4.3831,-4.4126,-4.4143,-4.3964,-4.3743,-4.3667,-4.3638,-4.3595,-4.3549,-4.3519,-4.3489,-4.3429,-4.3344,-4.3444,-4.4311,-4.4625,-4.4237,-4.4609,-4.5014,-4.4753,-4.4314,-4.3942,-4.406,-4.3735,-4.3236,-4.2683,-4.3047,-4.2697,-4.2029,-4.2082,-4.2394,-4.2221,-4.1374,-4.0785,-4.0483,-3.9929,-3.9358,-3.8915,-3.8723,-3.8354,-3.7939,-3.7857,-3.7902,-3.7727,-3.7857,-3.7799,-3.7653,-3.7786,-3.7786,-3.7623,-3.7565,-3.7578,-3.7578,-3.7812,-3.7783,-3.7549,-3.8091,-3.8238,-3.8225,-3.7996,-3.8186,-3.8342,-3.849,-3.8448,-3.8371,-3.8387,-3.8068,-3.7697,-3.74,-3.6992,-3.6571,-3.598,-3.5603,-3.5622,-3.561,-3.5286,-3.5014,-3.5049,-3.5029,-3.4659,-3.4456,-3.4529,-3.4675,-3.4835,-3.4842,-3.4794,-3.4721,-3.4582,-3.4307,-3.4038,-3.3457,-3.2691,-3.1892,-3.1188,-3.0549,-3.0146,-3.0087,-3.0087,-3.0065,-3.0108,-3.0167,-3.0113,-2.9967,-2.9873,-2.9683,-2.9108,-2.8504,-2.8072,-2.7784,-2.7537,-2.7437,-2.7448,-4.3697,-4.3608,-4.3608,-4.3535,-4.3476,-4.3684,-4.3697,-4.3578,-4.3369,-4.3279,-4.3218,-4.3052,-4.2929,-4.2929,-4.2963,-4.3018,-4.3267,-4.3331,-4.3602,-4.4437,-4.4612,-4.4559,-4.4477,-4.4283,-4.3907,-4.3759,-4.3504,-4.3271,-4.2771,-4.3069,-4.2308,-4.1533,-4.1256,-4.1258,-4.1621,-4.1386,-4.1208,-4.0885,-4.0415,-3.9944,-3.9485,-3.9188,-3.8731,-3.8053,-3.7975,-3.7787,-3.7397,-3.7531,-3.7422,-3.7271,-3.745,-3.7387,-3.7298,-3.7282,-3.7312,-3.7342,-3.7519,-3.7535,-3.7417,-3.7594,-3.7639,-3.7711,-3.7857,-3.7915,-3.777,-3.7799,-3.7799,-3.7799,-3.7786,-3.7578,-3.7482,-3.6956,-3.6566,-3.6378,-3.5922,-3.5555,-3.5457,-3.5425,-3.5259,-3.5056,-3.5004,-3.4516,-3.4136,-3.4063,-3.4159,-3.414,-3.4249,-3.4275,-3.4218,-3.4234,-3.4185,-3.3885,-3.3546,-3.3065,-3.2481,-3.1838,-3.105,-3.0321,-2.9855,-2.9605,-2.9627,-2.9655,-2.9605,-2.956,-2.9528,-2.948,-2.9504,-2.9409,-2.8812,-2.8238,-2.7993,-2.7577,-2.7267,-2.7254,-2.7372,-4.3369,-4.3248,-4.3248,-4.3066,-4.2851,-4.3248,-4.3369,-4.3248,-4.3021,-4.2867,-4.2711,-4.2523,-4.2365,-4.2366,-4.2494,-4.2686,-4.2981,-4.3538,-4.3822,-4.467,-4.4591,-4.4835,-4.4828,-4.4445,-4.4322,-4.3979,-4.3733,-4.3443,-4.2919,-4.3008,-4.2447,-4.1553,-4.0679,-4.0773,-4.101,-4.094,-4.0974,-4.0715,-4.0424,-4.008,-3.9685,-3.933,-3.8898,-3.8369,-3.8105,-3.7965,-3.7577,-3.7344,-3.7234,-3.7157,-3.7047,-3.6984,-3.6983,-3.6937,-3.6906,-3.6906,-3.6891,-3.6967,-3.6997,-3.6846,-3.6846,-3.6876,-3.7118,-3.7328,-3.7282,-3.7342,-3.7282,-3.7252,-3.7222,-3.7222,-3.7112,-3.6564,-3.656,-3.6403,-3.6088,-3.5726,-3.5736,-3.575,-3.5467,-3.5266,-3.5062,-3.4446,-3.3818,-3.3684,-3.3729,-3.3699,-3.364,-3.3676,-3.3722,-3.38,-3.3784,-3.3477,-3.323,-3.2861,-3.2443,-3.1962,-3.1097,-3.0139,-2.9714,-2.9421,-2.9113,-2.9159,-2.902,-2.9045,-2.9358,-2.9507,-2.9342,-2.9073,-2.8738,-2.8465,-2.8214,-2.7726,-2.7109,-2.7022,-2.7091,-4.2867,-4.2586,-4.2571,-4.2397,-4.2238,-4.2726,-4.2836,-4.2571,-4.2571,-4.2381,-4.2093,-4.2109,-4.198,-4.183,-4.2301,-4.2631,-4.2879,-4.3936,-4.435,-4.4708,-4.4846,-4.5269,-4.5274,-4.5044,-4.4583,-4.4545,-4.4303,-4.3609,-4.3145,-4.3153,-4.2781,-4.2083,-4.1252,-4.0857,-4.0573,-4.053,-4.0574,-4.0505,-4.0332,-3.9975,-3.9634,-3.9295,-3.8886,-3.844,-3.818,-3.804,-3.7783,-3.7543,-3.7266,-3.7006,-3.6748,-3.6394,-3.6194,-3.602,-3.6005,-3.6037,-3.6085,-3.6274,-3.6445,-3.6289,-3.6195,-3.6336,-3.6708,-3.7013,-3.7028,-3.686,-3.6799,-3.6799,-3.6784,-3.6814,-3.6737,-3.6828,-3.6872,-3.6622,-3.6341,-3.6238,-3.632,-3.6181,-3.5855,-3.5638,-3.5559,-3.5107,-3.4379,-3.4053,-3.3699,-3.3634,-3.3606,-3.3505,-3.3537,-3.3486,-3.3397,-3.3112,-3.2884,-3.2696,-3.2305,-3.1878,-3.1317,-3.0406,-2.9781,-2.9387,-2.9051,-2.8692,-2.8614,-2.8784,-2.9396,-2.9514,-2.9221,-2.9099,-2.8983,-2.8661,-2.8155,-2.7908,-2.7293,-2.6757,-2.661,-4.2206,-4.1867,-4.1883,-4.1851,-4.1785,-4.1948,-4.198,-4.1867,-4.1883,-4.1818,-4.1753,-4.1753,-4.1621,-4.1652,-4.2299,-4.2563,-4.3044,-4.3531,-4.3957,-4.4353,-4.46,-4.4541,-4.4511,-4.4473,-4.432,-4.4205,-4.3981,-4.375,-4.3391,-4.3313,-4.2904,-4.2219,-4.155,-4.1008,-4.0689,-4.0571,-4.036,-4.0238,-4.0162,-3.9934,-3.9762,-3.9616,-3.9152,-3.8804,-3.8637,-3.8436,-3.7994,-3.7755,-3.7419,-3.6953,-3.6756,-3.6468,-3.6052,-3.602,-3.602,-3.6005,-3.5941,-3.591,-3.6068,-3.5926,-3.5831,-3.591,-3.6148,-3.6179,-3.6274,-3.6336,-3.6305,-3.6321,-3.6305,-3.6321,-3.6352,-3.6414,-3.6492,-3.6322,-3.6122,-3.6168,-3.6197,-3.6074,-3.5799,-3.5738,-3.5677,-3.5309,-3.4605,-3.4192,-3.3872,-3.3768,-3.3616,-3.349,-3.3422,-3.3416,-3.3187,-3.2931,-3.2758,-3.2638,-3.2163,-3.1682,-3.1259,-3.0742,-3.0089,-2.9454,-2.8989,-2.8648,-2.8348,-2.8425,-2.8822,-2.9011,-2.9037,-2.8807,-2.8468,-2.8247,-2.7811,-2.7709,-2.7489,-2.6919,-2.6405,-4.1801,-4.1588,-4.1588,-4.1489,-4.1256,-4.107,-4.0953,-4.1037,-4.1323,-4.1423,-4.1274,-4.1189,-4.1088,-4.1044,-4.1616,-4.2092,-4.2519,-4.3144,-4.3669,-4.4037,-4.4003,-4.4065,-4.4042,-4.3988,-4.3988,-4.3871,-4.3754,-4.3645,-4.3437,-4.3133,-4.274,-4.2344,-4.1752,-4.131,-4.0927,-4.0467,-4.0188,-4.0079,-4.0015,-3.9935,-3.9854,-3.9818,-3.9461,-3.9269,-3.9164,-3.8772,-3.8372,-3.8191,-3.774,-3.735,-3.7259,-3.6887,-3.6579,-3.6564,-3.6564,-3.6564,-3.6243,-3.6198,-3.6187,-3.5821,-3.5761,-3.5748,-3.5763,-3.5733,-3.5797,-3.5861,-3.5829,-3.5829,-3.5829,-3.5797,-3.5814,-3.5846,-3.5863,-3.5879,-3.5879,-3.5879,-3.5863,-3.5814,-3.5769,-3.5723,-3.5497,-3.518,-3.4756,-3.4363,-3.4091,-3.403,-3.3819,-3.3547,-3.3531,-3.3601,-3.329,-3.2922,-3.2779,-3.2619,-3.2076,-3.1548,-3.1172,-3.0782,-3.0413,-2.9777,-2.9124,-2.8705,-2.8494,-2.8265,-2.814,-2.8469,-2.8916,-2.8152,-2.772,-2.7569,-2.7454,-2.7225,-2.7136,-2.6995,-2.6527,-4.1505,-4.1423,-4.1489,-4.1122,-4.0681,-4.0277,-4.0081,-4.0081,-4.0783,-4.0987,-4.073,-4.0562,-4.037,-4.043,-4.1082,-4.1635,-4.221,-4.2894,-4.351,-4.3949,-4.3832,-4.3832,-4.3856,-4.3895,-4.3738,-4.3675,-4.3636,-4.3503,-4.3384,-4.314,-4.2895,-4.2455,-4.1998,-4.1692,-4.1445,-4.0524,-4.0231,-4.0237,-3.9956,-3.9696,-3.9625,-3.9532,-3.9388,-3.9379,-3.9364,-3.929,-3.917,-3.8871,-3.8452,-3.8197,-3.7913,-3.7514,-3.7304,-3.7244,-3.7274,-3.7184,-3.6798,-3.6663,-3.6547,-3.6259,-3.5986,-3.5851,-3.5624,-3.5746,-3.5872,-3.5662,-3.5634,-3.5619,-3.5619,-3.5619,-3.5636,-3.5653,-3.5686,-3.5718,-3.5718,-3.5718,-3.5686,-3.5668,-3.5636,-3.5606,-3.5563,-3.5262,-3.5168,-3.4791,-3.4578,-3.4427,-3.4198,-3.3855,-3.3814,-3.3923,-3.3502,-3.3064,-3.284,-3.2602,-3.1885,-3.1409,-3.1081,-3.0738,-3.0466,-2.9978,-2.9243,-2.8901,-2.8646,-2.8468,-2.8292,-2.8612,-2.8791,-2.8294,-2.7844,-2.7335,-2.7149,-2.6748,-2.6628,-2.6611,-2.6638,-4.0765,-4.0401,-4.0366,-4.0296,-4.0191,-4.0066,-4.0011,-4.0011,-4.0036,-4.0156,-4.0172,-4.0137,-4.0066,-4.0112,-4.1061,-4.1661,-4.1927,-4.2515,-4.332,-4.3506,-4.3497,-4.3506,-4.3488,-4.3542,-4.3463,-4.3423,-4.3384,-4.3369,-4.3344,-4.3275,-4.3245,-4.309,-4.2701,-4.2417,-4.2126,-4.113,-4.0711,-4.0636,-4.0074,-3.9736,-3.9619,-3.952,-3.9388,-3.9388,-3.9388,-3.9388,-3.9298,-3.9254,-3.8826,-3.8452,-3.8287,-3.7898,-3.7434,-3.7449,-3.7419,-3.7375,-3.7345,-3.7225,-3.7105,-3.6926,-3.6761,-3.6656,-3.6552,-3.6357,-3.6133,-3.5744,-3.5534,-3.5519,-3.5489,-3.5489,-3.5489,-3.5507,-3.5539,-3.5539,-3.5539,-3.5539,-3.5539,-3.5474,-3.5457,-3.5457,-3.5489,-3.5442,-3.5347,-3.5222,-3.51,-3.4896,-3.4684,-3.4456,-3.4437,-3.4419,-3.3826,-3.34,-3.303,-3.2626,-3.1794,-3.1249,-3.0896,-3.0602,-3.0308,-2.9854,-2.9358,-2.8588,-2.8021,-2.8499,-2.8663,-2.8598,-2.8742,-2.9175,-2.8641,-2.7584,-2.6891,-2.6526,-2.6035,-2.5896,-2.6213,-4.0277,-3.9996,-3.9925,-3.9889,-3.9854,-3.9783,-3.9747,-3.9696,-3.9625,-3.9625,-3.9787,-4.0004,-4.0034,-3.9913,-4.0848,-4.1618,-4.1618,-4.1919,-4.2653,-4.3054,-4.3135,-4.312,-4.314,-4.3305,-4.3344,-4.3305,-4.3305,-4.3305,-4.3265,-4.3305,-4.329,-4.3205,-4.311,-4.2841,-4.2551,-4.1953,-4.1346,-4.1265,-4.0509,-4.0114,-3.9862,-3.9645,-3.9448,-3.9388,-3.9403,-3.9403,-3.9388,-3.9388,-3.9215,-3.896,-3.8871,-3.8766,-3.8467,-3.8437,-3.8327,-3.8257,-3.8093,-3.7838,-3.7744,-3.7575,-3.7455,-3.7257,-3.697,-3.6605,-3.6486,-3.61,-3.5624,-3.5598,-3.5487,-3.5489,-3.5489,-3.5522,-3.5522,-3.5522,-3.5489,-3.5457,-3.5311,-3.518,-3.5049,-3.4883,-3.4916,-3.4883,-3.4835,-3.4802,-3.4695,-3.4728,-3.4601,-3.465,-3.4731,-3.4461,-3.3981,-3.3409,-3.2824,-3.2151,-3.1244,-3.0863,-3.0717,-3.0438,-3.007,-2.9739,-2.9204,-2.8025,-2.7384,-2.7968,-2.8222,-2.7942,-2.8194,-2.8785,-2.8458,-2.7286,-2.6728,-2.6301,-2.5784,-2.5395,-2.5801,-3.996,-3.9889,-3.9747,-3.9661,-3.961,-3.9481,-3.9424,-3.9424,-3.9424,-3.9484,-3.9685,-4.0179,-3.9993,-3.9933,-4.0352,-4.095,-4.1497,-4.1871,-4.2402,-4.2836,-4.2821,-4.3045,-4.3185,-4.3305,-4.3305,-4.325,-4.321,-4.317,-4.3145,-4.305,-4.2926,-4.2981,-4.2827,-4.2589,-4.2634,-4.2133,-4.14,-4.1495,-4.1136,-4.0837,-4.0431,-3.9988,-3.9772,-3.9607,-3.948,-3.9435,-3.9435,-3.9346,-3.9331,-3.9147,-3.9015,-3.8941,-3.886,-3.8756,-3.8867,-3.8697,-3.84,-3.8273,-3.8189,-3.7822,-3.7664,-3.7421,-3.7057,-3.6834,-3.6696,-3.634,-3.5921,-3.5707,-3.5614,-3.5612,-3.5612,-3.5505,-3.5505,-3.5493,-3.546,-3.5377,-3.5163,-3.4938,-3.4693,-3.4457,-3.4486,-3.4501,-3.454,-3.4491,-3.4491,-3.4511,-3.4516,-3.4573,-3.4496,-3.3984,-3.3479,-3.2725,-3.2009,-3.129,-3.0738,-3.0278,-3.0144,-2.9917,-2.9563,-2.9416,-2.9002,-2.7853,-2.7294,-2.7654,-2.7734,-2.7506,-2.756,-2.798,-2.7453,-2.6932,-2.6645,-2.6215,-2.5558,-2.5275,-2.56,-3.9676,-3.9481,-3.9496,-3.9445,-3.9445,-3.9424,-3.9388,-3.9388,-3.9403,-3.9694,-4.0009,-4.0225,-4.0292,-4.0292,-4.1542,-4.2058,-4.1891,-4.2002,-4.2548,-4.317,-4.2788,-4.3016,-4.3165,-4.3036,-4.325,-4.313,-4.2915,-4.2809,-4.2769,-4.2496,-4.2278,-4.229,-4.229,-4.2143,-4.2044,-4.1617,-4.1291,-4.1404,-4.1086,-4.0602,-4.0514,-4.0295,-4.0507,-4.0288,-3.9934,-3.9771,-3.9602,-3.9173,-3.8811,-3.8538,-3.8501,-3.8553,-3.8575,-3.8575,-3.859,-3.8598,-3.8311,-3.8208,-3.8055,-3.7967,-3.777,-3.7784,-3.7434,-3.7106,-3.6852,-3.6439,-3.6104,-3.5932,-3.5918,-3.604,-3.6001,-3.5615,-3.5507,-3.5482,-3.5442,-3.5361,-3.5185,-3.4884,-3.4607,-3.4513,-3.4488,-3.4626,-3.4801,-3.473,-3.4625,-3.4575,-3.4434,-3.4434,-3.4127,-3.3556,-3.2988,-3.2228,-3.1418,-3.1025,-3.0701,-2.9648,-2.9306,-2.9149,-2.8998,-2.8736,-2.8304,-2.7642,-2.7346,-2.7561,-2.748,-2.7277,-2.7349,-2.7418,-2.7105,-2.672,-2.6564,-2.6175,-2.5472,-2.5116,-2.5345]},{"header":{"parameterUnit":"m.s-1","parameterCategory":1,"la1":31.0,"la2":29.5877,"lo1":-88.7671,"lo2":-86.6584,"dy":0.0162,"dx":0.0185,"nx":115,"ny":88,"refTime":"2023-08-22T06:00:00:Z","depth":0,"parameterNumber":3,"parameterNumberName":"V-component_of_WINDS"},"data":[0.0,0.0,0.0,0.0,0.0,0.0,0.0,0.0,0.0,0.0,0.0,0.0,0.0,0.0,0.0,0.0,0.0,0.0,0.0,0.0,0.0,0.0,0.0,0.0,0.0,0.0,0.0,0.0,0.0,0.0,0.0,0.0,0.0,0.0,0.0,0.0,0.0,0.0,0.0,0.0,0.0,0.0,0.0,0.0,0.0,0.0,0.0,0.0,0.0,0.0,0.0,0.0,0.0,0.0,0.0,0.0,0.0,0.0,0.0,0.0,0.0,0.0,0.0,0.0,0.0,0.0,0.0,0.0,0.0,0.0,0.0,0.0,0.0,0.0,0.0,0.0,0.0,0.0,0.0,0.0,0.0,0.0,0.0,0.0,0.0,0.0,0.0,0.0,0.0,0.0,0.0,0.0,0.0,0.0,0.0,0.0,0.0,0.0,0.0,0.0,0.0,0.0,0.0,0.0,0.0,0.0,0.0,0.0,0.0,0.0,0.0,0.0,0.0,0.0,0.0,0.0,0.0,0.0,0.0,0.0,0.0,0.0,0.0,0.0,0.0,0.0,0.0,0.0,0.0,0.0,0.0,0.0,0.0,0.0,0.0,0.0,0.0,0.0,0.0,0.0,0.0,0.0,0.0,0.0,0.0,0.0,0.0,0.0,0.0,0.0,0.0,0.0,0.0,0.0,0.0,0.0,0.0,0.0,0.0,0.0,0.0,0.0,0.0,0.0,0.0,0.0,0.0,0.0,0.0,0.0,0.0,0.0,0.0,0.0,0.0,0.0,0.0,0.0,0.0,0.0,0.0,0.0,0.0,0.0,0.0,0.0,0.0,0.0,0.0,0.0,0.0,0.0,0.0,0.0,0.0,0.0,0.0,0.0,0.0,0.0,0.0,0.0,0.0,0.0,0.0,0.0,0.0,0.0,0.0,0.0,0.0,0.0,0.0,0.0,0.0,0.0,0.0,0.0,0.0,0.0,0.0,0.0,0.0,0.0,0.0,0.0,0.0,0.0,0.0,0.0,0.0,0.0,0.0,0.0,0.0,0.0,0.0,0.0,0.0,0.0,0.0,0.0,0.0,0.0,0.0,0.0,0.0,0.0,0.0,0.0,0.0,0.0,0.0,0.0,0.0,0.0,0.0,0.0,0.0,0.0,0.0,0.0,0.0,0.0,0.0,0.0,0.0,0.0,0.0,0.0,0.0,0.0,0.0,0.0,0.0,0.0,0.0,0.0,0.0,0.0,0.0,0.0,0.0,0.0,0.0,0.0,0.0,0.0,0.0,0.0,0.0,0.0,0.0,0.0,0.0,0.0,0.0,0.0,0.0,0.0,0.0,0.0,0.0,0.0,0.0,0.0,0.0,0.0,0.0,0.0,0.0,0.0,0.0,0.0,0.0,0.0,0.0,0.0,0.0,0.0,0.0,0.0,0.0,0.0,0.0,0.0,0.0,0.0,0.0,0.0,0.0,0.0,0.0,0.0,0.0,0.0,0.0,0.0,0.0,0.0,0.0,0.0,0.0,0.0,0.0,0.0,0.0,0.0,0.0,0.0,0.0,0.0,0.0,0.0,0.0,0.0,0.0,0.0,0.0,0.0,0.0,0.0,0.0,0.0,0.0,0.0,0.0,0.0,0.0,0.0,0.0,0.0,0.0,0.0,0.0,0.0,0.0,0.0,0.0,0.0,0.0,0.0,0.0,0.0,0.0,0.0,0.0,0.0,0.0,0.0,0.0,0.0,0.0,0.0,0.0,0.0,0.0,0.0,0.0,0.0,0.0,0.0,0.0,0.0,0.0,0.0,0.0,0.0,0.0,0.0,0.0,0.0,0.0,0.0,0.0,0.0,0.0,0.0,0.0,0.0,0.0,0.0,0.0,0.0,0.0,0.0,0.0,0.0,0.0,0.0,0.0,0.0,0.0,0.0,0.0,0.0,0.0,0.0,0.0,0.0,0.0,0.0,0.0,0.0,0.0,0.0,0.0,0.0,0.0,0.0,0.0,0.0,0.0,0.0,0.0,0.0,0.0,0.0,0.0,0.0,0.0,0.0,0.0,0.0,0.0,0.0,0.0,0.0,0.0,0.0,0.0,0.0,0.0,0.0,0.0,0.0,0.0,0.0,0.0,0.0,0.0,0.0,0.0,0.0,0.0,0.0,0.0,0.0,0.0,0.0,0.0,0.0,0.0,0.0,0.0,0.0,0.0,0.0,0.0,0.0,0.0,0.0,0.0,0.0,0.0,0.0,0.0,0.0,0.0,0.0,0.0,0.0,0.0,0.0,0.0,0.0,0.0,0.0,0.0,0.0,0.0,0.0,0.0,0.0,0.0,0.0,0.0,0.0,0.0,0.0,0.0,0.0,0.0,0.0,0.0,0.0,0.0,0.0,0.0,0.0,0.0,0.0,0.0,0.0,0.0,0.0,0.0,0.0,0.0,0.0,0.0,0.0,0.0,0.0,0.0,0.0,0.0,0.0,0.0,0.0,0.0,0.0,0.0,0.0,0.0,0.0,0.0,0.0,0.0,0.0,0.0,0.0,0.0,0.0,0.0,0.0,0.0,0.0,0.0,0.0,0.0,0.0,0.0,0.0,0.0,0.0,0.0,0.0,0.0,0.0,0.0,0.0,0.0,0.0,0.0,0.0,0.0,0.0,0.0,0.0,0.0,0.0,0.0,0.0,0.0,0.0,0.0,0.0,0.0,0.0,0.0,0.0,0.0,0.0,0.0,0.0,0.0,0.0,0.0,0.0,0.0,0.0,0.0,0.0,0.0,0.0,0.0,0.0,0.0,0.0,0.0,0.0,0.0,0.0,0.0,0.0,0.0,0.0,0.0,0.0,0.0,0.0,0.0,0.0,0.0,0.0,0.0,0.0,0.0,0.0,0.0,0.0,0.0,0.0,0.0,0.0,0.0,0.0,0.0,0.0,0.0,0.0,0.0,0.0,0.0,0.0,0.0,0.0,0.0,0.0,0.0,0.0,0.0,0.0,0.0,0.0,0.0,0.0,0.0,0.0,0.0,0.0,0.0,0.0,0.0,0.0,0.0,0.0,0.0,0.0,0.0,0.0,0.0,0.0,0.0,0.0,0.0,0.0,0.0,0.0,0.0,0.0,0.0,0.0,0.0,0.0,0.0,0.0,0.0,0.0,0.0,0.0,0.0,0.0,0.0,0.0,0.0,0.0,0.0,0.0,0.0,0.0,0.0,0.0,0.0,0.0,0.0,0.0,0.0,0.0,0.0,0.0,0.0,0.0,0.0,0.0,0.0,0.0,0.0,0.0,0.0,0.0,0.0,0.0,0.0,0.0,0.0,0.0,0.0,0.0,0.0,0.0,0.0,0.0,0.0,0.0,0.0,0.0,0.0,0.0,0.0,0.0,0.0,0.0,0.0,0.0,0.0,0.0,0.0,0.0,0.0,0.0,0.0,0.0,0.0,0.0,0.0,0.0,0.0,0.0,0.0,0.0,0.0,0.0,0.0,0.0,0.0,0.0,0.0,0.0,0.0,0.0,0.0,0.0,0.0,0.0,0.0,0.0,0.0,0.0,0.0,0.0,0.0,0.0,0.0,0.0,0.0,0.0,0.0,0.0,0.0,0.0,0.0,0.0,0.0,0.0,0.0,0.0,0.0,0.0,0.0,0.0,0.0,0.0,0.0,0.0,0.0,0.0,0.0,0.0,0.0,0.0,0.0,0.0,0.0,0.0,0.0,0.0,0.0,0.0,0.0,0.0,0.0,0.0,0.0,0.0,0.0,0.0,0.0,0.0,0.0,0.0,0.0,0.0,0.0,0.0,0.0,0.0,0.0,0.0,0.0,0.0,0.0,0.0,0.0,0.0,0.0,0.0,0.0,0.0,0.0,0.0,0.0,0.0,0.0,0.0,0.0,0.0,0.0,0.0,0.0,0.0,0.0,0.0,0.0,0.0,0.0,0.0,0.0,0.0,0.0,0.0,0.0,0.0,0.0,0.0,0.0,0.0,0.0,0.0,0.0,0.0,0.0,0.0,0.0,0.0,0.0,0.0,0.0,0.0,0.0,0.0,0.0,0.0,0.0,0.0,0.0,0.0,0.0,0.0,0.0,0.0,0.0,0.0,0.0,0.0,0.0,0.0,0.0,0.0,0.0,0.0,0.0,0.0,0.0,0.0,0.0,0.0,0.0,0.0,0.0,0.0,0.0,0.0,0.0,0.0,0.0,0.0,0.0,0.0,0.0,0.0,0.0,0.0,0.0,0.0,0.0,0.0,0.0,0.0,0.0,0.0,0.0,0.0,0.0,0.0,-0.6313,0.0,0.0,0.0,0.0,0.0,0.0,0.0,0.0,0.0,0.0,0.0,0.0,0.0,0.0,0.0,0.0,0.0,0.0,0.0,0.0,0.0,0.0,0.0,0.0,0.0,0.0,0.0,0.0,0.0,0.0,0.0,0.0,0.0,0.0,0.0,0.0,0.0,0.0,0.0,0.0,0.0,0.0,0.0,0.0,0.0,0.0,0.0,0.0,0.0,0.0,0.0,0.0,0.0,0.0,0.0,0.0,0.0,0.0,0.0,0.0,0.0,0.0,0.0,0.0,0.0,0.0,0.0,0.0,0.0,0.0,0.0,0.0,0.0,0.0,0.0,0.0,0.0,0.0,0.0,0.0,0.0,0.0,0.0,0.0,0.0,0.0,0.0,0.0,0.0,0.0,0.0,0.0,0.0,0.0,0.0,0.0,0.0,0.0,0.0,0.0,0.0,0.0,0.0,0.0,0.0,0.0,0.0,0.0,0.0,0.0,-0.6761,-0.6316,-0.6295,-0.6124,-0.5766,0.0,0.0,0.0,0.0,0.0,0.0,0.0,0.0,0.0,0.0,0.0,0.0,0.0,0.0,0.0,0.0,0.0,0.0,0.0,0.0,0.0,0.0,0.0,0.0,0.0,0.0,0.0,0.0,0.0,0.0,0.0,0.0,0.0,0.0,0.0,0.0,0.0,0.0,0.0,0.0,0.0,0.0,0.0,0.0,0.0,0.0,0.0,0.0,0.0,0.0,0.0,0.0,0.0,0.0,0.0,0.0,0.0,0.0,0.0,0.0,0.0,0.0,0.0,0.0,0.0,0.0,0.0,0.0,0.0,0.0,0.0,0.0,0.0,0.0,0.0,0.0,0.0,0.0,0.0,0.0,0.0,0.0,0.0,0.0,0.0,0.0,0.0,0.0,0.0,0.0,0.0,0.0,0.0,0.0,0.0,0.0,0.0,0.0,0.0,0.0,0.0,0.0,0.0,0.0,0.0,0.0,0.0,0.0,0.0,0.0,0.0,0.0,-0.5712,-0.5593,-0.5334,0.0,0.0,0.0,0.0,0.0,0.0,0.0,0.0,0.0,0.0,0.0,0.0,0.0,0.0,0.0,0.0,0.0,0.0,0.0,0.0,0.0,0.0,0.0,0.0,0.0,0.0,0.0,0.0,0.0,0.0,0.0,0.0,0.0,0.0,0.0,0.0,0.0,0.0,0.0,0.0,0.0,0.0,0.0,0.0,0.0,0.0,0.0,0.0,0.0,0.0,0.0,0.0,0.0,0.0,0.0,0.0,0.0,0.0,0.0,0.0,0.0,0.0,0.0,0.0,0.0,0.0,0.0,0.0,0.0,0.0,0.0,0.0,0.0,0.0,0.0,0.0,0.0,0.0,0.0,0.0,0.0,0.0,0.0,0.0,0.0,0.0,0.0,0.0,0.0,0.0,0.0,0.0,0.0,0.0,0.0,0.0,0.0,0.0,0.0,0.0,0.0,0.0,0.0,0.0,0.0,0.0,0.0,0.0,0.0,0.0,-0.6176,-0.5807,-0.5739,0.0,-0.591,0.0,0.0,0.0,0.0,0.0,0.0,0.0,0.0,0.0,0.0,0.0,0.0,0.0,0.0,0.0,0.0,0.0,0.0,0.0,0.0,0.0,0.0,0.0,0.0,0.0,0.0,0.0,0.0,0.0,0.0,0.0,0.0,0.0,0.0,0.0,0.0,0.0,0.0,0.0,0.0,0.0,0.0,0.0,0.0,0.0,0.0,0.0,0.0,0.0,0.0,0.0,0.0,0.0,0.0,0.0,0.0,0.0,0.0,0.0,0.0,0.0,0.0,0.0,0.0,0.0,0.0,0.0,0.0,0.0,0.0,0.0,0.0,0.0,0.0,0.0,0.0,0.0,0.0,0.0,0.0,0.0,0.0,0.0,0.0,0.0,0.0,0.0,0.0,0.0,0.0,0.0,0.0,0.0,0.0,0.0,0.0,0.0,0.0,0.0,0.0,0.0,0.0,0.0,0.0,0.0,0.0,0.0,0.0,0.0,0.0,-0.569,-0.5151,-0.5296,-0.5373,0.0,0.0,0.0,0.0,0.0,0.0,0.0,0.0,0.0,0.0,0.0,0.0,0.0,0.0,0.0,0.0,0.0,0.0,0.0,0.0,0.0,0.0,0.0,0.0,0.0,0.0,0.0,0.0,0.0,0.0,0.0,0.0,0.0,0.0,0.0,0.0,0.0,0.0,0.0,0.0,0.0,0.0,0.0,0.0,0.0,0.0,0.0,0.0,0.0,0.0,0.0,0.0,0.0,0.0,0.0,0.0,0.0,0.0,0.0,0.0,0.0,0.0,0.0,0.0,0.0,0.0,0.0,0.0,0.0,0.0,0.0,0.0,0.0,0.0,0.0,0.0,0.0,0.0,0.0,0.0,0.0,0.0,0.0,0.0,0.0,0.0,0.0,0.0,0.0,0.0,0.0,0.0,0.0,0.0,0.0,0.0,0.0,0.0,0.0,0.0,0.0,0.0,0.0,0.0,0.0,0.0,0.0,0.0,0.0,0.0,-0.563,-0.5186,-0.4679,-0.4979,-0.512,-0.5041,0.0,0.0,0.0,0.0,0.0,0.0,0.0,0.0,0.0,0.0,0.0,0.0,0.0,0.0,0.0,0.0,0.0,0.0,0.0,0.0,0.0,0.0,0.0,0.0,0.0,0.0,0.0,0.0,0.0,0.0,0.0,0.0,0.0,0.0,0.0,0.0,0.0,0.0,0.0,0.0,0.0,0.0,0.0,0.0,0.0,0.0,0.0,0.0,0.0,0.0,0.0,0.0,0.0,0.0,0.0,0.0,0.0,0.0,0.0,0.0,0.0,0.0,0.0,0.0,0.0,0.0,0.0,0.0,0.0,0.0,0.0,0.0,0.0,0.0,0.0,0.0,0.0,0.0,0.0,0.0,0.0,0.0,0.0,0.0,0.0,0.0,0.0,0.0,0.0,0.0,0.0,0.0,0.0,0.0,0.0,0.0,0.0,0.0,0.0,0.0,0.0,0.0,0.0,0.0,0.0,0.0,0.0,0.0,-0.5316,-0.5024,-0.4709,-0.4423,-0.4982,-0.5125,0.0,0.0,0.0,0.0,0.0,0.0,0.0,0.0,0.0,0.0,0.0,0.0,0.0,0.0,0.0,0.0,0.0,0.0,0.0,0.0,0.0,0.0,0.0,0.0,0.0,0.0,0.0,0.0,0.0,0.0,0.0,0.0,0.0,0.0,0.0,0.0,0.0,0.0,0.0,0.0,0.0,0.0,0.0,0.0,0.0,0.0,0.0,0.0,0.0,0.0,0.0,0.0,0.0,0.0,0.0,0.0,0.0,0.0,0.0,0.0,0.0,0.0,0.0,0.0,0.0,0.0,0.0,0.0,0.0,0.0,0.0,0.0,0.0,0.0,0.0,0.0,0.0,0.0,0.0,0.0,0.0,0.0,0.0,0.0,0.0,0.0,0.0,0.0,0.0,0.0,0.0,0.0,0.0,0.0,0.0,0.0,0.0,0.0,0.0,0.0,0.0,0.0,0.0,0.0,0.0,0.0,0.0,0.0,0.0,-0.4578,-0.4318,-0.4197,-0.4281,-0.4563,-0.4759,0.0,0.0,0.0,0.0,0.0,0.0,0.0,0.0,0.0,0.0,0.0,0.0,0.0,0.0,0.0,0.0,0.0,0.0,0.0,0.0,0.0,0.0,0.0,0.0,0.0,0.0,0.0,0.0,0.0,0.0,0.0,0.0,0.0,0.0,0.0,0.0,0.0,0.0,0.0,0.0,0.0,0.0,0.0,0.0,0.0,0.0,0.0,0.0,0.0,0.0,0.0,0.0,0.0,0.0,0.0,0.0,0.0,0.0,0.0,0.0,0.0,0.0,0.0,0.0,0.0,0.0,0.0,0.0,0.0,0.0,0.0,0.0,0.0,0.0,0.0,0.0,0.0,0.0,0.0,0.0,0.0,0.0,0.0,0.0,0.0,0.0,0.0,0.0,0.0,0.0,0.0,0.0,0.0,0.0,0.0,0.0,0.0,0.0,0.0,0.0,0.0,0.0,0.0,0.0,0.0,0.0,0.0,0.0,0.0,-0.4038,0.0,-0.4041,-0.4203,-0.4562,-0.477,0.0,0.0,0.0,0.0,0.0,0.0,0.0,0.0,0.0,0.0,0.0,0.0,0.0,0.0,0.0,0.0,0.0,0.0,0.0,0.0,0.0,0.0,0.0,0.0,0.0,0.0,0.0,0.0,0.0,0.0,0.0,0.0,0.0,0.0,0.0,0.0,0.0,0.0,0.0,0.0,0.0,0.0,0.0,0.0,0.0,0.0,0.0,0.0,0.0,0.0,0.0,0.0,0.0,0.0,0.0,0.0,0.0,0.0,0.0,0.0,0.0,0.0,0.0,0.0,0.0,0.0,0.0,0.0,0.0,0.0,0.0,0.0,0.0,0.0,0.0,0.0,0.0,0.0,0.0,0.0,0.0,0.0,0.0,0.0,0.0,0.0,0.0,0.0,0.0,0.0,0.0,0.0,0.0,0.0,0.0,0.0,0.0,0.0,0.0,0.0,0.0,0.0,0.0,0.0,0.0,0.0,0.0,0.0,-0.3475,-0.3791,-0.4051,-0.4198,-0.4212,-0.4982,-0.5174,0.0,0.0,0.0,0.0,0.0,0.0,0.0,0.0,0.0,0.0,0.0,0.0,0.0,0.0,0.0,0.0,0.0,0.0,0.0,0.0,0.0,0.0,0.0,0.0,0.0,0.0,0.0,0.0,0.0,0.0,0.0,0.0,0.0,0.0,0.0,0.0,0.0,0.0,0.0,0.0,0.0,0.0,0.0,0.0,0.0,0.0,0.0,0.0,0.0,0.0,0.0,0.0,0.0,0.0,0.0,0.0,0.0,0.0,0.0,0.0,0.0,0.0,0.0,0.0,0.0,0.0,0.0,0.0,0.0,0.0,0.0,0.0,0.0,0.0,0.0,0.0,0.0,0.0,0.0,0.0,0.0,0.0,0.0,0.0,0.0,0.0,0.0,0.0,0.0,0.0,0.0,0.0,0.0,0.0,0.0,0.0,0.0,0.0,0.0,0.0,0.0,0.0,0.0,0.0,0.0,0.0,0.0,0.0,0.0,-0.3808,-0.3964,-0.417,-0.4386,-0.4487,-0.4666,0.0,0.0,0.0,0.0,0.0,0.0,0.0,0.0,0.0,0.0,0.0,0.0,0.0,0.0,0.0,0.0,0.0,0.0,0.0,0.0,0.0,0.0,0.0,0.0,0.0,0.0,0.0,0.0,0.0,0.0,0.0,0.0,0.0,0.0,0.0,0.0,0.0,0.0,0.0,0.0,0.0,0.0,0.0,0.0,0.0,0.0,0.0,0.0,0.0,0.0,0.0,0.0,0.0,0.0,0.0,0.0,0.0,0.0,0.0,0.0,0.0,0.0,0.0,0.0,0.0,0.0,0.0,0.0,0.0,0.0,0.0,0.0,0.0,0.0,0.0,0.0,0.0,0.0,0.0,0.0,0.0,0.0,0.0,0.0,0.0,0.0,0.0,0.0,0.0,0.0,0.0,0.0,0.0,0.0,0.0,0.0,0.0,0.0,0.0,0.0,0.0,0.0,0.0,0.0,0.0,0.0,0.0,0.0,0.0,-0.4117,-0.4219,-0.4331,-0.4487,-0.4546,-0.4746,-0.5091,0.0,0.0,0.0,0.0,0.0,0.0,0.0,0.0,0.0,0.0,0.0,0.0,0.0,0.0,0.0,0.0,0.0,0.0,0.0,0.0,0.0,0.0,0.0,0.0,0.0,0.0,0.0,0.0,0.0,0.0,0.0,0.0,0.0,0.0,0.0,0.0,0.0,0.0,0.0,0.0,0.0,0.0,0.0,0.0,0.0,0.0,0.0,0.0,0.0,0.0,0.0,0.0,0.0,0.0,0.0,0.0,0.0,0.0,0.0,0.0,0.0,0.0,0.0,0.0,0.0,0.0,0.0,0.0,0.0,0.0,0.0,0.0,0.0,0.0,0.0,0.0,0.0,0.0,0.0,0.0,0.0,0.0,0.0,0.0,0.0,0.0,0.0,0.0,0.0,0.0,0.0,0.0,0.0,0.0,0.0,0.0,0.0,0.0,0.0,0.0,0.0,0.0,0.0,0.0,0.0,0.0,0.0,0.0,-0.4687,-0.4714,-0.4689,-0.458,-0.5105,-0.5306,0.0,0.0,0.0,0.0,0.0,0.0,0.0,0.0,0.0,0.0,0.0,0.0,0.0,0.0,0.0,0.0,0.0,0.0,0.0,0.0,0.0,0.0,0.0,0.0,0.0,0.0,0.0,0.0,0.0,0.0,0.0,0.0,0.0,0.0,0.0,0.0,0.0,0.0,0.0,0.0,0.0,0.0,0.0,0.0,0.0,0.0,0.0,0.0,0.0,0.0,0.0,0.0,0.0,0.0,0.0,0.0,0.0,0.0,0.0,0.0,0.0,0.0,0.0,0.0,0.0,0.0,0.0,0.0,0.0,0.0,0.0,0.0,0.0,0.0,0.0,0.0,0.0,0.0,0.0,0.0,0.0,0.0,0.0,0.0,0.0,0.0,0.0,0.0,0.0,0.0,0.0,0.0,0.0,0.0,0.0,0.0,0.0,0.0,0.0,0.0,0.0,0.0,0.0,0.0,0.0,0.0,0.0,0.0,0.0,-0.468,-0.5044,-0.5201,-0.5174,-0.5262,-0.5415,0.0,0.0,0.0,0.0,0.0,0.0,0.0,0.0,0.0,0.0,0.0,0.0,0.0,0.0,0.0,0.0,0.0,0.0,0.0,0.0,0.0,0.0,0.0,0.0,0.0,0.0,0.0,0.0,0.0,0.0,0.0,0.0,0.0,0.0,0.0,0.0,0.0,0.0,0.0,0.0,0.0,0.0,0.0,0.0,0.0,0.0,0.0,0.0,0.0,0.0,0.0,0.0,0.0,0.0,0.0,0.0,0.0,0.0,0.0,0.0,0.0,0.0,0.0,0.0,0.0,0.0,0.0,0.0,0.0,0.0,0.0,0.0,0.0,0.0,0.0,0.0,0.0,0.0,0.0,0.0,0.0,0.0,0.0,0.0,0.0,0.0,0.0,0.0,0.0,0.0,0.0,0.0,0.0,0.0,0.0,0.0,0.0,0.0,0.0,0.0,0.0,0.0,0.0,0.0,0.0,0.0,0.0,0.0,-0.4291,-0.4719,-0.5219,-0.5449,-0.5446,-0.5491,-0.5532,0.0,0.0,0.0,0.0,0.0,0.0,0.0,0.0,0.0,0.0,0.0,0.0,0.0,0.0,0.0,0.0,0.0,0.0,0.0,0.0,0.0,0.0,0.0,0.0,0.0,0.0,0.0,0.0,0.0,0.0,0.0,0.0,0.0,0.0,0.0,0.0,0.0,0.0,0.0,0.0,0.0,0.0,0.0,0.0,0.0,0.0,0.0,0.0,0.0,0.0,0.0,0.0,0.0,0.0,0.0,0.0,0.0,0.0,0.0,0.0,0.0,0.0,0.0,0.0,0.0,0.0,0.0,0.0,0.0,0.0,0.0,0.0,0.0,0.0,0.0,0.0,0.0,0.0,0.0,0.0,0.0,0.0,0.0,0.0,0.0,0.0,0.0,0.0,0.0,0.0,0.0,0.0,0.0,0.0,0.0,0.0,0.0,0.0,0.0,0.0,0.0,0.0,0.0,0.0,0.0,0.0,0.0,0.0,-0.442,-0.4785,-0.5234,-0.5483,-0.5509,-0.5701,-0.5653,0.0,0.0,0.0,0.0,0.0,0.0,0.0,0.0,0.0,0.0,0.0,0.0,0.0,0.0,0.0,0.0,0.0,0.0,0.0,0.0,0.0,0.0,0.0,0.0,0.0,0.0,0.0,0.0,0.0,0.0,0.0,0.0,0.0,0.0,0.0,0.0,0.0,0.0,0.0,0.0,0.0,0.0,0.0,0.0,0.0,0.0,0.0,0.0,0.0,0.0,0.0,0.0,0.0,0.0,0.0,0.0,0.0,0.0,0.0,0.0,0.0,0.0,0.0,0.0,0.0,0.0,0.0,0.0,0.0,0.0,0.0,0.0,0.0,0.0,0.0,0.0,0.0,0.0,0.0,0.0,0.0,0.0,0.0,0.0,0.0,0.0,0.0,0.0,0.0,0.0,0.0,0.0,0.0,0.0,0.0,0.0,0.0,0.0,0.0,0.0,0.0,0.0,0.0,0.0,0.0,0.0,0.0,0.0,-0.4511,-0.4788,-0.509,-0.5336,-0.5483,-0.5704,-0.5796,0.0,0.0,0.0,0.0,0.0,0.0,0.0,0.0,0.0,0.0,0.0,0.0,0.0,0.0,0.0,0.0,0.0,0.0,0.0,0.0,0.0,0.0,0.0,0.0,0.0,0.0,0.0,0.0,0.0,0.0,0.0,0.0,0.0,0.0,0.0,0.0,0.0,0.0,0.0,0.0,0.0,0.0,0.0,0.0,0.0,0.0,0.0,0.0,-0.2976,0.0,0.0,0.0,0.0,0.0,0.0,0.0,0.0,0.0,0.0,0.0,0.0,0.0,0.0,0.0,0.0,0.0,0.0,0.0,0.0,0.0,0.0,0.0,0.0,0.0,0.0,0.0,0.0,0.0,0.0,0.0,0.0,0.0,0.0,0.0,0.0,0.0,0.0,0.0,0.0,0.0,0.0,0.0,0.0,0.0,0.0,0.0,0.0,0.0,0.0,0.0,0.0,0.0,0.0,0.0,0.0,0.0,0.0,0.0,-0.4296,-0.4553,-0.4859,-0.5101,-0.5236,-0.5269,-0.5384,0.0,0.0,0.0,0.0,0.0,0.0,0.0,0.0,0.0,0.0,0.0,0.0,0.0,0.0,0.0,0.0,0.0,0.0,0.0,0.0,0.0,0.0,0.0,0.0,0.0,0.0,0.0,0.0,0.0,0.0,0.0,0.0,0.0,0.0,0.0,0.0,0.0,0.0,0.0,0.0,0.0,0.0,0.0,0.0,0.0,0.0,0.0,0.0,0.0,0.0,0.0,0.0,0.0,0.0,0.0,0.0,0.0,0.0,0.0,0.0,0.0,0.0,0.0,0.0,0.0,0.0,0.0,0.0,0.0,0.0,0.0,0.0,0.0,0.0,0.0,0.0,0.0,0.0,0.0,0.0,0.0,0.0,0.0,0.0,0.0,0.0,0.0,0.0,0.0,0.0,0.0,0.0,0.0,0.0,0.0,0.0,0.0,0.0,0.0,0.0,0.0,0.0,0.0,0.0,0.0,0.0,0.0,-0.3828,-0.4064,-0.4345,-0.4594,-0.4789,-0.4859,-0.4695,-0.4796,-0.5119,0.0,0.0,0.0,0.0,0.0,0.0,0.0,0.0,0.0,0.0,0.0,0.0,0.0,0.0,0.0,0.0,0.0,0.0,0.0,0.0,0.0,0.0,0.0,0.0,0.0,0.0,0.0,0.0,0.0,0.0,0.0,0.0,0.0,0.0,0.0,0.0,0.0,0.0,-0.3767,-0.3589,0.0,0.0,0.0,0.0,0.0,0.0,0.0,0.0,-0.3148,0.0,0.0,0.0,0.0,0.0,0.0,0.0,0.0,0.0,0.0,0.0,0.0,0.0,0.0,0.0,0.0,0.0,0.0,0.0,0.0,0.0,0.0,0.0,0.0,0.0,0.0,0.0,0.0,0.0,0.0,0.0,0.0,0.0,0.0,0.0,0.0,0.0,0.0,0.0,0.0,0.0,0.0,0.0,0.0,0.0,0.0,0.0,0.0,0.0,0.0,0.0,0.0,0.0,0.0,0.0,0.0,-0.4059,-0.4137,-0.4229,-0.4462,-0.453,-0.4474,-0.4335,-0.4493,-0.4593,-0.4532,0.0,0.0,0.0,0.0,0.0,0.0,0.0,0.0,0.0,0.0,0.0,0.0,0.0,0.0,0.0,0.0,0.0,0.0,0.0,0.0,0.0,0.0,0.0,0.0,0.0,0.0,0.0,0.0,0.0,0.0,0.0,0.0,0.0,0.0,0.0,0.0,0.0,0.0,0.0,-0.3764,-0.3624,0.0,0.0,0.0,0.0,0.0,0.0,0.0,0.0,-0.3215,0.0,0.0,0.0,0.0,0.0,0.0,0.0,0.0,0.0,0.0,0.0,0.0,0.0,0.0,0.0,0.0,0.0,0.0,0.0,0.0,0.0,0.0,0.0,0.0,0.0,0.0,0.0,0.0,0.0,0.0,0.0,0.0,0.0,0.0,0.0,0.0,0.0,0.0,0.0,0.0,0.0,0.0,0.0,0.0,0.0,0.0,0.0,0.0,0.0,0.0,0.0,0.0,0.0,0.0,0.0,-0.373,-0.3577,-0.3575,-0.3825,-0.3835,-0.3835,-0.383,-0.3727,-0.3906,0.0,0.0,0.0,0.0,0.0,0.0,0.0,0.0,0.0,0.0,0.0,0.0,0.0,0.0,0.0,0.0,0.0,0.0,0.0,0.0,0.0,0.0,0.0,0.0,0.0,0.0,0.0,0.0,0.0,0.0,0.0,0.0,0.0,0.0,0.0,0.0,0.0,0.0,0.0,0.0,-0.3901,-0.3837,-0.3904,0.0,0.0,0.0,0.0,0.0,0.0,-0.3531,-0.3423,0.0,0.0,0.0,0.0,0.0,0.0,0.0,0.0,0.0,0.0,0.0,0.0,0.0,0.0,0.0,0.0,0.0,0.0,0.0,0.0,0.0,0.0,0.0,0.0,0.0,0.0,0.0,0.0,0.0,0.0,0.0,0.0,0.0,0.0,0.0,0.0,0.0,0.0,0.0,0.0,0.0,0.0,0.0,0.0,0.0,0.0,0.0,0.0,0.0,0.0,0.0,0.0,0.0,0.0,0.0,-0.3182,-0.2893,-0.2889,-0.3153,-0.3192,-0.3224,-0.328,-0.295,-0.3145,0.0,0.0,0.0,0.0,0.0,0.0,0.0,0.0,0.0,0.0,0.0,0.0,0.0,0.0,0.0,0.0,0.0,0.0,0.0,0.0,0.0,0.0,0.0,0.0,0.0,0.0,0.0,0.0,0.0,0.0,0.0,0.0,0.0,0.0,0.0,0.0,0.0,0.0,0.0,0.0,0.0,-0.4073,-0.4035,-0.3795,0.0,0.0,0.0,0.0,-0.376,-0.3724,0.0,0.0,0.0,0.0,0.0,0.0,0.0,0.0,0.0,0.0,0.0,0.0,0.0,0.0,0.0,0.0,0.0,0.0,0.0,0.0,0.0,0.0,0.0,0.0,0.0,0.0,0.0,0.0,0.0,0.0,0.0,0.0,0.0,0.0,0.0,0.0,0.0,0.0,0.0,0.0,0.0,0.0,0.0,0.0,0.0,0.0,0.0,0.0,0.0,0.0,0.0,0.0,0.0,0.0,0.0,0.0,-0.2675,-0.2565,-0.267,-0.3013,-0.3125,-0.2989,-0.2547,-0.253,-0.2619,0.0,0.0,0.0,0.0,0.0,0.0,0.0,0.0,0.0,0.0,0.0,0.0,0.0,0.0,0.0,0.0,0.0,0.0,0.0,0.0,0.0,0.0,0.0,0.0,0.0,0.0,0.0,0.0,0.0,0.0,0.0,0.0,0.0,0.0,0.0,0.0,0.0,0.0,0.0,0.0,0.0,-0.4388,-0.4209,-0.3929,-0.3785,0.0,0.0,-0.3937,-0.3969,-0.407,0.0,0.0,0.0,0.0,0.0,0.0,0.0,0.0,0.0,0.0,0.0,0.0,0.0,0.0,0.0,0.0,0.0,0.0,0.0,0.0,0.0,0.0,0.0,0.0,0.0,0.0,0.0,0.0,0.0,0.0,0.0,0.0,0.0,0.0,0.0,0.0,0.0,0.0,0.0,0.0,0.0,0.0,0.0,0.0,0.0,0.0,0.0,0.0,0.0,0.0,0.0,0.0,0.0,0.0,0.0,-0.1712,-0.2105,-0.1732,-0.1671,-0.1913,-0.1982,-0.1915,-0.1679,-0.163,-0.177,0.0,0.0,0.0,0.0,0.0,0.0,0.0,0.0,0.0,0.0,0.0,0.0,0.0,0.0,0.0,0.0,0.0,0.0,0.0,0.0,0.0,0.0,0.0,0.0,0.0,0.0,0.0,0.0,0.0,0.0,0.0,0.0,0.0,0.0,0.0,0.0,0.0,0.0,0.0,0.0,0.0,0.0,-0.4235,-0.41,0.0,0.0,0.0,-0.4261,-0.4243,0.0,0.0,0.0,0.0,0.0,0.0,0.0,0.0,0.0,0.0,0.0,0.0,0.0,0.0,0.0,0.0,0.0,0.0,0.0,0.0,0.0,0.0,0.0,0.0,0.0,0.0,0.0,0.0,0.0,0.0,0.0,0.0,0.0,0.0,0.0,0.0,0.0,0.0,0.0,0.0,0.0,0.0,0.0,0.0,0.0,0.0,0.0,0.0,0.0,0.0,0.0,0.0,0.0,0.0,0.0,0.0,0.0,-0.149,-0.0999,-0.0806,-0.1008,-0.1076,-0.1076,-0.1006,-0.089,0.0,0.0,0.0,0.0,0.0,0.0,0.0,0.0,0.0,0.0,0.0,0.0,0.0,0.0,0.0,0.0,0.0,0.0,0.0,0.0,0.0,0.0,0.0,0.0,0.0,0.0,0.0,-0.4276,0.0,0.0,0.0,0.0,0.0,0.0,0.0,0.0,0.0,0.0,0.0,0.0,0.0,0.0,-0.4416,-0.4174,-0.4151,-0.4261,0.0,0.0,-0.4412,-0.4422,-0.4514,-0.4415,0.0,0.0,0.0,0.0,0.0,0.0,0.0,0.0,0.0,0.0,0.0,0.0,0.0,0.0,0.0,0.0,0.0,0.0,0.0,0.0,0.0,0.0,0.0,0.0,0.0,0.0,0.0,0.0,0.0,0.0,0.0,0.0,0.0,0.0,0.0,0.0,0.0,0.0,0.0,0.0,0.0,0.0,0.0,0.0,0.0,0.0,0.0,0.0,0.0,0.0,0.0,0.0,0.0,0.0,0.0,-0.0749,-0.0593,-0.0605,-0.0806,-0.1008,-0.1008,-0.0806,-0.0618,-0.0878,0.0,0.0,0.0,0.0,0.0,0.0,0.0,0.0,0.0,0.0,0.0,0.0,0.0,0.0,0.0,0.0,0.0,0.0,0.0,0.0,0.0,0.0,0.0,0.0,0.0,0.0,0.0,0.0,0.0,0.0,0.0,0.0,0.0,0.0,0.0,0.0,0.0,0.0,0.0,0.0,0.0,-0.4507,-0.4075,-0.4009,-0.4107,0.0,0.0,-0.4294,-0.4464,-0.4687,-0.4719,-0.423,0.0,0.0,0.0,0.0,0.0,0.0,0.0,0.0,0.0,0.0,0.0,0.0,0.0,0.0,0.0,0.0,0.0,0.0,0.0,0.0,0.0,0.0,0.0,0.0,0.0,0.0,0.0,0.0,0.0,0.0,0.0,0.0,0.0,0.0,0.0,0.0,0.0,0.0,0.0,0.0,0.0,0.0,0.0,0.0,0.0,0.0,0.0,0.0,0.0,0.0,0.0,0.0,0.0,-0.0436,-0.0506,-0.0281,-0.0236,-0.0303,-0.037,-0.0303,-0.0135,-0.0164,-0.0335,0.0,0.0,0.0,0.0,0.0,0.0,0.0,0.0,0.0,0.0,0.0,0.0,0.0,0.0,0.0,0.0,0.0,0.0,0.0,0.0,0.0,0.0,0.0,0.0,0.0,0.0,0.0,0.0,-0.3444,-0.355,-0.3648,0.0,0.0,0.0,0.0,0.0,0.0,0.0,0.0,0.0,0.0,-0.3652,-0.3309,-0.3532,0.0,0.0,-0.4275,-0.4456,-0.4428,-0.4519,-0.444,-0.4019,-0.3961,0.0,0.0,0.0,0.0,0.0,0.0,0.0,0.0,0.0,0.0,0.0,0.0,0.0,0.0,0.0,0.0,0.0,0.0,0.0,0.0,0.0,0.0,0.0,0.0,0.0,0.0,0.0,0.0,0.0,0.0,0.0,0.0,0.0,0.0,0.0,0.0,0.0,0.0,0.0,0.0,0.0,0.0,0.0,0.0,0.0,0.0,0.0,0.0,0.0,0.0,0.0,0.0,-0.0206,-0.0189,0.0031,0.0135,0.0135,0.0169,0.0202,0.0371,0.0231,0.0093,0.0,0.0,0.0,0.0,0.0,0.0,0.0,0.0,0.0,0.0,0.0,0.0,0.0,0.0,0.0,0.0,0.0,0.0,0.0,0.0,0.0,0.0,0.0,0.0,0.0,0.0,0.0,0.0,-0.2899,-0.3019,-0.3218,0.0,0.0,0.0,0.0,0.0,0.0,0.0,0.0,0.0,0.0,-0.2952,-0.2879,-0.3208,-0.3563,-0.3859,-0.4372,-0.4605,-0.4353,-0.4487,-0.4391,-0.3653,0.0,0.0,0.0,0.0,0.0,0.0,0.0,0.0,0.0,0.0,0.0,0.0,0.0,0.0,0.0,0.0,0.0,0.0,0.0,0.0,0.0,0.0,0.0,0.0,0.0,0.0,0.0,0.0,0.0,0.0,0.1116,0.0,0.0,0.0,0.0,0.0,0.0,0.0,0.0,0.0,0.0,0.0,0.0,0.0,0.0,0.0,0.0,0.0,0.0,0.0,0.0,0.0,0.0,0.0287,0.028,0.0413,0.0472,0.0472,0.0472,0.0506,0.0539,0.0505,0.0388,0.0118,0.0,0.0,0.0,0.0,0.0,0.0,0.0,0.0,0.0,0.0,0.0,0.0,0.0,0.0,0.0,0.0,0.0,0.0,0.0,0.0,0.0,0.0,0.0,0.0,0.0,0.0,-0.2158,-0.2415,-0.2631,0.0,0.0,0.0,0.0,0.0,0.0,0.0,0.0,0.0,0.0,-0.2469,-0.2634,-0.2924,-0.3049,-0.3357,-0.4042,-0.4561,-0.4704,-0.4151,-0.4624,-0.4615,0.0,0.0,0.0,0.0,0.0,0.0,0.0,0.0,0.0,0.0,0.0,0.0,0.0,0.0,0.0,0.0,0.0,0.0,0.0,0.0,0.0,0.0,0.0,0.0,0.0,0.0,0.0,0.2275,0.2236,0.0,0.0,0.0,0.0,0.0,0.0,0.0,0.0,0.0,0.0,0.0,0.3299,0.2976,0.0,0.0,0.0,0.0,0.0,0.0,0.0,0.0,0.0,0.0,0.0,0.0,0.0314,0.0366,0.0445,0.0472,0.0472,0.0472,0.0741,0.1212,0.111,0.1162,0.1416,0.0,0.0,0.0,0.0,0.0,0.0,0.0,0.0,0.0,0.0,0.0,0.0,0.0,0.0,0.0,0.0,0.0,0.0,0.0,0.0,0.0,0.0,0.0,0.0,0.0,-0.2185,0.0,0.0,0.0,0.0,0.0,0.0,0.0,0.0,0.0,0.0,0.0,-0.2667,-0.2373,-0.2546,-0.266,-0.2566,-0.2875,-0.3098,0.0,0.0,0.0,0.0,0.0,0.0,0.0,0.0,0.0,0.0,0.0,0.0,0.0,0.0,-0.3013,-0.3224,-0.3443,-0.3604,-0.3815,0.0,0.0,0.0,0.0,0.0,0.0,0.0,0.0,0.0,0.0,0.0,0.0,0.0,0.0,0.314,0.0,0.3115,0.0,0.0,0.0,0.0,0.0,0.0,0.0,0.0,0.3282,0.3629,0.4162,0.39,0.3667,0.0,0.3095,0.2533,0.0,0.0,0.0,0.0,0.0,0.0,0.0,0.0,0.0798,0.0828,0.1117,0.1278,0.1279,0.1279,0.148,0.1949,0.1848,0.1987,0.2343,0.2163,0.2073,0.0,0.0,0.0,0.0,0.0,0.0,0.0,0.0,0.0,0.0,0.0,0.0,0.0,0.0,0.0,0.0,0.0,0.0,0.0,0.0,0.0,0.0,0.0,-0.1826,0.0,0.0,0.0,0.0,0.0,0.0,0.0,0.0,0.0,-0.2244,-0.2407,-0.2435,-0.2276,-0.2323,-0.246,-0.254,0.0,0.0,0.0,0.0,0.0,0.0,0.0,-0.3536,-0.3145,-0.2928,-0.2757,-0.2624,-0.257,-0.2514,-0.246,0.0,0.0,-0.3153,-0.3373,-0.3573,-0.3643,-0.359,-0.357,-0.372,-0.3571,-0.3442,0.0,0.0,0.0,0.0,0.0,0.0,0.0,0.0,0.4866,0.4588,0.0,0.4247,0.0,0.0,0.0,0.0,0.0,0.2882,0.0,0.0,0.502,0.5303,0.5246,0.4729,0.4448,0.441,0.3704,0.3535,0.3695,0.2842,0.0,0.0,0.0,0.0,0.0,0.0,0.1679,0.1649,0.2315,0.2686,0.2653,0.2653,0.272,0.272,0.2753,0.2816,0.2965,0.2689,0.2632,0.2914,0.194,0.0,0.0,0.0,0.0,0.0,0.0,0.0,0.0,0.0,0.0,0.0,0.0,0.0,0.0,0.0,0.0,0.0,0.0,0.0,0.0,-0.1159,0.0,0.0,0.0,0.0,0.0,0.0,0.0,0.0,0.0,0.0,-0.2281,-0.2358,-0.2292,-0.2175,0.0,0.0,0.0,0.0,-0.2621,-0.3411,-0.4036,-0.4165,-0.3428,-0.3548,-0.3357,-0.2285,0.0,0.0,-0.1703,-0.176,-0.1864,-0.1973,-0.1991,-0.2093,-0.2596,-0.2945,-0.3214,-0.3466,-0.3306,-0.3315,-0.3652,-0.3426,-0.3253,0.4188,0.0,0.0,0.0,0.0,0.3949,0.4466,0.5246,0.511,0.5007,0.4947,0.4851,0.0,0.0,0.0,0.0,0.0,0.0,0.3967,0.4752,0.4941,0.5291,0.5759,0.556,0.5442,0.5386,0.502,0.491,0.4982,0.4697,0.3812,0.2339,0.0,0.0,0.0,0.0,0.185,0.2306,0.2565,0.2686,0.2686,0.2686,0.2954,0.3491,0.3856,0.411,0.4243,0.4175,0.3977,0.369,0.3408,0.0,0.0,0.0,0.0,0.0,0.0,0.0,0.0,0.0,0.0,0.0,0.0,0.0,0.0,0.0,0.0,0.0,0.0,0.0,-0.0922,-0.0565,-0.0534,0.0,0.0,0.0,0.0,0.0,0.0,0.0,0.0,0.0,-0.161,-0.2322,-0.279,0.0,0.0,-0.3131,-0.3388,-0.3065,-0.2775,-0.2669,-0.2819,0.0,-0.226,-0.242,-0.2506,-0.2276,-0.1938,-0.1703,-0.172,-0.1787,-0.1825,-0.1759,-0.2009,-0.2283,-0.2317,-0.242,-0.2533,-0.2585,-0.273,-0.291,-0.3187,-0.3387,-0.3639,0.5785,0.5579,0.4851,0.4637,0.4822,0.4822,0.5246,0.5906,0.5783,0.5745,0.5767,0.5697,0.5308,0.4652,0.4366,0.0,0.0,0.0,0.4806,0.5536,0.5585,0.5829,0.6172,0.6178,0.6106,0.597,0.5777,0.5705,0.5819,0.5368,0.4583,0.3445,0.0,0.0,0.2401,0.2573,0.2821,0.312,0.3467,0.3628,0.3556,0.3556,0.3756,0.4192,0.4528,0.4728,0.4794,0.4794,0.4652,0.4319,0.41,0.3738,0.0,0.0,0.0,0.0,0.0,0.0,0.0,0.0,0.0,0.0,0.0,0.033,0.0056,0.0,0.0,0.0,-0.0129,-0.0333,-0.0324,-0.0119,0.0,0.0,0.0,0.0,0.0,0.0,0.0,-0.1194,-0.1279,-0.1376,-0.1493,-0.2156,-0.2615,-0.2495,-0.2699,-0.2895,-0.3063,0.0,-0.2446,-0.231,-0.2282,-0.2233,-0.1989,-0.1923,-0.1913,-0.1842,-0.1618,-0.1474,-0.1476,-0.1529,-0.1546,-0.1479,-0.168,-0.188,-0.1782,-0.1748,-0.1884,-0.2119,-0.2354,-0.2554,-0.2721,-0.3021,-0.3286,0.709,0.7667,0.5918,0.5465,0.5909,0.595,0.6264,0.6749,0.6742,0.6651,0.6522,0.6644,0.6471,0.6037,0.5341,0.0,0.5509,0.5509,0.5913,0.6698,0.6702,0.6627,0.6535,0.6532,0.6457,0.6317,0.6077,0.607,0.6247,0.5238,0.4759,0.4801,0.4682,0.4129,0.3261,0.3903,0.4151,0.3871,0.4674,0.4987,0.4849,0.4822,0.4822,0.4849,0.4846,0.484,0.4831,0.4864,0.4831,0.4815,0.4378,0.403,0.3875,0.0,0.0,0.0,0.0,0.0,0.0,0.0,0.0,0.0,0.0,0.0,0.0,0.0,0.0,0.0,0.0671,0.0,0.0428,0.026,0.0,0.0,0.0,-0.0516,-0.0322,-0.037,-0.0621,-0.115,0.0,0.0,-0.1546,-0.1824,-0.1909,-0.1643,-0.1674,-0.1875,-0.2259,-0.1988,-0.185,-0.2177,-0.2203,-0.2206,-0.2069,-0.1845,-0.1527,-0.1232,-0.1109,-0.1107,-0.1107,-0.1109,-0.1109,-0.1109,-0.1109,-0.1109,-0.1109,-0.1143,-0.1311,-0.1951,-0.2119,-0.2186,-0.2351,-0.2417,-0.2551,0.8084,0.8143,0.7693,0.7375,0.72,0.7151,0.7195,0.72,0.7088,0.6913,0.6817,0.6736,0.6641,0.6539,0.6341,0.6323,0.6389,0.6392,0.6507,0.6698,0.6702,0.6681,0.6644,0.6644,0.6607,0.647,0.6377,0.6327,0.63,0.6033,0.579,0.5545,0.5499,0.4671,0.3134,0.3701,0.3904,0.374,0.4501,0.491,0.5011,0.5151,0.5192,0.5192,0.5186,0.5203,0.5266,0.5263,0.5263,0.5259,0.5127,0.4923,0.464,0.3812,0.0,0.0,0.0,0.0,0.0,0.0,0.0,0.0,0.0,0.1131,0.065,0.0,0.0913,0.0,0.1199,0.12,0.0748,0.0972,0.0,0.0,0.0503,0.0364,0.0683,0.0453,0.0305,0.0488,0.0188,-0.0096,-0.0191,-0.0637,-0.0902,-0.0829,-0.1571,-0.2174,-0.2285,-0.196,-0.1736,-0.1791,-0.159,-0.1383,-0.1415,-0.1325,-0.12,-0.1108,-0.1109,-0.1109,-0.1109,-0.1109,-0.1109,-0.1109,-0.1109,-0.1109,-0.1109,-0.1109,-0.1143,-0.1344,-0.1547,-0.1782,-0.1983,-0.2217,-0.245,0.8272,0.8462,0.8394,0.8234,0.7889,0.79,0.7849,0.783,0.7833,0.7878,0.7927,0.7837,0.7796,0.7789,0.7722,0.7688,0.7685,0.761,0.7534,0.7534,0.7534,0.7412,0.7091,0.7301,0.7217,0.6935,0.7097,0.7137,0.6952,0.6984,0.6777,0.6415,0.6263,0.5479,0.4229,0.4495,0.4577,0.4397,0.4891,0.5223,0.5425,0.5474,0.5489,0.5355,0.5345,0.5286,0.5172,0.5132,0.5095,0.5095,0.503,0.4947,0.4769,0.4157,0.3741,0.0,0.0,0.0,0.0,0.0,0.0,0.0,0.0,0.0,0.0,0.0,0.1716,0.1676,0.1967,0.2032,0.165,0.17,0.1754,0.1686,0.1179,0.0975,0.1277,0.0994,0.0865,0.1059,0.0813,0.0624,0.0624,0.0295,0.0033,0.0067,-0.0556,-0.1217,-0.1574,-0.1498,-0.1445,-0.1413,-0.1264,-0.1109,-0.1109,-0.1109,-0.1109,-0.1109,-0.1109,-0.1109,-0.1109,-0.1109,-0.1109,-0.1109,-0.1009,-0.0976,-0.0976,-0.0875,-0.0875,-0.0976,-0.1111,-0.1312,-0.1513,-0.1664,-0.1815,0.8291,0.8804,0.867,0.8584,0.8531,0.8488,0.8401,0.8323,0.8652,0.8921,0.9126,0.9131,0.9131,0.9118,0.8967,0.8906,0.8939,0.871,0.8629,0.8629,0.86,0.8249,0.7636,0.8064,0.7927,0.7345,0.7759,0.7841,0.7673,0.7673,0.7502,0.7184,0.6786,0.6357,0.5894,0.5747,0.5554,0.5375,0.5588,0.5758,0.5805,0.5791,0.5648,0.5418,0.5434,0.5289,0.4961,0.4838,0.4798,0.4778,0.4667,0.4636,0.4766,0.4359,0.4076,0.0,0.3635,0.0,0.0,0.0,0.0,0.0,0.0,0.0,0.0,0.2792,0.2752,0.2614,0.2732,0.2761,0.2671,0.2395,0.2299,0.2455,0.1943,0.1603,0.1708,0.1479,0.1277,0.1244,0.1244,0.121,0.1142,0.1008,0.0907,0.0806,0.057,0.0134,-0.0471,-0.0806,-0.0939,-0.1042,-0.1076,-0.1109,-0.1109,-0.1109,-0.1109,-0.1109,-0.1076,-0.1076,-0.1109,-0.1043,-0.1009,-0.0975,-0.0841,-0.0741,-0.0674,-0.0539,-0.0539,-0.064,-0.0671,-0.0769,-0.1,-0.1085,-0.0969,0.8982,0.9405,0.9422,0.9584,0.9836,0.9876,0.9156,0.7962,0.8446,0.8752,0.8855,0.8897,0.8897,0.8847,0.8815,0.8938,0.9116,0.8943,0.8861,0.8853,0.8661,0.8313,0.7804,0.7851,0.7592,0.7016,0.7094,0.7059,0.6905,0.6905,0.699,0.7192,0.6748,0.6788,0.7244,0.0,0.0,0.0,0.6072,0.6126,0.587,0.5712,0.5561,0.5414,0.5495,0.0,0.5254,0.524,0.5233,0.5198,0.507,0.0,0.0,0.0,0.0,0.0,0.0,0.0,0.0,0.0,0.0,0.0,0.3222,0.3081,0.2901,0.2742,0.2657,0.2686,0.2793,0.2895,0.2916,0.2967,0.3018,0.3033,0.2933,0.2739,0.2519,0.2418,0.2284,0.2018,0.1985,0.1883,0.158,0.1479,0.1344,0.1109,0.0873,0.0638,0.0303,-0.0034,-0.037,-0.0775,-0.0942,-0.1076,-0.1109,-0.1076,-0.1041,-0.1076,-0.0943,-0.0909,-0.1009,-0.0774,-0.0572,-0.0471,-0.0505,-0.0404,0.0,-0.0135,-0.0269,-0.0168,-0.0066,-0.0163,-0.0716,-0.0843,-0.0834,0.9223,0.0,0.9689,0.9969,0.0,1.0398,0.9844,0.9037,0.9465,0.9824,0.9971,0.9971,0.9971,0.9966,0.9875,0.9931,1.0012,0.9817,0.9681,0.9592,0.9491,0.9124,0.8556,0.8771,0.8638,0.8076,0.8336,0.8321,0.8158,0.8146,0.8181,0.8205,0.7801,0.7837,0.8308,0.7867,0.7096,0.595,0.6213,0.6259,0.6108,0.6097,0.598,0.5755,0.5903,0.0,0.0,0.0,0.0,0.0,0.0,0.0,0.0,0.5551,0.0,0.5851,0.5659,0.5432,0.5173,0.5176,0.4998,0.4608,0.4378,0.3971,0.3387,0.349,0.3552,0.3491,0.3556,0.3603,0.362,0.3563,0.3491,0.3491,0.3326,0.3125,0.2989,0.2956,0.2891,0.2758,0.2691,0.2555,0.2185,0.215,0.1982,0.1715,0.1547,0.1378,0.1041,0.0538,0.0034,-0.0235,-0.0437,-0.0504,-0.0437,-0.0504,-0.0571,-0.0538,-0.0404,-0.0303,-0.037,-0.0202,0.0,0.0,-0.0034,0.0067,0.0236,0.0168,0.0101,0.0135,0.02,0.0164,-0.0194,-0.0287,-0.0378,0.9596,1.0088,1.0088,1.0393,1.084,1.0811,1.0693,1.0499,0.0,0.0,0.0,1.1163,1.1149,1.1086,1.0971,1.09,1.0934,1.0731,1.0588,1.0381,1.0388,0.9992,0.9402,0.9745,0.9683,0.9213,0.9554,0.9645,0.9408,0.9446,0.9396,0.9285,0.8903,0.8765,0.8867,0.9181,0.8341,0.6485,0.6528,0.6553,0.6486,0.6515,0.6382,0.6125,0.6294,0.6287,0.6059,0.5936,0.5895,0.5895,0.5724,0.5755,0.6043,0.5943,0.6035,0.6306,0.6275,0.6282,0.6339,0.632,0.6226,0.6013,0.5521,0.4889,0.404,0.4372,0.4561,0.4364,0.4364,0.4334,0.4303,0.4064,0.3894,0.3894,0.3594,0.3395,0.3326,0.3293,0.3259,0.3228,0.3159,0.3125,0.2822,0.2787,0.2688,0.2455,0.2354,0.222,0.1748,0.0974,0.0403,0.0336,0.0168,0.0134,0.0269,0.0168,0.0101,0.0067,0.0235,0.037,0.037,0.0504,0.0571,0.0504,0.0571,0.0572,0.0573,0.0573,0.0573,0.0472,0.047,0.0465,0.039,0.0412,0.0249,1.0802,1.135,1.135,1.166,1.2113,1.1942,1.1757,1.154,1.1,1.086,1.1112,1.0928,1.085,1.085,1.0823,1.096,1.1142,1.0938,1.0834,1.0797,1.0617,1.0191,0.9593,0.9633,0.9322,0.8732,0.8767,0.8798,0.873,0.8769,0.8935,0.9217,0.8866,0.857,0.8446,0.8992,0.8785,0.7829,0.7783,0.7559,0.7174,0.6588,0.6239,0.6189,0.6338,0.6367,0.6264,0.629,0.6278,0.6223,0.6137,0.6306,0.6737,0.6636,0.6789,0.7274,0.7274,0.7163,0.6833,0.6804,0.6654,0.635,0.5991,0.547,0.4746,0.4707,0.4694,0.4592,0.4558,0.4495,0.4334,0.4267,0.4236,0.4203,0.4167,0.403,0.3761,0.3692,0.3594,0.3293,0.3192,0.3194,0.3159,0.3125,0.3092,0.3058,0.2958,0.2855,0.2284,0.1411,0.0806,0.0706,0.0571,0.047,0.0538,0.047,0.047,0.0437,0.0638,0.0739,0.0605,0.084,0.1042,0.1143,0.1076,0.1109,0.1278,0.1176,0.1009,0.0941,0.0995,0.101,0.0778,0.0901,0.0892,1.1076,1.1568,1.1568,1.1891,1.2377,1.2508,1.2461,1.2351,1.2082,1.1775,1.1471,1.1369,1.1271,1.1179,1.1174,1.1203,1.1189,1.1099,1.1,1.0891,1.0792,1.0543,1.02,1.027,1.0211,0.989,0.9906,0.9893,0.9893,0.9811,0.9859,1.0038,0.9941,0.9838,0.9747,1.0143,1.0196,0.9822,0.8643,0.7801,0.7423,0.7204,0.7029,0.6885,0.7068,0.7147,0.713,0.7348,0.7491,0.7443,0.7726,0.7811,0.7709,0.7646,0.7587,0.7519,0.7517,0.7428,0.7237,0.7007,0.6815,0.6688,0.635,0.602,0.569,0.5388,0.509,0.4761,0.4691,0.4724,0.4719,0.4638,0.456,0.456,0.4509,0.4364,0.4128,0.4064,0.3997,0.383,0.3797,0.373,0.356,0.3525,0.3426,0.3259,0.3192,0.3092,0.2889,0.2452,0.1915,0.1479,0.1244,0.1176,0.121,0.1176,0.1109,0.1109,0.1277,0.1344,0.1277,0.1512,0.1648,0.1648,0.158,0.1479,0.1512,0.1311,0.121,0.1109,0.1134,0.109,0.1023,0.109,0.1019,1.135,1.1782,1.1787,1.2005,1.2441,1.2659,1.2822,1.2916,1.2958,1.2687,1.2168,1.202,1.1886,1.1798,1.1788,1.1673,1.1436,1.1466,1.1351,1.1168,1.1154,1.1038,1.0873,1.1071,1.1125,1.1098,1.1053,1.1068,1.1025,1.0852,1.0745,1.0709,1.0918,1.0958,1.0904,1.1166,1.1278,1.1166,0.9573,0.8515,0.8165,0.813,0.8089,0.7936,0.8055,0.814,0.814,0.8437,0.8589,0.8627,0.9041,0.9092,0.8628,0.8617,0.8376,0.796,0.7918,0.7839,0.7692,0.7194,0.6942,0.7045,0.6712,0.6535,0.6473,0.614,0.5685,0.5199,0.5027,0.5035,0.5114,0.499,0.4882,0.4873,0.4831,0.473,0.4552,0.4484,0.445,0.445,0.4394,0.4248,0.4058,0.3975,0.3878,0.3666,0.3506,0.3457,0.3391,0.3343,0.2991,0.2453,0.2084,0.2051,0.2153,0.2084,0.1983,0.195,0.2084,0.2185,0.222,0.2321,0.2356,0.2253,0.2218,0.2118,0.1782,0.1714,0.1613,0.1445,0.1375,0.1276,0.1106,0.1106,0.1104,1.2273,1.2332,1.2327,1.2327,1.2441,1.2441,1.2659,1.2925,1.2906,1.3004,1.3061,1.2777,1.2586,1.2571,1.2561,1.2384,1.2184,1.2189,1.2058,1.1912,1.1896,1.1786,1.1569,1.1621,1.1495,1.1297,1.1282,1.1343,1.1322,1.1111,1.0835,1.0679,1.0877,1.0995,1.0989,1.1214,1.1322,1.1273,1.0905,1.0496,1.0044,0.948,0.9145,0.915,0.915,0.915,0.9112,0.9183,0.9221,0.9226,0.9296,0.9285,0.9217,0.9218,0.9175,0.9097,0.9128,0.8917,0.8329,0.7442,0.7091,0.7363,0.7091,0.6872,0.6844,0.683,0.6553,0.607,0.5693,0.5493,0.5389,0.5219,0.5155,0.5164,0.5191,0.5227,0.5173,0.5018,0.4913,0.4949,0.469,0.4531,0.4564,0.4477,0.4458,0.4409,0.4274,0.4116,0.3863,0.3775,0.3627,0.3192,0.3058,0.3025,0.2991,0.3058,0.2924,0.2958,0.3025,0.2991,0.2958,0.2991,0.3058,0.2857,0.2958,0.2891,0.2788,0.2822,0.2554,0.1983,0.1782,0.1715,0.1277,0.1143,0.1202,1.2713,1.2713,1.2881,1.2935,1.293,1.3098,1.318,1.3225,1.3385,1.3419,1.3388,1.3246,1.3081,1.2877,1.2703,1.2531,1.2269,1.2183,1.2077,1.1986,1.198,1.193,1.1877,1.2047,1.2042,1.1898,1.1927,1.1946,1.1909,1.1725,1.1518,1.1492,1.1682,1.1804,1.1767,1.198,1.2143,1.2132,1.1901,1.1675,1.1403,1.0442,0.975,0.9516,0.9463,0.9463,0.9496,0.9685,0.9836,0.9873,1.0169,1.02,0.9845,0.9825,0.9668,0.9344,0.9322,0.9203,0.8968,0.8329,0.8001,0.803,0.7658,0.7389,0.7255,0.7263,0.7155,0.6922,0.6418,0.6069,0.6086,0.5976,0.5884,0.5849,0.5863,0.5774,0.5659,0.5486,0.5342,0.5342,0.5149,0.4983,0.503,0.4896,0.4749,0.4632,0.4531,0.4461,0.4185,0.4126,0.4036,0.3897,0.3866,0.3629,0.3362,0.3192,0.3228,0.3228,0.3192,0.3192,0.3228,0.3192,0.3192,0.3226,0.3259,0.3192,0.2989,0.2989,0.2855,0.2453,0.2351,0.2217,0.168,0.158,0.1504,1.2989,1.3044,1.3207,1.332,1.332,1.3532,1.3542,1.3508,1.3705,1.372,1.3685,1.368,1.3556,1.334,1.3044,1.2854,1.2694,1.2725,1.2678,1.2573,1.2655,1.2721,1.2684,1.285,1.2879,1.2854,1.282,1.2709,1.2612,1.2418,1.2275,1.2356,1.2487,1.2608,1.2631,1.279,1.2875,1.2863,1.2679,1.2557,1.2346,1.1461,1.0645,1.0155,1.003,0.9992,1.003,1.0368,1.0513,1.0513,1.0962,1.1005,1.0582,1.0495,1.0244,0.9851,0.9653,0.9561,0.9526,0.9113,0.879,0.8644,0.8362,0.8144,0.7977,0.7852,0.7735,0.7716,0.724,0.6948,0.6705,0.6561,0.647,0.6455,0.6397,0.6335,0.6192,0.6005,0.5905,0.5858,0.5689,0.5504,0.551,0.5426,0.5286,0.5098,0.4997,0.4914,0.4779,0.4726,0.4597,0.4597,0.45,0.42,0.3629,0.3563,0.3496,0.3496,0.356,0.3563,0.3529,0.3529,0.3496,0.3696,0.356,0.3527,0.356,0.3426,0.3224,0.2987,0.2818,0.2653,0.2217,0.2118,0.1982,1.3266,1.3261,1.3315,1.332,1.332,1.3369,1.3467,1.3685,1.3706,1.3873,1.4148,1.4158,1.4148,1.4126,1.3879,1.374,1.3776,1.4181,1.4174,1.38,1.4211,1.4381,1.4196,1.4227,1.4186,1.4013,1.3764,1.3455,1.3095,1.3058,1.3052,1.3045,1.3052,1.3137,1.3294,1.33,1.3355,1.3307,1.3275,1.3203,1.295,1.2624,1.2058,1.1406,1.1137,1.1005,1.1037,1.1223,1.1329,1.1335,1.1372,1.1372,1.1329,1.1168,1.1001,1.0902,1.0481,1.0172,1.0107,0.9617,0.9284,0.9268,0.9165,0.9177,0.901,0.8639,0.8384,0.8344,0.8283,0.7913,0.7231,0.6967,0.6763,0.6757,0.6832,0.6885,0.6862,0.6718,0.6573,0.6499,0.6245,0.6101,0.6064,0.6142,0.6051,0.5991,0.6022,0.5915,0.5789,0.5535,0.5356,0.5236,0.5028,0.464,0.4339,0.4131,0.4167,0.41,0.3997,0.4197,0.4233,0.4267,0.4233,0.42,0.4164,0.4167,0.4233,0.4133,0.3894,0.3591,0.3155,0.2887,0.272,0.2686,0.2519,1.3699,1.3867,1.3867,1.3867,1.3862,1.3867,1.3831,1.3789,1.4161,1.4278,1.4313,1.4665,1.4908,1.5059,1.4914,1.4711,1.4374,1.4436,1.4427,1.4418,1.4592,1.4552,1.4352,1.4291,1.4299,1.4266,1.4172,1.3931,1.3548,1.3401,1.3401,1.3472,1.3389,1.3389,1.3595,1.3481,1.3398,1.3398,1.3398,1.3341,1.3226,1.2978,1.2618,1.2222,1.1727,1.1484,1.1484,1.1446,1.1446,1.1589,1.1484,1.1446,1.1558,1.1521,1.1409,1.1292,1.1095,1.0899,1.0745,1.0333,0.9994,0.9878,0.9632,0.9453,0.9314,0.911,0.9,0.8983,0.896,0.875,0.8538,0.8173,0.795,0.7925,0.7783,0.7676,0.7638,0.748,0.7326,0.7165,0.6847,0.663,0.6627,0.6524,0.6437,0.6338,0.6192,0.6134,0.6,0.5807,0.5731,0.571,0.5612,0.5472,0.5367,0.4787,0.4467,0.4334,0.43,0.4398,0.4464,0.4564,0.4561,0.4664,0.4667,0.4664,0.4664,0.4531,0.4328,0.4161,0.3725,0.3522,0.3288,0.3288,0.3086,1.424,1.4461,1.4671,1.4724,1.473,1.4724,1.4624,1.452,1.4931,1.499,1.4901,1.5245,1.5509,1.5602,1.5626,1.5567,1.5334,1.5162,1.5152,1.5207,1.5308,1.5219,1.4975,1.4815,1.4779,1.4797,1.4695,1.45,1.4191,1.3881,1.3901,1.4184,1.3804,1.3752,1.3939,1.3746,1.361,1.361,1.3616,1.361,1.3578,1.3339,1.31,1.2867,1.2428,1.2004,1.1719,1.1632,1.1669,1.1781,1.1669,1.1632,1.1706,1.1706,1.1632,1.1521,1.1477,1.1446,1.1298,1.1037,1.0807,1.0588,1.0406,1.0212,1.0019,0.9868,0.9755,0.9717,0.9679,0.9679,0.9566,0.941,0.9193,0.8927,0.8627,0.8479,0.8475,0.836,0.8237,0.8084,0.7629,0.7395,0.7399,0.7249,0.7126,0.6975,0.6776,0.6603,0.6554,0.6334,0.6233,0.6233,0.6144,0.6026,0.5908,0.5494,0.5229,0.5077,0.4888,0.4873,0.4858,0.4924,0.499,0.5096,0.513,0.5093,0.4994,0.4894,0.4794,0.4694,0.4558,0.4323,0.4123,0.3956,0.3754,1.4987,1.5041,1.5618,1.5785,1.5725,1.5731,1.5832,1.5749,1.5867,1.5831,1.5836,1.5949,1.6025,1.5974,1.6062,1.624,1.6527,1.6542,1.6442,1.6285,1.6461,1.6441,1.6135,1.5842,1.5655,1.5623,1.5478,1.5205,1.4918,1.4639,1.4625,1.481,1.4352,1.4203,1.4492,1.4219,1.4088,1.4082,1.4082,1.413,1.4055,1.3862,1.3702,1.3628,1.336,1.2835,1.1888,1.195,1.2024,1.2009,1.2048,1.1911,1.1825,1.1782,1.1756,1.1713,1.1706,1.1706,1.1669,1.1632,1.1484,1.1335,1.1477,1.1409,1.1143,1.0919,1.07,1.055,1.0513,1.0432,1.0325,1.0363,1.0132,0.9453,0.9263,0.9226,0.9263,0.9263,0.9258,0.9074,0.8513,0.8331,0.8479,0.8322,0.8075,0.8045,0.7902,0.776,0.7688,0.7333,0.7073,0.6953,0.6752,0.6543,0.6375,0.6197,0.6096,0.5964,0.5752,0.5633,0.5564,0.5617,0.562,0.569,0.5624,0.562,0.5587,0.5455,0.5458,0.5355,0.5223,0.5054,0.4855,0.4655,0.4556,1.5041,1.5089,1.5624,1.5885,1.5885,1.5885,1.5885,1.5939,1.6258,1.6471,1.6524,1.6895,1.7054,1.7054,1.7054,1.716,1.7318,1.7305,1.716,1.6968,1.6996,1.679,1.6382,1.6228,1.6019,1.5812,1.5531,1.5357,1.5276,1.5008,1.4977,1.5097,1.4669,1.4556,1.48,1.4355,1.4215,1.4496,1.4496,1.4657,1.4936,1.4885,1.4743,1.4577,1.4462,1.4166,1.3628,1.299,1.249,1.2271,1.2477,1.2563,1.2462,1.2454,1.228,1.1955,1.1892,1.1855,1.1706,1.1713,1.1756,1.1639,1.1706,1.1669,1.1632,1.1521,1.1378,1.1292,1.1298,1.1298,1.126,1.126,1.0925,1.0207,0.9873,0.976,0.9722,0.9501,0.9311,0.9273,0.897,0.8851,0.9008,0.8932,0.8932,0.9051,0.8897,0.8811,0.8721,0.8258,0.7996,0.7917,0.7543,0.7227,0.7191,0.7188,0.7146,0.6836,0.6551,0.6289,0.6242,0.621,0.6247,0.6247,0.6181,0.6148,0.6115,0.6083,0.6083,0.5888,0.5653,0.5517,0.5451,0.5319,0.5123,1.5624,1.5731,1.6264,1.6524,1.6524,1.6524,1.6524,1.6577,1.6895,1.7054,1.7107,1.7424,1.7589,1.7589,1.7589,1.7589,1.7589,1.7589,1.7488,1.7405,1.749,1.7285,1.7023,1.676,1.6594,1.6353,1.6199,1.6109,1.6095,1.5825,1.5802,1.5825,1.54,1.5173,1.53,1.4924,1.4754,1.4929,1.4936,1.511,1.5352,1.5394,1.5299,1.5164,1.5142,1.4973,1.4695,1.4097,1.3596,1.3258,1.3356,1.3423,1.3276,1.3113,1.2883,1.2637,1.2415,1.2342,1.2348,1.2553,1.2421,1.2271,1.2278,1.221,1.2078,1.1951,1.1892,1.1818,1.1818,1.1781,1.1706,1.1669,1.1446,1.0999,1.0775,1.055,1.0443,1.003,0.9879,0.9879,0.9614,0.9539,0.9652,0.9576,0.9571,0.9657,0.9539,0.942,0.9301,0.9031,0.8846,0.8694,0.8462,0.825,0.8206,0.8187,0.8203,0.7794,0.7311,0.7009,0.6816,0.6815,0.6835,0.6868,0.6835,0.6835,0.6835,0.6736,0.6675,0.6379,0.6148,0.605,0.5984,0.5723,0.5524,1.6677,1.6783,1.7312,1.7529,1.7529,1.7529,1.7477,1.7529,1.7529,1.7536,1.7582,1.7687,1.7687,1.7687,1.7845,1.7905,1.774,1.7852,1.7937,1.8005,1.8091,1.8174,1.8028,1.7529,1.7254,1.7145,1.7163,1.721,1.7073,1.6873,1.6925,1.6788,1.631,1.6045,1.5879,1.5684,1.5518,1.542,1.5423,1.5436,1.556,1.556,1.5553,1.553,1.5516,1.5472,1.5352,1.5405,1.5146,1.4614,1.443,1.4299,1.4061,1.3677,1.353,1.3483,1.3198,1.3196,1.3491,1.3618,1.3596,1.3071,1.3192,1.3237,1.2759,1.2605,1.2476,1.2348,1.2216,1.2092,1.195,1.1987,1.1926,1.1845,1.1646,1.1453,1.1372,1.085,1.0669,1.0812,1.0475,1.0105,1.0438,1.018,1.0067,0.9992,0.9916,0.9841,0.9765,0.9642,0.941,0.9258,0.915,0.8917,0.8727,0.8742,0.8748,0.8544,0.8129,0.7872,0.7517,0.7475,0.7461,0.7489,0.7456,0.7489,0.7489,0.7396,0.7297,0.7134,0.6905,0.6712,0.6449,0.6218,0.5954,1.667,1.6776,1.7364,1.7589,1.7589,1.7589,1.7641,1.7635,1.7641,1.7694,1.7687,1.8055,1.8213,1.8213,1.8639,1.8848,1.8795,1.8795,1.9108,1.9391,1.9487,1.8999,1.8377,1.7945,1.76,1.7409,1.7426,1.7286,1.7279,1.7277,1.7233,1.7186,1.6925,1.6599,1.6348,1.6097,1.5912,1.595,1.5971,1.6121,1.6319,1.636,1.636,1.6353,1.636,1.6478,1.6717,1.6846,1.6298,1.5242,1.4984,1.4852,1.4719,1.4435,1.4276,1.4201,1.4019,1.3887,1.4009,1.4152,1.4009,1.3744,1.3899,1.3906,1.379,1.3603,1.3498,1.3419,1.3184,1.3003,1.3123,1.3123,1.3182,1.3174,1.2447,1.1825,1.1614,1.1366,1.1223,1.126,1.098,1.0966,1.0954,1.0948,1.083,1.0824,1.0755,1.0669,1.0599,1.0332,1.0079,0.9803,0.9642,0.9415,0.9258,0.9258,0.9205,0.9165,0.897,0.8841,0.8482,0.8263,0.8234,0.822,0.8052,0.8019,0.8019,0.7987,0.7922,0.7727,0.7466,0.7171,0.6975,0.6741,0.6482,1.7213,1.7417,1.7793,1.8062,1.8318,1.8325,1.8325,1.8325,1.8325,1.8325,1.837,1.8639,1.8795,1.8848,1.9168,1.9272,1.9272,1.9272,1.948,1.9732,1.9916,1.9646,1.9049,1.8702,1.832,1.797,1.7932,1.7932,1.7986,1.7939,1.7939,1.7987,1.788,1.7773,1.7619,1.7445,1.7251,1.727,1.7157,1.7228,1.7237,1.727,1.7261,1.7261,1.7261,1.7392,1.7627,1.7635,1.7049,1.6018,1.5669,1.568,1.5496,1.5175,1.5018,1.501,1.4762,1.4645,1.4831,1.4952,1.4885,1.4702,1.4734,1.4655,1.45,1.4309,1.4171,1.4117,1.3928,1.3935,1.4012,1.4057,1.406,1.3984,1.3296,1.2581,1.2242,1.1904,1.1746,1.1759,1.1866,1.1917,1.1834,1.1916,1.1958,1.1882,1.184,1.1677,1.149,1.1133,1.0854,1.0651,1.0669,1.0614,1.0576,1.0614,1.0464,1.0302,0.9931,0.9779,0.9274,0.8931,0.8641,0.8549,0.8549,0.8517,0.8511,0.8447,0.8252,0.8057,0.7829,0.7694,0.7526,0.733,0.7068,1.8003,1.8415,1.8415,1.8795,1.922,1.9272,1.9168,1.9272,1.9168,1.9168,1.922,1.9324,1.9428,1.9428,1.9687,1.9583,1.9635,1.9783,1.9739,2.0042,2.029,2.04,2.0191,1.9686,1.9241,1.8877,1.8913,1.8874,1.8866,1.8874,1.8966,1.8996,1.9163,1.9199,1.897,1.9135,1.9125,1.8617,1.8355,1.8161,1.7973,1.7889,1.7829,1.7829,1.7991,1.791,1.8,1.7959,1.7554,1.6376,1.6615,1.6563,1.6309,1.5966,1.5833,1.5897,1.5709,1.5646,1.5856,1.6134,1.6062,1.575,1.5629,1.5589,1.5335,1.5091,1.4919,1.4962,1.4721,1.476,1.4775,1.4743,1.4864,1.4823,1.4545,1.3921,1.326,1.2672,1.2396,1.2402,1.2961,1.3052,1.3079,1.3134,1.3261,1.281,1.2768,1.2647,1.2461,1.2189,1.1948,1.1765,1.1814,1.2003,1.2003,1.204,1.1848,1.1648,1.107,1.0674,0.9907,0.9441,0.8962,0.8776,0.8969,0.8996,0.8931,0.8802,0.8641,0.8511,0.8349,0.8279,0.8209,0.7944,0.7684,1.8415,1.8722,1.8729,1.8945,1.9272,1.9272,1.9324,1.9331,1.9324,1.9428,1.9428,1.9732,2.0034,2.0285,2.0652,2.096,2.1011,2.1062,2.1267,2.1564,2.181,2.1779,2.1392,2.0742,1.9957,1.9578,1.9778,1.9754,1.9563,1.9691,1.9973,1.992,1.9911,1.9914,1.976,1.9775,1.9587,1.9219,1.888,1.8688,1.8575,1.831,1.8181,1.8155,1.8428,1.8339,1.8161,1.8362,1.821,1.7716,1.7392,1.7326,1.7098,1.6871,1.6815,1.6911,1.7055,1.7103,1.7184,1.7008,1.6774,1.6498,1.6368,1.6333,1.666,1.6362,1.6261,1.6261,1.6087,1.5858,1.5866,1.606,1.6155,1.6043,1.5656,1.5257,1.4875,1.4095,1.3505,1.3512,1.3528,1.3567,1.3616,1.3602,1.3709,1.3659,1.3659,1.3571,1.3404,1.3178,1.2889,1.2603,1.2637,1.2709,1.2673,1.268,1.2526,1.2361,1.1924,1.1486,1.0727,1.0157,0.9713,0.9552,0.9548,0.951,0.9382,0.9312,0.921,0.9022,0.8867,0.8765,0.863,0.8463,0.8301,1.884,1.9205,1.9354,1.9672,2.0042,2.0205,2.0145,2.0094,2.0351,2.0395,2.0498,2.0747,2.1003,2.1251,2.1522,2.1674,2.1725,2.1818,2.203,2.2224,2.2417,2.2356,2.2259,2.1767,2.1077,2.0315,2.0391,2.0297,2.0107,2.0201,2.0246,2.0329,2.0518,2.0546,2.0492,2.0561,2.051,2.0193,1.9902,1.9711,1.9522,1.9463,1.9222,1.9115,1.9322,1.9282,1.9169,1.934,1.9371,1.9151,1.8769,1.8235,1.7782,1.7595,1.7587,1.7676,1.7749,1.7829,1.774,1.7659,1.7448,1.7302,1.7221,1.7294,1.7424,1.7383,1.7358,1.7361,1.7214,1.7055,1.7063,1.7178,1.7294,1.7237,1.6879,1.6509,1.6139,1.5108,1.428,1.4395,1.4462,1.4474,1.4471,1.4453,1.4513,1.4684,1.455,1.4446,1.4137,1.3898,1.3589,1.3374,1.3329,1.3309,1.3273,1.3163,1.3017,1.2772,1.242,1.206,1.1539,1.1002,1.0522,1.0335,1.011,0.9958,0.9856,0.9817,0.9786,0.9632,0.944,0.9253,0.9157,0.9177,0.8979,1.9302,1.9783,2.0034,2.0498,2.1027,2.1224,2.1216,2.1173,2.1581,2.1564,2.1674,2.1674,2.1666,2.203,2.2021,2.1979,2.208,2.2384,2.2728,2.2878,2.3079,2.3103,2.3047,2.293,2.2561,2.1485,2.1322,2.1066,2.0791,2.0687,2.1022,2.0816,2.1149,2.1356,2.1392,2.1526,2.1548,2.1158,2.1028,2.0921,2.0721,2.0745,2.0555,2.0419,2.0344,2.0344,2.0304,2.0385,2.0467,2.0661,2.0316,1.9525,1.8739,1.821,1.8121,1.8121,1.8241,1.8393,1.8402,1.8273,1.8193,1.8161,1.8031,1.804,1.804,1.808,1.8103,1.8103,1.806,1.798,1.8072,1.8023,1.8031,1.8031,1.791,1.7659,1.7163,1.5926,1.5425,1.5061,1.5312,1.5482,1.5503,1.5516,1.562,1.5662,1.5507,1.5313,1.4993,1.4738,1.4519,1.4266,1.4223,1.3923,1.3841,1.3746,1.3557,1.3288,1.2964,1.2628,1.2294,1.1815,1.1323,1.0839,1.0579,1.0485,1.046,1.0485,1.0421,1.0238,1.0142,1.0015,0.9983,0.9958,0.9664,1.9923,2.0034,2.0359,2.0865,2.153,2.1623,2.1725,2.1878,2.203,2.192,2.1776,2.1725,2.192,2.2123,2.2123,2.2333,2.2887,2.3329,2.3678,2.3827,2.4084,2.4291,2.4254,2.4221,2.4061,2.3605,2.2917,2.2281,2.2172,2.2409,2.2161,2.2147,2.2404,2.2477,2.2152,2.2255,2.2183,2.1951,2.1798,2.1635,2.1608,2.1414,2.1206,2.1106,2.1046,2.1046,2.1046,2.1046,2.1078,2.1078,2.0995,2.0686,2.0064,1.9348,1.8883,1.8723,1.9002,1.9161,1.9161,1.9112,1.8993,1.8794,1.8545,1.8434,1.8523,1.8612,1.8683,1.8763,1.8674,1.8545,1.8362,1.8523,1.8571,1.8531,1.8482,1.8273,1.8055,1.7503,1.6612,1.6034,1.6209,1.646,1.6432,1.6402,1.6428,1.6461,1.634,1.6257,1.6147,1.5889,1.5701,1.5434,1.5174,1.4762,1.438,1.4305,1.4173,1.3855,1.3546,1.3292,1.2947,1.2577,1.2104,1.162,1.1279,1.1153,1.1153,1.1146,1.1052,1.0895,1.0863,1.0814,1.067,1.0524,1.0454,2.0336,2.0755,2.1019,2.1522,2.2072,2.2283,2.2325,2.2333,2.2636,2.2686,2.2577,2.2585,2.2736,2.2937,2.3079,2.3438,2.3935,2.4134,2.4381,2.4587,2.4784,2.4892,2.4941,2.4941,2.4886,2.4621,2.407,2.3475,2.313,2.325,2.3151,2.2896,2.2991,2.2858,2.2482,2.2344,2.2388,2.2375,2.2242,2.2235,2.2418,2.2203,2.2059,2.1773,2.1734,2.1744,2.1734,2.1692,2.1777,2.1861,2.1851,2.1569,2.1088,2.0599,1.9975,1.9559,1.9615,1.9764,1.9764,1.9666,1.9548,1.9469,1.9222,1.9183,1.9271,1.9359,1.932,1.939,1.9429,1.9262,1.9192,1.924,1.932,1.932,1.9201,1.8993,1.8754,1.8514,1.7813,1.6992,1.7033,1.7155,1.7164,1.7172,1.7196,1.7212,1.7172,1.7131,1.709,1.6919,1.6624,1.6141,1.5773,1.5344,1.4968,1.488,1.4713,1.4425,1.4183,1.3917,1.3623,1.3281,1.286,1.2422,1.2158,1.1984,1.1622,1.1529,1.1522,1.1527,1.1478,1.1383,1.1227,1.1097,1.1023,2.0921,2.1471,2.1717,2.2173,2.2627,2.287,2.2878,2.2887,2.3288,2.3438,2.3388,2.3497,2.3596,2.3845,2.4084,2.4381,2.4775,2.4627,2.4784,2.4941,2.5088,2.5088,2.5079,2.5079,2.5157,2.5217,2.5035,2.4564,2.4106,2.4039,2.3744,2.3532,2.3372,2.3117,2.2821,2.2685,2.2558,2.252,2.2574,2.2769,2.2998,2.3057,2.2921,2.2428,2.2389,2.2399,2.238,2.2389,2.2422,2.2508,2.2512,2.2347,2.1913,2.1723,2.1243,2.0459,2.021,2.0114,2.0104,2.0059,2.001,1.9942,1.9942,1.9942,1.9902,1.9824,1.9902,1.9902,1.9942,1.9863,1.9745,1.9872,1.9863,1.9824,1.9794,1.9745,1.9399,1.9112,1.8984,1.8416,1.8046,1.7925,1.8006,1.7974,1.8014,1.7772,1.7732,1.7497,1.748,1.7557,1.7274,1.672,1.6275,1.5878,1.5568,1.5434,1.524,1.4963,1.4799,1.4571,1.431,1.3995,1.3656,1.34,1.317,1.2965,1.2453,1.2003,1.2103,1.2139,1.2064,1.2039,1.1974,1.1783,1.1596,2.2228,2.2021,2.2274,2.2728,2.3179,2.3279,2.3438,2.3705,2.3886,2.3877,2.3728,2.3935,2.4044,2.4183,2.4381,2.448,2.4677,2.503,2.5186,2.5284,2.544,2.5538,2.5586,2.5596,2.5538,2.5567,2.5557,2.5352,2.4945,2.4858,2.4672,2.4295,2.4132,2.3994,2.3551,2.3177,2.3013,2.3013,2.2969,2.3047,2.3101,2.3144,2.3096,2.3003,2.2984,2.2974,2.2978,2.2988,2.3041,2.3061,2.3081,2.2842,2.2477,2.2399,2.2155,2.1644,2.1204,2.0772,2.0774,2.0661,2.0478,2.038,2.0283,2.0117,2.0135,2.0224,2.0224,1.9893,2.0156,2.0214,2.0115,1.9979,1.9921,1.9942,1.9981,1.9942,1.9754,1.9676,1.9508,1.9499,1.9094,1.8966,1.8966,1.8886,1.8776,1.8527,1.8296,1.8095,1.796,1.8026,1.7979,1.7509,1.6977,1.6546,1.6422,1.6263,1.5955,1.5655,1.5429,1.5293,1.5061,1.4815,1.478,1.4555,1.4291,1.3862,1.3289,1.2963,1.2845,1.2854,1.2916,1.2931,1.2884,1.2608,1.234,2.3481,2.2577,2.3038,2.3388,2.3777,2.4084,2.4282,2.444,2.4538,2.448,2.443,2.448,2.4627,2.4775,2.4932,2.5039,2.5177,2.544,2.5538,2.5596,2.5693,2.5742,2.5684,2.5684,2.5684,2.5781,2.5674,2.5615,2.5469,2.5439,2.5225,2.4844,2.4756,2.457,2.4196,2.3721,2.3338,2.3167,2.312,2.3232,2.3406,2.3493,2.3484,2.3484,2.3484,2.3484,2.3484,2.3484,2.3657,2.3777,2.3907,2.3836,2.3675,2.3624,2.3428,2.3001,2.2532,2.203,2.157,2.1396,2.1182,2.0917,2.0828,2.0768,2.067,2.0709,2.0915,2.1067,2.1157,2.1031,2.0729,2.063,2.0457,2.04,2.0255,2.0177,2.0147,2.0147,2.0069,2.0108,2.0137,1.9971,1.9805,1.9726,1.9529,1.9301,1.9183,1.9103,1.8858,1.8667,1.8574,1.8321,1.7807,1.7276,1.7267,1.7187,1.6889,1.6571,1.6228,1.6069,1.5847,1.5708,1.5679,1.5534,1.5283,1.4769,1.4167,1.3819,1.3626,1.3705,1.3848,1.3746,1.362,1.357,1.3306,2.4382,2.3379,2.3827,2.4134,2.4332,2.4735,2.4892,2.4892,2.499,2.499,2.5039,2.5039,2.5235,2.5342,2.5382,2.5538,2.5888,2.6025,2.6083,2.6121,2.621,2.6268,2.6247,2.6159,2.6159,2.6062,2.6207,2.6177,2.6139,2.6051,2.5892,2.5272,2.5238,2.5071,2.4746,2.4534,2.4272,2.3826,2.3632,2.3711,2.3917,2.395,2.396,2.396,2.396,2.396,2.396,2.396,2.4166,2.4327,2.4413,2.4339,2.4351,2.4298,2.417,2.3864,2.3558,2.3229,2.2709,2.2325,2.1964,2.1747,2.1579,2.1619,2.1739,2.1679,2.1698,2.2148,2.2177,2.1969,2.1619,2.1431,2.1115,2.084,2.0605,2.0537,2.0459,2.0537,2.0615,2.0654,2.0693,2.0731,2.0605,2.0527,2.0333,2.0069,1.999,1.999,1.9696,1.9298,1.9089,1.8881,1.8313,1.787,1.7814,1.7786,1.7589,1.7464,1.7109,1.6989,1.6874,1.6671,1.6566,1.6392,1.6272,1.6079,1.5714,1.502,1.4371,1.436,1.4328,1.4379,1.4334,1.4328,1.4112,2.4852,2.443,2.4686,2.4784,2.4833,2.4883,2.4941,2.499,2.5186,2.5284,2.5382,2.5586,2.5732,2.5732,2.583,2.6014,2.6458,2.6909,2.6992,2.7173,2.7517,2.7311,2.7081,2.6969,2.6955,2.6955,2.686,2.6907,2.7088,2.7003,2.6456,2.5848,2.5932,2.5694,2.5568,2.5533,2.5402,2.4955,2.4569,2.442,2.4518,2.4529,2.4466,2.4456,2.4456,2.4456,2.4456,2.4466,2.4551,2.4669,2.4712,2.4712,2.4754,2.4754,2.4637,2.4457,2.4394,2.4196,2.3905,2.3224,2.2778,2.2798,2.2696,2.2514,2.2778,2.2564,2.2696,2.3033,2.3094,2.2869,2.2481,2.2075,2.1788,2.1389,2.1131,2.0915,2.0925,2.1051,2.1128,2.1205,2.1244,2.1233,2.1233,2.1108,2.0799,2.0537,2.042,2.042,2.0159,1.9803,1.9583,1.925,1.8745,1.8361,1.8183,1.8184,1.8348,1.8203,1.7915,1.7954,1.8012,1.7818,1.7509,1.7567,1.751,1.7399,1.7115,1.6205,1.5472,1.5023,1.4892,1.5131,1.5144,1.5095,1.473,2.5379,2.5235,2.5333,2.5186,2.4932,2.5235,2.5391,2.5382,2.5489,2.5781,2.6062,2.6438,2.662,2.6572,2.663,2.6716,2.6928,2.7099,2.7387,2.7534,2.7583,2.7583,2.7469,2.7465,2.7183,2.732,2.7309,2.7421,2.7657,2.7883,2.7846,2.7411,2.7024,2.6683,2.6603,2.6496,2.6323,2.6051,2.5488,2.5194,2.569,2.5179,2.4935,2.4935,2.4925,2.4925,2.4925,2.4935,2.5105,2.5285,2.5369,2.5327,2.5359,2.5369,2.5232,2.5009,2.502,2.4978,2.4893,2.421,2.3752,2.3474,2.3268,2.3145,2.3649,2.3433,2.3618,2.3815,2.3992,2.3815,2.3421,2.2989,2.2531,2.2051,2.1688,2.1391,2.1478,2.1655,2.1758,2.1876,2.1755,2.1655,2.1655,2.1655,2.131,2.1012,2.0935,2.0828,2.0594,2.0447,2.0243,2.0154,1.9698,1.9337,1.9179,1.9193,1.9217,1.8923,1.864,1.8674,1.8741,1.8754,1.8549,1.8654,1.8586,1.8253,1.7795,1.7143,1.6568,1.6126,1.5996,1.6087,1.6037,1.5848,1.5514,2.6024,2.6149,2.6159,2.5858,2.547,2.5771,2.6024,2.611,2.6149,2.6352,2.6726,2.7051,2.7183,2.7183,2.7183,2.7326,2.7488,2.7802,2.8097,2.8378,2.8549,2.8431,2.8501,2.862,2.8684,2.8354,2.8513,2.8936,2.9044,2.9085,2.9116,2.8948,2.86,2.834,2.7708,2.753,2.7377,2.729,2.6889,2.6422,2.6958,2.6501,2.595,2.5917,2.5852,2.5893,2.5852,2.5821,2.5904,2.6082,2.6166,2.6177,2.6218,2.626,2.6082,2.5874,2.5664,2.5653,2.5611,2.5242,2.483,2.4586,2.4157,2.4157,2.4356,2.4409,2.4462,2.4862,2.4904,2.4746,2.4324,2.3883,2.3405,2.2947,2.2255,2.1963,2.2271,2.2537,2.2517,2.2558,2.2457,2.2436,2.2063,2.2063,2.1835,2.153,2.1349,2.1339,2.1298,2.1169,2.105,2.1004,2.0914,2.0589,2.0268,2.0019,1.9754,1.936,1.9142,1.9142,1.9208,1.9264,1.9264,1.9142,1.9054,1.8936,1.8582,1.8098,1.7643,1.721,1.7018,1.6786,1.6564,1.6369,1.6413,2.6726,2.7136,2.7146,2.686,2.6448,2.6458,2.6678,2.7003,2.7088,2.7136,2.7241,2.7278,2.7326,2.7373,2.7468,2.7747,2.8348,2.8914,2.9397,2.9698,3.0089,3.0362,3.04,3.0385,3.0271,3.0923,3.0909,3.0769,3.0869,3.1132,3.095,3.0606,3.0434,3.0031,2.9154,2.9038,2.9159,2.9278,2.8811,2.8334,2.808,2.7812,2.7421,2.7062,2.6941,2.6911,2.6787,2.6569,2.6652,2.6857,2.6704,2.6704,2.6899,2.6981,2.6928,2.6928,2.6599,2.664,2.6969,2.6302,2.5913,2.5723,2.5328,2.5395,2.5619,2.5537,2.5388,2.5821,2.5832,2.5677,2.5248,2.4813,2.4368,2.3977,2.331,2.3066,2.3466,2.3625,2.3689,2.3673,2.3585,2.3406,2.2832,2.2429,2.2317,2.209,2.1873,2.1825,2.1901,2.1907,2.1872,2.212,2.2105,2.1779,2.1382,2.0711,2.0254,1.9839,1.9671,1.9726,1.9726,1.9758,1.9693,1.9638,1.9649,1.9694,1.9446,1.9093,1.8723,1.829,1.7584,1.7235,1.704,1.6979,1.711,2.704,2.7183,2.7183,2.7336,2.7431,2.7098,2.704,2.7231,2.7563,2.7704,2.7799,2.8092,2.8279,2.8279,2.8369,2.8676,2.9459,2.9711,3.0248,3.1405,3.1529,3.1637,3.1652,3.1587,3.1609,3.1647,3.1898,3.2312,3.223,3.2677,3.2611,3.2304,3.18,3.109,3.017,2.9862,3.0008,3.0184,2.9769,2.9288,2.9351,2.8866,2.8334,2.7838,2.7845,2.777,2.7609,2.7393,2.7376,2.7516,2.7272,2.7226,2.7348,2.7336,2.7296,2.7255,2.701,2.7021,2.7185,2.694,2.691,2.6775,2.6569,2.6487,2.6693,2.6652,2.6652,2.6652,2.6704,2.6558,2.649,2.6118,2.5723,2.565,2.5212,2.4953,2.5058,2.5036,2.5034,2.4948,2.4853,2.4393,2.3847,2.3575,2.3367,2.3082,2.2885,2.274,2.2756,2.2767,2.2734,2.318,2.3326,2.2992,2.2533,2.1882,2.134,2.0986,2.0663,2.0442,2.041,2.0334,2.0442,2.0506,2.0484,2.0451,2.0278,2.0071,1.9802,1.9362,1.8748,1.821,1.8005,1.7954,1.7989,2.7563,2.7752,2.7752,2.8034,2.8362,2.7752,2.7563,2.7752,2.8139,2.8373,2.8606,2.8885,2.9117,2.9254,2.9548,2.9751,3.0587,3.0984,3.1258,3.2454,3.2397,3.2426,3.2569,3.2663,3.2797,3.2766,3.303,3.341,3.3608,3.3905,3.3764,3.335,3.2941,3.2071,3.1255,3.0991,3.0946,3.103,3.067,3.0477,3.0383,3.0043,2.9579,2.9243,2.9041,2.8935,2.8639,2.8397,2.8186,2.8191,2.8044,2.7869,2.7805,2.7834,2.7874,2.7874,2.7862,2.7794,2.7753,2.7955,2.7955,2.7914,2.7592,2.7307,2.7336,2.7255,2.7336,2.7377,2.7418,2.7418,2.7337,2.6994,2.6868,2.6753,2.6521,2.6255,2.6504,2.6453,2.6244,2.6155,2.6004,2.5489,2.5024,2.4811,2.4618,2.426,2.394,2.3855,2.3722,2.3612,2.3601,2.3934,2.4143,2.382,2.3464,2.3062,2.2593,2.2149,2.1737,2.1277,2.1103,2.104,2.123,2.1394,2.133,2.1291,2.122,2.1026,2.0688,2.0398,2.0078,1.955,1.907,1.8921,1.8925,2.8373,2.8792,2.885,2.9071,2.9301,2.8549,2.842,2.885,2.885,2.9128,2.9474,2.9485,2.9669,3.0182,3.0663,3.0973,3.1297,3.2068,3.2593,3.2931,3.3336,3.3421,3.3578,3.3789,3.3978,3.4412,3.4691,3.4688,3.486,3.4944,3.4721,3.4155,3.3629,3.2938,3.2418,3.2095,3.1914,3.1717,3.1653,3.1443,3.1245,3.1327,3.0931,3.0645,3.0438,3.0394,3.0121,2.9796,2.9642,2.9436,2.91,2.8949,2.8919,2.9104,2.9091,2.9052,2.8961,2.8724,2.8538,2.8736,2.8855,2.8645,2.8167,2.7765,2.7713,2.7903,2.7983,2.7983,2.7971,2.7931,2.7872,2.7752,2.7659,2.7472,2.7261,2.7431,2.7806,2.7763,2.745,2.7284,2.7162,2.6756,2.6261,2.6012,2.58,2.5692,2.5439,2.5248,2.5043,2.4553,2.4543,2.4502,2.4612,2.4471,2.4179,2.3967,2.3706,2.3226,2.2595,2.2145,2.1941,2.1769,2.1808,2.1938,2.2101,2.2139,2.217,2.1878,2.1446,2.1257,2.1216,2.0698,2.015,1.989,1.9825,2.9347,2.9795,2.9806,2.9852,2.9943,2.9715,2.9669,2.9795,2.9806,2.9897,2.9988,2.9988,3.017,3.0262,3.0732,3.1495,3.2289,3.3102,3.3959,3.4341,3.4533,3.4799,3.4932,3.4981,3.5175,3.532,3.5536,3.5665,3.561,3.5705,3.5525,3.5036,3.4404,3.3804,3.3392,3.3074,3.2683,3.2367,3.2306,3.2122,3.2055,3.2081,3.1846,3.1563,3.1427,3.1334,3.1042,3.0778,3.0572,3.0124,2.9964,2.9729,2.9064,2.9104,2.9104,2.9091,2.917,2.9209,2.9013,2.9157,2.9275,2.9209,2.8882,2.8843,2.8724,2.8645,2.8685,2.8633,2.8621,2.8633,2.8593,2.8514,2.8447,2.8314,2.8158,2.8321,2.8664,2.863,2.8348,2.83,2.8188,2.7835,2.7403,2.7137,2.6943,2.698,2.692,2.6639,2.6348,2.5815,2.5408,2.5326,2.5421,2.5385,2.5072,2.4864,2.4643,2.4289,2.3667,2.3115,2.2853,2.2686,2.2499,2.2559,2.2875,2.3077,2.3201,2.2863,2.2442,2.2469,2.242,2.1795,2.1284,2.1126,2.0863,2.9954,3.0216,3.0216,3.0352,3.0668,3.0949,3.1071,3.0994,3.0578,3.0442,3.0611,3.0758,3.0892,3.121,3.1717,3.2444,3.3294,3.3859,3.4581,3.5185,3.5633,3.5524,3.5585,3.562,3.562,3.5764,3.5908,3.5978,3.6046,3.5953,3.5784,3.5374,3.4956,3.451,3.3963,3.3507,3.3202,3.2965,3.2766,3.2556,3.2562,3.2605,3.2457,3.2228,3.2141,3.2033,3.1843,3.1693,3.1319,3.0994,3.092,3.0543,3.0087,3.0074,3.0074,3.0074,2.9943,2.9905,2.9764,2.9594,2.9545,2.9468,2.9481,2.9456,2.9378,2.93,2.9339,2.9339,2.9339,2.9378,2.9326,2.9287,2.9236,2.9184,2.9184,2.9184,2.9236,2.9326,2.9289,2.9252,2.9066,2.8744,2.846,2.8201,2.804,2.799,2.7816,2.7532,2.7274,2.6907,2.6421,2.6129,2.6308,2.6414,2.6091,2.5719,2.5469,2.5206,2.4793,2.4275,2.3901,2.361,2.3437,2.356,2.377,2.4047,2.4425,2.3938,2.3571,2.3598,2.3552,2.3098,2.2719,2.2552,2.2259,3.0363,3.0442,3.0352,3.0847,3.1427,3.2038,3.2313,3.2313,3.1294,3.1026,3.1395,3.1548,3.1825,3.2159,3.2751,3.3341,3.4029,3.4581,3.5155,3.5668,3.5812,3.5812,3.5752,3.5704,3.5895,3.6003,3.6051,3.6181,3.6323,3.6279,3.5994,3.5545,3.524,3.4906,3.4623,3.3928,3.3608,3.3539,3.3084,3.2723,3.281,3.2952,3.3124,3.3043,3.3031,3.2968,3.2867,3.2616,3.2265,3.2051,3.1813,3.1408,3.1232,3.1182,3.1207,3.1132,3.0741,3.0628,3.0463,3.029,3.0129,3.0016,2.9892,2.9928,2.99,2.9725,2.9636,2.9624,2.9624,2.9624,2.9573,2.9521,2.9482,2.9443,2.9443,2.9443,2.9482,2.9534,2.9573,2.9548,2.9447,2.9197,2.9249,2.9,2.895,2.8888,2.8887,2.8597,2.8373,2.8089,2.7617,2.7135,2.7192,2.7295,2.6933,2.6589,2.6312,2.6022,2.5678,2.5378,2.4976,2.4684,2.4412,2.4529,2.4702,2.5314,2.5584,2.5143,2.4797,2.4721,2.4606,2.435,2.4134,2.4066,2.3567,3.135,3.1849,3.1893,3.1981,3.2113,3.23,3.24,3.24,3.2276,3.2157,3.2169,3.2213,3.23,3.2554,3.3399,3.3962,3.4408,3.4892,3.5789,3.6023,3.6096,3.6023,3.6168,3.6133,3.6228,3.6275,3.6323,3.631,3.637,3.6392,3.6367,3.6157,3.583,3.5592,3.527,3.4512,3.4161,3.4098,3.3552,3.3195,3.3244,3.3088,3.3124,3.3124,3.3124,3.3124,3.3048,3.3011,3.2579,3.2265,3.2127,3.18,3.1411,3.1424,3.1399,3.1361,3.1336,3.1235,3.1135,3.0984,3.0846,3.0758,3.067,3.0507,3.0319,2.9993,2.9817,2.9804,2.9779,2.9779,2.9779,2.9728,2.9689,2.9689,2.9689,2.9689,2.9689,2.9767,2.9818,2.9818,2.9779,2.9805,2.9857,2.9884,2.9846,2.9936,3.015,3.0085,2.9869,2.9592,2.9082,2.8589,2.821,2.8112,2.7699,2.7284,2.6917,2.6778,2.6521,2.6239,2.5974,2.546,2.501,2.5325,2.5639,2.6263,2.6569,2.6443,2.613,2.6062,2.5855,2.5672,2.5809,2.5783,2.5039,3.2038,3.2388,3.2475,3.2519,3.2562,3.2649,3.2692,3.2723,3.281,3.281,3.2798,3.2903,3.2928,3.2829,3.3598,3.4231,3.4537,3.4786,3.5553,3.6047,3.6194,3.6182,3.6279,3.6417,3.637,3.6417,3.6417,3.6417,3.6465,3.6417,3.6405,3.6414,3.6254,3.6028,3.5705,3.5203,3.4771,3.4625,3.4067,3.3959,3.3895,3.3637,3.3174,3.3124,3.3136,3.3136,3.3124,3.3124,3.2905,3.2692,3.2616,3.2528,3.2277,3.2252,3.2231,3.2102,3.1964,3.175,3.1741,3.1669,3.1568,3.147,3.1506,3.1333,3.1231,3.0901,3.0225,3.0136,2.9843,2.9779,2.9779,2.974,2.974,2.974,2.9779,2.9818,2.996,3.0113,3.0267,3.0457,3.0419,3.0457,3.0482,3.052,3.0494,3.0456,3.0748,3.0723,3.066,3.0758,3.0329,2.9884,2.9425,2.8507,2.7704,2.7486,2.7356,2.7287,2.7374,2.7013,2.6643,2.602,2.5648,2.6253,2.6724,2.7101,2.7346,2.7436,2.7662,2.7706,2.7378,2.7058,2.723,2.7353,2.6835,3.2431,3.2519,3.2692,3.2766,3.2797,3.2982,3.3081,3.3081,3.3081,3.3131,3.3226,3.364,3.3558,3.3508,3.3859,3.4361,3.4743,3.5056,3.5579,3.5943,3.5931,3.6119,3.6317,3.6417,3.6417,3.6452,3.6499,3.6546,3.6606,3.6687,3.6743,3.6467,3.6256,3.6054,3.6092,3.5747,3.5281,3.544,3.5289,3.5188,3.4761,3.4228,3.3819,3.353,3.3348,3.3311,3.3311,3.3235,3.3222,3.3288,3.3322,3.3259,3.3263,3.3174,3.3195,3.3123,3.2869,3.2688,3.2545,3.2374,3.2168,3.2031,3.2213,3.2232,3.2182,3.1729,3.102,3.0699,3.0417,3.0148,3.0148,3.0124,3.0124,3.0047,3.0086,3.0214,3.0433,3.0572,3.0762,3.1026,3.1052,3.1065,3.1168,3.1192,3.1192,3.1142,3.1078,3.0926,3.0924,3.114,3.1083,3.0717,3.0309,2.9306,2.8351,2.7928,2.7987,2.8143,2.8177,2.7793,2.7462,2.7192,2.7175,2.7533,2.7977,2.8174,2.8477,2.8722,2.893,2.9071,2.8698,2.8297,2.8447,2.8569,2.8619,3.2779,3.2982,3.2995,3.3025,3.3025,3.3081,3.3124,3.3124,3.3136,3.3307,3.3721,3.3828,3.3809,3.3809,3.4781,3.529,3.5307,3.5478,3.586,3.6304,3.6303,3.6335,3.6461,3.6675,3.6452,3.6593,3.6815,3.6968,3.7015,3.7268,3.7487,3.7415,3.7415,3.7285,3.7279,3.6819,3.6451,3.647,3.627,3.608,3.6002,3.5572,3.5212,3.4868,3.4561,3.442,3.4198,3.3828,3.3887,3.4021,3.4063,3.4034,3.3979,3.3979,3.3992,3.3924,3.3746,3.3804,3.3594,3.3517,3.3416,3.3429,3.3558,3.3338,3.3182,3.2882,3.2437,3.2424,3.2058,3.1537,3.1434,3.1371,3.1345,3.1048,3.0945,3.1216,3.1473,3.134,3.1297,3.1487,3.1602,3.1798,3.2099,3.2175,3.2288,3.2313,3.2463,3.2321,3.1963,3.1913,3.1857,3.1602,3.1282,3.0957,3.0368,2.9072,2.8862,2.9022,2.9062,2.8799,2.8677,2.875,2.8817,2.8854,2.8958,2.9123,2.9457,2.9791,2.984,2.9871,2.9697,2.952,2.9692,2.9866,3.0005]}]]